GFSCGP_sfc_thetae_000.txt.gz
Theta_e
295 291 289 291 289 288 286 284 284 287 291 288 288 289 286 289 284 282 280 280 280 282 284 284 284 283 283 283 284 284 285 286 287 287 286 286 285 286 287 287 288 288 289 291
291 288 292 292 290 288 287 285 284 288 289 287 287 286 288 288 286 285 282 280 280 281 282 283 283 282 282 282 283 284 285 285 286 286 285 285 284 284 284 285 285 285 286 286
289 292 292 290 287 286 285 285 283 284 286 285 283 282 286 285 286 283 282 282 281 281 281 281 282 280 281 281 282 284 285 285 285 284 285 284 283 282 282 282 282 283 284 284
288 290 289 287 286 287 283 286 286 284 281 277 281 276 280 280 282 282 282 280 280 280 282 282 282 280 280 282 282 283 284 284 284 283 282 280 279 278 280 280 281 281 282 281
290 286 286 286 287 289 285 285 284 283 280 277 279 275 279 279 279 280 281 280 279 280 281 281 281 282 282 282 281 282 283 283 283 282 281 279 278 278 279 279 278 278 279 280
289 288 287 287 288 287 288 284 282 280 277 272 277 277 275 276 280 281 282 279 279 279 280 281 282 282 282 281 281 281 281 281 282 280 279 278 277 276 276 276 276 276 277 279
286 286 286 289 285 287 285 280 276 273 271 274 276 274 282 282 281 282 282 279 278 279 279 280 280 280 280 280 280 281 280 280 280 279 278 278 277 276 275 275 275 275 275 276
282 281 285 287 286 285 283 281 277 270 271 279 275 274 279 280 279 282 283 279 278 278 279 280 280 280 279 280 279 279 279 279 279 278 277 277 276 276 275 275 275 274 274 274
281 281 284 284 284 285 281 278 281 275 262 266 274 277 280 278 276 277 277 277 277 278 279 279 280 279 279 279 279 278 278 278 278 276 276 275 275 275 274 274 274 274 274 274
286 281 282 281 283 282 282 283 276 275 269 266 275 276 279 275 275 275 276 276 276 278 278 279 279 279 279 279 278 277 277 276 276 275 274 274 273 274 274 274 273 273 273 273
284 284 280 280 279 281 277 277 277 278 279 273 271 280 280 278 279 276 277 277 277 277 278 278 278 278 278 277 276 276 274 274 274 274 273 272 272 273 273 273 272 272 273 272
285 281 277 278 280 279 280 281 281 276 274 276 276 278 283 281 280 279 278 277 277 278 278 278 277 277 277 275 275 273 273 272 273 272 272 271 271 271 271 271 272 272 271 272
284 279 274 279 277 276 276 277 281 279 279 277 274 278 278 277 277 277 276 276 277 278 277 277 276 276 275 274 273 272 271 271 271 270 270 269 269 270 270 271 271 271 271 270
290 281 281 281 283 279 275 275 277 280 277 278 278 279 284 280 275 274 275 276 276 277 277 276 275 274 273 273 271 270 270 270 269 269 268 268 268 269 269 270 270 269 269 269
285 282 281 285 287 281 282 283 278 277 280 278 281 282 285 287 283 276 277 275 276 276 276 275 275 273 271 271 270 269 269 268 268 267 267 267 268 269 269 269 268 268 268 268
281 280 281 280 282 280 279 282 283 282 282 281 281 280 287 288 277 276 275 276 276 276 276 276 275 273 272 271 270 269 267 267 268 266 266 267 267 268 267 267 266 266 267 267
279 279 277 279 280 278 275 280 281 282 283 282 277 282 287 283 276 275 275 277 277 276 275 274 272 271 270 269 269 266 266 266 266 266 265 265 266 264 265 265 264 264 264 265
279 280 280 277 276 271 283 278 281 280 282 282 282 283 282 278 276 276 278 277 276 275 274 273 270 267 268 268 267 266 266 265 265 264 263 264 263 263 263 262 262 263 264 265
288 286 279 276 274 279 283 283 276 275 281 281 282 283 283 276 275 273 276 275 274 273 272 270 268 267 267 266 265 265 264 264 263 263 263 262 262 260 260 259 260 263 264 265
284 284 282 274 271 271 283 274 276 278 274 283 282 281 275 275 270 272 274 274 272 271 270 269 268 267 266 265 264 263 263 262 261 261 261 261 260 258 258 260 261 263 264 265
276 278 277 279 277 275 281 276 277 272 281 278 279 277 276 275 276 275 275 272 272 270 268 267 266 265 264 264 263 261 261 260 261 260 260 259 258 257 260 261 261 262 263 264
275 274 272 277 272 272 279 275 276 281 278 278 276 276 277 276 274 275 273 271 270 267 267 266 265 263 263 263 261 260 259 260 259 259 256 255 256 260 261 259 260 261 261 262
279 280 275 277 276 281 281 279 282 281 279 277 277 278 278 276 274 274 272 270 269 266 266 264 262 262 262 261 260 258 259 258 257 253 252 255 258 260 260 259 260 260 261 261
279 284 279 278 284 282 280 283 282 281 281 281 280 279 279 277 276 274 272 270 267 266 264 262 261 260 260 259 259 257 257 256 252 251 254 257 258 258 259 260 261 260 260 260
282 282 281 280 284 283 285 281 282 281 281 280 279 279 279 278 276 274 270 268 267 265 263 262 260 259 258 258 257 256 255 253 251 253 256 256 257 257 259 260 260 261 262 264
283 284 281 282 287 287 287 283 283 281 280 280 279 277 277 278 275 273 269 267 265 263 261 260 259 258 257 256 256 255 252 251 249 252 254 255 256 257 258 258 258 263 265 266

GFSCGP_sfc_thetae_003.txt.gz
Theta_e
294 290 287 290 290 288 284 283 283 286 289 287 287 289 291 287 285 284 281 281 280 281 283 283 283 282 282 282 283 283 284 284 284 283 283 283 281 282 282 283 285 285 285 285
291 288 291 291 290 287 285 283 283 286 287 287 286 285 290 287 287 286 285 282 281 280 281 282 282 282 281 282 282 283 283 284 284 283 282 281 280 280 281 283 283 283 284 283
289 290 291 289 286 285 284 283 282 284 285 285 282 279 285 286 287 287 286 284 282 281 281 280 281 281 280 281 281 282 283 283 283 282 282 281 280 279 278 279 280 281 282 282
289 289 289 286 285 286 282 286 284 284 281 277 281 277 280 282 283 285 285 280 281 280 281 280 280 281 281 281 281 282 282 282 283 281 280 278 276 276 277 278 279 279 280 280
291 287 286 285 286 287 285 285 282 281 280 277 278 275 278 279 281 284 283 282 281 281 281 280 280 282 282 282 280 280 281 281 282 280 279 278 276 277 277 277 277 277 279 280
289 288 287 287 286 287 287 283 281 278 276 272 276 277 276 278 281 282 281 283 280 280 279 280 281 282 281 280 280 280 279 280 281 279 278 277 275 275 275 275 275 276 277 278
285 286 285 288 284 286 284 281 277 274 271 274 275 273 282 285 283 282 282 281 280 280 279 279 279 280 280 279 279 280 279 278 279 278 276 275 275 274 274 274 275 275 275 276
284 283 285 287 286 285 282 283 278 271 271 277 274 275 280 282 279 279 280 282 280 279 279 279 279 279 279 279 279 278 278 277 277 276 275 274 274 274 274 274 274 274 274 275
282 282 283 285 284 285 281 279 282 277 262 267 277 278 282 278 278 276 278 278 277 278 278 279 279 279 278 278 278 277 276 276 275 274 273 272 272 272 272 273 274 274 275 275
288 283 282 281 282 281 281 283 277 276 268 265 275 277 282 280 279 275 275 276 278 278 278 278 278 278 278 278 277 276 275 274 274 273 272 272 272 272 272 272 272 273 274 274
286 285 280 280 280 281 278 278 277 278 277 271 267 279 283 284 281 276 277 278 278 278 278 278 278 278 278 277 275 274 273 273 272 272 271 271 271 271 271 271 272 272 273 273
286 283 278 280 279 279 281 281 281 276 273 273 275 280 280 283 282 278 278 278 278 278 278 277 277 277 276 275 274 273 272 271 271 271 270 270 269 269 269 270 271 272 271 272
286 281 274 279 278 277 276 279 281 279 277 278 275 279 280 279 277 278 277 277 277 277 276 277 276 275 275 274 272 271 270 270 270 269 268 268 268 268 269 269 270 270 270 270
292 283 281 281 281 279 275 277 278 280 277 280 280 282 287 288 286 279 277 276 276 277 277 276 275 274 273 273 271 269 268 269 268 268 267 267 267 268 268 268 269 269 269 268
288 284 282 287 288 282 282 283 276 277 281 279 283 283 286 289 290 289 285 277 276 276 276 275 275 273 272 270 269 269 267 267 267 266 266 266 267 267 267 267 267 267 267 267
282 284 285 283 284 281 280 284 284 282 282 282 283 283 290 292 292 289 279 276 276 277 276 276 276 274 273 272 269 269 266 266 267 265 266 266 266 266 266 266 265 265 265 265
278 281 276 280 279 280 277 283 284 285 287 285 281 285 290 288 281 278 276 276 277 277 277 275 274 273 272 269 269 265 265 266 266 265 264 264 264 263 263 264 263 263 263 263
278 278 279 278 276 273 285 281 284 284 285 286 287 288 289 288 279 279 277 277 277 277 276 274 272 269 269 267 266 265 266 265 265 264 263 263 262 261 261 261 261 261 263 263
287 281 280 278 277 282 284 284 277 278 283 285 285 287 287 277 275 275 276 277 277 276 274 271 269 267 266 265 265 264 264 264 263 262 262 261 261 259 259 258 259 262 262 262
284 286 284 280 276 275 285 275 278 280 276 289 285 285 283 275 272 281 275 275 274 272 271 268 267 267 265 264 264 263 263 262 261 260 260 260 259 257 257 258 260 261 260 262
279 280 279 281 280 281 287 276 279 274 283 281 284 283 276 277 281 277 275 273 273 271 269 267 266 265 264 264 263 262 261 260 260 259 259 258 258 256 257 260 260 260 260 262
279 278 277 280 279 277 279 275 280 287 281 281 279 277 278 277 275 275 274 271 270 268 268 267 265 264 263 263 261 260 260 259 259 258 256 255 254 257 259 258 259 259 260 259
281 285 283 283 283 285 282 289 285 283 281 279 278 277 279 276 275 274 273 271 269 268 267 267 265 263 262 261 260 258 258 258 257 253 251 252 256 257 258 258 258 259 260 260
283 287 284 282 287 286 281 286 281 282 281 280 279 279 278 276 275 274 272 271 269 268 265 263 263 262 259 259 258 256 257 256 249 248 252 256 256 256 258 259 259 259 260 261
291 285 285 285 287 287 288 287 285 283 281 279 279 279 279 277 276 274 272 270 269 267 264 264 263 260 258 258 257 255 254 253 250 252 255 255 256 256 257 259 258 260 262 265
289 288 284 285 292 291 292 290 285 282 281 281 279 278 279 279 276 275 273 270 268 265 263 262 261 259 257 257 256 254 249 248 247 251 254 254 255 255 257 257 257 263 265 266

GFSCGP_sfc_thetae_006.txt.gz
Theta_e
292 290 288 289 289 289 287 283 283 285 287 286 286 288 291 291 285 285 283 282 283 283 282 283 282 282 281 281 282 283 283 284 283 282 281 280 280 280 280 281 283 283 283 283
290 288 291 291 289 287 284 283 283 285 286 286 285 285 289 291 288 287 287 284 283 283 281 282 281 280 281 282 282 282 282 283 283 282 281 281 279 279 280 281 280 281 282 282
288 290 292 290 286 285 283 282 282 283 284 283 281 282 282 286 288 288 287 287 285 283 281 281 281 280 280 280 281 282 282 282 282 282 281 280 279 278 277 277 278 279 281 281
289 290 289 286 286 286 282 285 283 282 280 277 282 279 280 285 286 285 286 284 284 283 282 282 281 279 279 280 280 281 281 281 282 281 279 277 276 275 276 276 277 278 279 279
289 286 286 285 287 287 285 283 282 281 279 276 277 275 278 279 282 287 287 286 284 282 282 281 281 281 280 281 280 280 280 280 281 280 278 276 276 276 276 276 276 276 277 279
288 287 287 287 285 285 285 282 280 277 276 272 278 277 277 278 282 284 284 283 283 280 281 281 281 281 281 280 279 279 279 279 279 279 277 276 274 274 274 274 274 275 276 277
286 285 284 287 284 285 283 282 277 274 271 276 275 273 282 283 284 285 285 282 281 279 279 279 280 280 280 279 279 279 278 277 278 277 276 275 274 273 273 273 274 273 274 275
283 283 285 286 286 285 281 282 278 270 270 277 273 275 282 284 284 280 279 279 280 278 279 280 280 280 279 279 278 278 277 276 276 275 274 274 273 273 273 273 273 273 273 274
283 283 284 285 284 285 281 279 282 276 264 268 278 279 282 284 282 280 279 280 279 278 279 279 280 280 278 278 278 277 276 276 275 274 273 272 272 271 271 271 272 272 273 274
288 284 282 281 282 280 280 282 277 277 271 265 275 277 280 285 283 284 278 278 278 277 278 279 279 279 278 277 277 276 275 274 274 273 272 272 271 271 271 271 271 271 272 273
288 287 282 280 280 279 277 278 277 279 276 272 268 280 283 285 286 286 281 280 278 278 278 279 279 278 278 277 276 274 273 273 272 272 271 270 270 270 270 270 270 271 271 272
287 285 282 283 278 278 280 280 281 278 275 273 273 280 283 285 286 283 281 280 278 278 278 279 278 277 276 275 275 273 272 271 271 271 270 269 269 269 269 269 269 271 270 271
287 283 280 281 279 279 277 280 280 280 277 275 274 280 282 282 281 279 280 279 277 277 276 277 277 276 275 275 273 272 271 270 270 269 268 268 268 268 268 268 269 269 269 269
293 285 282 281 282 281 277 279 280 282 278 280 280 283 288 289 290 291 285 278 278 277 277 277 277 276 275 274 272 270 269 269 268 268 267 267 267 268 267 268 268 268 268 267
288 284 285 286 287 280 280 281 281 278 281 279 283 283 287 289 290 292 292 286 278 276 276 277 277 275 273 272 271 269 268 267 267 267 266 266 267 267 267 267 267 267 267 266
283 283 285 283 285 283 281 285 285 280 281 281 283 283 291 293 294 292 292 286 279 276 277 277 277 276 274 273 270 271 267 267 267 265 266 266 266 266 265 265 265 265 265 265
279 280 274 279 281 279 277 282 285 287 287 284 280 285 290 290 290 290 290 282 280 278 277 277 276 275 274 272 271 266 266 266 266 266 265 264 264 263 263 263 263 263 262 263
280 279 282 280 274 273 285 289 286 285 287 289 288 290 291 291 292 282 285 283 279 278 277 277 275 272 270 268 267 266 267 266 266 265 263 263 263 261 261 261 260 261 262 263
288 283 280 278 278 282 284 284 281 280 284 289 286 289 290 291 280 286 280 281 281 278 278 276 273 269 268 266 266 265 265 265 264 262 262 262 261 259 259 257 259 260 261 261
287 287 284 281 276 274 283 288 282 282 280 291 290 289 288 281 280 287 280 277 276 276 274 270 269 268 266 265 266 265 264 263 261 261 261 261 260 257 257 258 258 260 259 261
279 281 279 280 279 282 288 278 282 277 283 287 291 290 289 282 287 280 276 274 274 272 270 268 267 266 265 265 264 263 262 261 261 260 259 259 258 257 257 258 259 258 259 261
282 279 279 279 278 277 286 279 282 289 293 290 284 284 284 285 277 275 274 272 270 268 269 267 265 264 264 264 264 262 261 260 260 258 257 255 254 255 258 256 257 258 259 259
283 286 285 285 283 288 287 292 292 294 293 289 283 282 284 279 277 274 272 271 270 269 268 267 265 263 263 263 262 262 259 259 258 253 252 250 254 256 257 256 257 258 259 260
287 291 287 287 288 288 286 290 294 294 291 290 283 281 281 278 276 275 272 271 269 269 267 266 264 262 260 261 260 259 258 257 251 251 255 257 256 255 257 258 259 258 259 260
290 289 287 287 290 292 293 294 292 287 284 282 281 281 281 279 276 275 272 270 269 268 266 266 265 263 260 259 257 257 255 253 253 254 256 255 254 254 256 258 257 260 262 265
292 289 286 286 292 291 292 295 295 290 285 283 282 279 280 280 277 275 273 271 269 267 265 265 264 262 260 259 257 254 252 250 250 254 254 254 254 254 256 256 256 262 265 266

GFSCGP_sfc_thetae_009.txt.gz
Theta_e
292 290 288 290 290 289 287 286 286 287 288 287 287 288 292 294 288 288 287 285 285 286 288 285 285 284 284 285 285 286 286 287 287 286 285 284 284 284 284 284 285 284 284 285
290 288 291 291 289 288 286 285 285 286 286 286 285 286 290 292 292 294 291 287 286 286 283 283 284 283 283 284 285 285 285 286 286 285 284 284 283 283 283 284 284 283 283 283
287 289 291 290 287 286 285 284 284 285 284 284 282 282 283 287 289 290 290 290 288 287 284 283 283 282 283 283 284 284 284 285 285 285 284 283 282 282 281 282 281 282 282 282
289 289 290 287 287 287 284 286 285 283 282 279 283 280 282 286 288 289 289 287 288 286 286 284 283 282 282 283 284 284 284 284 284 284 282 281 280 279 280 280 280 280 281 281
288 286 285 286 287 288 286 284 283 282 281 278 279 276 282 281 284 288 290 288 287 286 285 283 283 283 283 284 283 283 283 282 283 283 282 281 279 279 279 279 278 279 279 280
288 287 288 288 285 285 286 283 282 278 277 273 281 280 280 281 284 287 288 288 287 284 283 283 284 284 282 283 283 282 281 281 282 281 281 279 277 277 276 277 276 277 278 278
285 285 285 287 285 285 284 283 278 276 273 277 276 275 284 285 285 288 289 288 285 284 281 281 282 281 282 282 282 281 281 280 280 280 279 278 277 276 275 275 275 275 275 276
283 283 284 286 288 286 282 284 279 273 272 279 273 275 284 285 289 286 284 284 282 282 281 281 282 282 283 282 281 281 280 279 279 278 277 277 276 275 275 275 274 274 274 274
283 283 283 285 284 285 281 280 283 276 264 271 280 282 284 285 284 283 282 280 281 282 280 281 281 282 282 282 281 281 279 278 277 277 276 275 274 273 273 273 273 273 274 274
288 284 283 282 282 280 282 283 278 278 273 268 277 280 283 284 286 286 284 283 283 282 280 280 281 281 282 282 280 280 279 277 277 276 274 274 273 273 273 272 272 272 272 273
289 289 283 281 280 280 279 279 278 280 277 273 273 281 283 285 286 286 288 285 283 282 280 280 280 281 281 280 279 278 276 275 275 274 273 272 272 272 271 271 271 271 272 272
288 287 284 281 279 279 280 282 283 278 276 274 274 281 286 287 286 286 287 285 283 282 280 279 280 280 279 279 277 276 275 274 273 272 272 271 271 270 270 270 270 271 270 271
288 284 280 283 279 279 279 280 282 280 277 279 275 281 288 285 285 286 285 283 283 282 279 278 278 278 279 278 277 274 273 273 272 271 270 269 269 269 269 269 269 270 270 270
293 285 285 282 283 281 278 278 281 282 280 281 280 283 288 290 289 289 284 281 283 281 280 278 278 278 280 277 275 273 272 271 270 269 268 268 268 269 268 269 269 269 269 268
288 284 285 287 288 282 280 281 281 279 282 280 283 283 287 290 291 292 293 293 288 280 278 278 278 278 277 275 274 272 270 269 268 268 267 267 268 268 268 268 268 268 268 267
285 283 284 284 286 282 281 283 285 284 283 282 283 282 290 293 293 292 292 292 291 284 281 279 278 278 276 276 272 271 268 268 268 267 267 267 267 267 266 266 266 266 266 266
283 283 281 279 284 282 277 283 285 286 287 286 282 286 290 289 290 290 291 291 291 290 282 279 278 278 276 275 273 268 268 268 267 268 267 265 265 264 265 264 264 264 264 264
286 284 283 279 280 273 284 289 288 285 286 288 288 289 291 291 293 293 291 291 290 287 281 279 278 277 275 271 269 267 267 268 267 266 264 264 264 263 263 262 262 262 263 263
290 286 281 278 278 282 283 286 282 281 283 289 287 289 291 292 286 288 287 287 290 287 281 278 277 274 270 269 268 267 267 267 266 264 264 263 263 261 261 259 261 262 262 262
288 288 283 281 276 274 283 288 290 283 280 290 291 290 290 288 282 289 290 285 281 279 277 274 272 270 269 267 268 267 266 265 263 263 263 262 262 259 258 260 259 261 260 261
278 282 280 280 278 281 288 289 286 278 283 293 291 291 290 287 290 291 278 276 276 275 273 271 270 269 267 267 267 266 265 264 263 262 261 261 260 258 258 258 259 259 259 261
283 279 279 281 278 276 290 285 283 290 294 293 293 288 288 289 291 281 277 274 272 270 271 270 268 266 266 267 267 265 264 263 262 260 259 258 257 256 259 255 257 258 258 258
283 286 285 284 283 288 290 291 293 295 293 294 290 287 290 288 285 278 275 272 271 271 269 269 267 265 265 266 267 264 262 262 260 257 256 256 257 257 257 255 257 258 259 260
288 291 287 287 290 287 287 291 293 293 292 294 289 287 285 287 281 277 274 272 271 270 268 267 265 264 263 264 265 263 261 260 255 255 258 259 258 257 257 258 259 257 259 260
289 287 287 287 289 291 292 292 292 291 288 285 286 287 286 285 281 278 274 272 271 269 268 267 266 265 262 261 260 260 259 257 256 257 258 257 257 254 257 258 257 260 262 265
288 286 284 285 292 291 292 294 294 293 292 292 290 285 283 285 283 278 275 272 271 269 268 267 266 264 262 260 259 257 256 257 258 258 257 256 256 255 256 256 256 261 264 267

GFSCGP_sfc_thetae_012.txt.gz
Theta_e
301 299 297 300 301 300 297 295 295 299 295 294 295 295 297 301 300 300 300 302 300 297 299 298 296 294 292 293 292 293 293 293 293 293 291 291 291 291 290 291 290 289 288 288
298 295 301 298 297 296 295 295 296 298 293 292 294 292 296 298 299 300 301 302 302 298 297 296 294 292 291 291 292 292 292 292 292 292 291 291 290 290 290 290 289 288 287 287
296 298 296 296 295 293 294 294 296 293 292 291 289 291 292 295 296 297 299 300 301 298 296 294 292 291 291 290 291 291 291 292 292 291 290 288 288 288 287 288 288 288 287 286
296 298 296 295 295 295 293 296 294 291 290 289 290 286 294 295 294 295 300 300 298 297 296 295 292 290 290 291 292 291 291 290 290 290 289 288 287 287 288 287 287 286 286 285
295 292 292 293 295 295 294 291 291 289 289 286 290 285 291 288 290 295 299 301 299 298 296 294 291 290 290 291 291 291 290 289 289 289 289 288 287 287 287 285 284 285 285 285
295 294 294 296 289 291 290 290 289 286 287 283 290 287 290 290 292 295 298 299 297 296 296 295 293 291 290 291 290 290 289 288 288 288 288 287 286 285 284 283 283 283 283 283
293 293 292 292 292 291 290 291 288 287 284 285 286 284 288 293 294 296 299 300 296 296 294 292 290 289 289 289 289 289 288 287 287 287 287 286 285 284 282 282 282 281 281 282
289 288 289 293 295 295 289 292 289 283 284 286 282 282 290 294 297 297 294 295 293 293 293 291 290 290 289 288 289 288 288 287 286 286 285 284 283 282 282 281 280 280 280 280
288 290 289 289 291 294 288 287 292 289 278 281 288 292 293 292 292 292 292 293 294 294 293 291 290 290 288 288 288 288 288 287 285 284 284 282 282 280 280 280 279 279 279 279
294 288 289 286 288 287 288 291 285 287 282 281 286 288 289 291 291 292 291 292 295 294 293 291 289 289 289 289 289 289 288 286 285 284 283 281 280 279 279 278 278 278 278 278
293 291 287 287 286 288 284 286 285 285 286 283 282 286 291 291 293 292 294 296 297 296 294 292 290 289 289 289 288 288 287 286 283 282 281 279 278 278 277 277 277 277 277 276
294 291 287 290 286 287 290 290 289 285 284 284 285 286 294 294 294 294 295 294 295 295 295 294 291 289 288 287 287 286 286 283 282 281 279 278 277 276 276 276 276 276 275 275
291 287 285 287 284 284 285 286 288 290 289 285 283 285 295 295 293 292 293 295 293 293 294 291 289 288 287 287 286 285 284 282 280 278 277 276 276 275 275 275 274 274 274 274
295 288 287 284 287 287 285 286 286 287 284 285 285 288 292 294 294 296 297 294 293 295 294 292 290 287 287 286 285 284 282 281 278 276 276 275 275 274 274 273 273 273 273 272
291 286 288 290 292 291 289 288 286 284 286 284 287 288 292 294 295 296 297 297 296 296 292 292 290 287 286 285 284 282 281 278 276 275 275 275 274 273 272 272 272 272 272 271
289 285 287 285 289 288 286 288 289 288 288 287 287 286 293 294 295 294 295 295 294 294 296 292 288 286 284 283 282 279 278 276 275 274 274 273 271 271 271 271 270 270 270 270
286 285 284 281 287 286 281 285 287 288 290 290 285 290 295 294 294 294 295 295 293 294 295 295 288 285 283 282 280 278 276 274 273 273 272 271 270 269 269 268 268 268 268 268
287 285 286 282 284 274 287 292 291 289 290 292 291 292 294 294 295 296 297 296 295 295 295 292 288 286 283 282 279 277 274 273 273 272 269 269 268 267 267 266 266 267 268 267
292 288 283 279 280 284 285 288 287 286 287 292 290 292 293 295 293 294 296 297 296 297 297 296 289 285 281 279 276 273 272 272 271 270 269 268 267 266 265 264 265 266 267 266
290 290 284 282 277 276 287 291 293 290 281 293 292 291 291 292 287 292 298 296 296 294 287 283 282 279 276 274 273 272 271 270 269 269 268 267 266 264 263 264 264 266 265 265
282 283 280 281 280 284 291 290 291 280 285 293 294 293 292 290 293 296 293 287 285 282 279 278 276 275 273 272 272 271 270 270 270 268 266 265 265 263 263 263 264 263 263 265
284 281 280 281 278 277 294 292 286 293 296 296 296 294 291 292 293 293 290 281 279 278 275 275 274 272 271 272 272 270 269 269 266 265 265 264 262 263 264 260 262 262 263 263
284 289 286 286 286 293 296 294 296 297 296 296 295 296 293 292 292 292 286 280 277 276 274 274 272 270 270 272 272 270 267 266 265 263 261 261 262 262 262 261 262 264 264 264
287 293 287 288 291 293 294 296 297 298 295 296 297 296 292 293 292 289 284 279 276 275 273 272 270 269 268 270 270 267 265 264 262 261 262 262 262 262 262 264 264 264 265 265
286 286 285 284 286 291 294 295 296 295 294 292 293 291 293 293 291 290 285 281 277 275 273 271 270 269 267 268 265 265 263 261 261 262 263 262 262 262 262 263 263 264 266 266
284 282 281 281 288 288 290 294 295 293 293 294 293 293 294 289 291 290 287 283 277 273 271 270 270 267 266 265 263 262 261 262 263 262 262 262 262 262 261 262 263 263 264 266

GFSCGP_sfc_thetae_015.txt.gz
Theta_e
304 299 297 300 302 301 300 297 296 299 302 298 298 298 301 304 304 303 304 304 305 306 308 305 304 304 301 299 298 297 296 296 296 295 294 293 292 294 293 293 292 291 290 290
299 295 301 302 301 300 299 296 296 300 302 296 297 296 300 302 302 303 303 303 304 306 306 303 302 302 299 297 297 296 296 295 295 295 295 294 294 293 293 293 291 291 290 289
296 299 300 299 299 296 296 295 296 296 300 296 294 293 297 300 301 302 302 303 304 304 305 302 300 299 298 296 296 296 296 296 295 295 294 292 291 290 289 290 290 290 290 289
298 301 299 297 295 297 293 299 298 296 294 290 295 287 296 298 299 299 299 301 304 303 304 302 300 298 297 296 297 296 296 295 295 295 292 291 289 288 290 291 291 289 289 288
296 298 295 294 296 299 295 295 295 295 293 293 292 289 293 293 293 294 297 302 305 305 302 301 299 298 297 297 296 296 295 294 294 294 292 291 290 291 291 289 288 288 289 288
296 297 297 298 293 295 295 293 292 292 291 285 292 291 291 294 294 297 300 301 304 302 301 301 300 298 297 297 296 295 294 293 293 292 291 291 290 290 288 287 286 287 287 287
296 295 297 296 293 293 293 292 288 287 286 285 294 290 293 298 297 298 299 301 302 301 300 300 297 295 295 295 294 294 293 292 292 291 291 290 290 290 288 287 287 285 285 285
291 289 295 295 296 296 291 293 289 283 284 287 289 286 292 299 300 300 300 300 300 299 300 299 297 296 295 294 293 293 292 291 291 290 290 290 289 288 287 286 285 284 284 284
290 290 292 295 294 297 292 287 295 290 288 285 289 293 299 298 297 298 297 297 298 298 298 297 297 295 295 294 293 292 292 291 290 289 289 288 287 286 285 285 284 283 283 282
295 288 294 288 291 292 291 293 287 289 283 281 287 290 291 293 294 296 295 296 298 299 299 298 297 296 295 294 293 292 292 290 290 289 288 286 285 284 284 284 282 282 282 281
296 292 290 288 287 290 287 287 287 287 289 284 283 287 295 294 296 296 296 297 298 300 299 298 297 296 295 294 293 292 291 290 289 287 287 285 284 283 283 281 281 281 280 279
295 292 287 290 295 293 294 292 291 285 284 287 286 286 296 296 297 297 297 298 301 301 300 300 299 296 294 293 292 291 290 290 289 287 285 284 283 281 280 280 279 280 278 278
293 287 284 286 290 287 287 290 291 292 290 285 283 286 297 298 298 297 297 298 299 298 298 300 300 296 294 293 292 291 290 289 288 286 284 282 280 279 279 278 278 278 277 277
296 289 286 282 287 291 287 288 290 289 285 285 286 288 293 295 296 298 299 300 300 299 298 299 298 296 295 293 291 290 289 288 286 284 281 279 279 278 278 278 277 276 276 275
292 284 288 289 290 291 288 289 290 287 287 284 287 289 293 295 296 298 299 298 298 298 298 298 296 297 294 291 289 288 287 286 284 281 279 278 278 278 277 276 275 275 274 274
291 284 287 284 288 288 286 288 289 289 290 290 289 288 295 296 297 296 297 297 297 297 298 297 296 295 291 289 289 286 286 284 281 279 278 278 277 276 275 275 274 273 273 272
286 285 284 280 287 286 281 286 288 289 292 291 287 292 296 296 296 296 298 298 297 298 297 295 294 294 291 289 287 285 284 282 279 278 277 276 275 273 273 273 272 271 271 271
287 285 285 282 284 275 287 293 292 290 291 293 293 294 296 296 298 298 299 298 297 297 296 296 297 296 292 289 286 284 282 278 277 277 275 274 273 272 271 270 269 270 270 270
291 288 283 280 280 285 288 291 290 289 289 294 293 294 296 297 295 295 299 299 297 298 298 298 297 295 290 286 284 281 278 276 276 275 273 272 272 270 269 268 269 269 269 269
290 290 284 282 278 276 287 293 296 295 283 294 295 294 294 294 287 292 298 294 295 296 295 291 289 286 284 282 280 276 274 274 274 274 272 271 270 269 268 268 268 269 268 268
283 284 281 281 280 284 292 294 295 283 286 294 295 294 294 292 294 297 295 292 292 290 286 285 283 281 281 278 276 274 274 273 274 272 270 270 268 268 268 268 268 267 266 267
286 283 281 281 279 277 295 293 287 293 297 297 297 296 294 295 295 295 295 294 287 285 281 281 278 277 275 276 275 274 272 273 272 269 268 267 267 267 266 265 265 265 265 265
284 289 284 286 286 294 296 295 298 298 297 297 295 294 295 294 294 294 293 291 285 284 280 278 277 274 274 275 276 273 273 270 268 267 266 265 265 266 265 263 264 265 265 266
283 286 282 280 286 290 293 294 295 293 292 293 293 294 295 294 294 292 289 288 283 281 278 276 274 272 272 273 274 274 269 269 267 265 265 264 264 264 264 265 265 266 266 266
283 283 282 283 284 288 288 290 291 291 291 291 292 293 294 293 291 292 292 291 290 282 278 275 273 272 272 273 273 268 268 267 265 265 264 264 264 264 264 266 266 266 267 267
280 279 277 277 284 284 285 288 288 286 286 287 287 288 290 291 291 293 292 293 292 283 277 274 274 272 271 271 267 267 266 267 266 265 264 264 264 264 265 264 263 266 267 267

GFSCGP_sfc_thetae_018.txt.gz
Theta_e
300 294 291 295 297 297 295 294 292 296 298 295 294 295 297 299 299 297 299 300 300 299 301 302 301 299 298 296 294 294 292 292 293 290 289 288 289 289 288 289 289 289 288 288
296 292 298 299 298 295 294 291 292 295 297 294 293 293 296 297 298 300 299 300 301 298 299 299 299 298 297 295 294 293 293 292 292 292 291 289 288 288 288 289 288 289 288 287
292 295 300 297 295 294 293 291 291 291 294 292 289 288 292 295 298 299 300 300 300 297 297 297 297 297 295 294 293 293 293 292 292 291 291 288 288 286 285 286 286 287 288 287
294 298 297 294 293 294 289 294 294 292 289 285 291 282 290 292 293 294 296 297 296 296 298 297 296 295 294 294 294 293 293 292 292 291 290 287 286 283 284 286 286 286 287 285
292 293 292 292 293 295 291 292 290 290 288 286 287 284 287 292 290 293 295 297 297 297 298 296 296 295 295 294 293 292 292 292 292 291 290 287 285 285 285 284 285 284 284 285
293 295 294 294 292 293 292 290 289 287 285 280 286 286 284 288 291 292 294 295 296 296 295 296 295 294 293 293 291 292 291 291 291 290 289 288 286 285 283 282 282 283 283 283
290 292 293 294 290 290 289 287 280 278 277 280 287 284 289 291 292 293 294 295 295 296 294 293 293 292 292 292 291 291 291 290 290 289 289 288 287 286 284 283 283 282 281 281
286 285 291 292 292 290 287 288 281 275 279 283 283 280 286 294 295 294 295 297 295 294 295 293 293 292 292 291 291 291 290 290 289 289 288 288 287 287 285 284 283 282 281 280
286 286 290 291 292 293 288 284 289 283 278 277 285 287 291 292 293 293 293 292 292 293 294 293 292 291 290 291 290 290 290 290 289 288 288 287 286 284 284 282 281 281 280 280
291 286 290 287 288 288 287 289 282 283 272 272 282 283 286 290 293 291 289 291 291 292 292 293 293 292 292 291 291 290 290 289 289 287 287 286 285 284 282 281 280 279 278 278
292 289 286 286 284 286 283 284 284 285 283 277 278 282 288 289 290 291 291 292 292 293 293 293 293 293 291 291 290 289 289 288 287 286 286 285 283 282 280 280 279 278 278 277
293 289 284 287 290 290 289 288 288 283 282 281 283 284 292 293 291 292 292 293 293 294 294 293 293 291 290 290 289 289 288 288 287 286 284 283 281 280 279 278 277 277 277 277
292 285 280 282 288 287 284 287 289 289 287 283 280 283 293 296 290 290 290 291 293 293 293 294 292 291 290 290 289 288 288 287 286 285 283 282 280 279 278 277 277 276 275 275
295 288 284 280 284 288 285 287 287 287 282 283 283 285 291 293 294 295 296 295 293 293 293 292 292 291 291 290 289 289 288 287 286 285 283 281 279 278 277 276 275 275 275 274
290 282 286 286 288 288 286 287 287 286 286 282 285 285 289 292 294 295 296 296 294 294 295 292 291 292 291 289 288 288 288 286 285 283 282 280 278 277 276 275 275 274 274 274
291 283 285 283 286 286 284 286 287 286 287 287 288 287 293 294 295 295 296 296 296 295 296 293 292 289 288 288 289 286 285 284 284 282 280 278 276 276 275 274 274 274 274 274
286 284 283 280 284 284 280 284 286 287 289 288 284 289 294 294 294 295 296 297 296 294 295 292 290 289 287 287 287 284 284 283 281 280 278 276 275 274 274 274 273 273 272 273
289 286 286 282 284 275 285 292 290 288 289 291 291 293 294 295 296 297 298 297 296 295 295 292 289 290 289 286 283 282 281 281 280 278 277 275 274 273 273 272 271 271 272 271
294 289 284 280 280 284 286 289 288 287 286 292 291 293 294 296 296 295 299 299 298 297 297 292 290 290 288 284 282 281 280 278 277 276 275 274 273 272 272 271 270 271 271 271
291 292 286 284 279 277 286 291 294 293 283 293 294 293 293 294 287 291 297 297 293 293 291 290 288 285 283 279 280 279 276 275 275 275 274 273 273 272 271 270 270 270 270 270
283 284 282 282 281 284 290 291 291 280 284 294 294 294 293 290 290 291 290 290 290 289 288 284 283 281 279 278 278 276 275 274 275 275 273 272 271 272 270 270 270 269 268 269
283 280 280 282 279 277 288 288 285 286 288 288 288 289 288 290 290 290 290 288 288 287 284 280 277 276 275 276 277 275 274 274 274 272 270 270 269 270 269 267 267 267 267 266
276 278 275 277 277 285 286 287 289 289 286 287 287 289 291 290 290 289 290 289 288 285 280 278 277 274 273 274 276 274 274 273 271 270 268 267 267 268 267 265 265 265 265 266
277 281 277 279 283 283 287 289 291 288 287 288 288 287 287 286 287 287 287 288 287 280 280 278 276 274 273 273 274 274 273 271 269 267 267 266 267 265 265 266 266 266 265 266
277 276 275 274 278 280 282 283 284 284 283 283 284 284 284 285 285 286 286 287 289 288 281 278 277 277 276 272 272 270 270 269 268 266 266 265 266 265 265 266 266 267 268 268
276 274 272 271 278 278 278 281 282 281 280 278 279 280 282 283 283 284 285 287 288 287 282 277 277 277 274 272 272 268 269 269 267 266 265 265 265 265 265 265 266 271 270 272

GFSCGP_sfc_thetae_024.txt.gz
Theta_e
293 288 286 291 291 292 286 285 285 289 292 290 290 292 295 298 295 293 294 297 297 294 300 300 297 298 298 297 295 294 293 293 293 291 290 290 290 289 287 287 289 288 287 287
289 286 292 292 291 290 289 288 288 291 293 289 290 291 294 295 297 298 297 297 297 299 300 301 295 295 297 297 295 294 293 292 293 293 293 291 291 286 289 288 288 288 287 286
289 290 295 292 290 289 288 287 288 288 289 288 287 288 289 292 296 298 298 299 299 299 299 301 294 294 296 296 294 293 293 292 293 293 291 286 286 285 284 286 287 287 287 286
288 294 292 290 289 290 287 291 291 289 284 283 286 282 286 289 291 293 295 297 298 299 300 300 293 292 294 296 294 293 293 292 293 292 290 290 289 288 289 289 286 285 286 285
288 288 288 288 291 291 290 290 288 286 283 282 283 281 285 289 289 291 295 295 297 299 297 297 294 295 295 295 293 293 292 292 292 291 291 290 289 289 285 284 284 284 284 284
289 291 291 290 290 290 290 287 286 283 282 280 284 283 283 285 289 291 294 296 297 298 300 294 293 293 292 291 292 292 291 291 291 290 290 289 289 285 283 283 284 284 284 283
285 287 289 291 287 288 288 284 278 276 275 278 284 281 288 288 290 292 293 294 296 297 298 290 291 291 291 290 290 290 290 289 290 289 289 289 289 286 286 285 285 284 283 282
281 282 287 289 290 286 286 286 279 271 276 281 280 279 285 291 293 293 293 295 295 292 292 292 292 292 290 290 290 290 289 289 289 288 289 289 289 288 287 285 286 285 285 284
281 283 287 289 289 290 284 282 289 279 268 272 281 285 290 288 290 291 292 292 289 290 291 292 290 290 290 290 290 290 289 290 289 289 289 289 288 288 286 285 285 285 284 284
288 283 288 285 286 286 286 288 280 280 272 270 279 280 284 289 291 291 290 290 290 290 290 291 290 289 289 289 289 289 289 289 289 289 289 288 287 287 287 284 283 283 283 282
290 287 286 284 284 286 282 282 283 283 282 279 278 282 293 291 289 288 290 290 290 290 290 291 291 290 289 288 288 288 288 288 288 288 288 288 287 286 286 283 283 282 281 281
291 288 284 286 290 286 286 286 287 282 281 283 283 283 295 295 295 294 295 291 290 290 291 291 291 291 289 288 288 289 289 288 289 288 287 287 285 284 285 283 282 281 281 280
292 287 282 283 286 289 287 289 287 288 286 282 280 282 295 295 294 294 289 291 293 292 290 291 292 291 291 291 290 289 289 289 289 287 285 284 283 283 284 283 282 281 280 279
297 290 286 282 286 288 283 286 288 286 282 282 282 284 289 292 293 295 295 296 296 295 295 298 295 292 292 292 291 289 289 288 286 285 285 284 284 284 284 283 280 280 279 278
293 286 287 288 289 289 289 288 288 286 286 282 285 285 289 291 293 295 296 296 294 294 294 294 293 293 292 290 290 289 289 288 287 286 285 285 284 284 283 280 279 279 278 278
286 282 285 284 287 286 284 287 287 287 288 288 288 287 294 295 296 296 297 297 297 297 298 298 295 293 291 292 292 288 289 287 286 286 285 285 283 282 281 279 279 278 277 276
282 282 280 276 284 284 280 285 286 287 289 288 284 290 294 293 294 294 295 293 290 289 289 290 292 292 291 290 288 287 288 285 284 285 285 283 282 280 279 278 278 277 276 275
280 279 279 276 279 271 283 290 290 288 289 291 290 285 286 287 290 292 289 287 287 288 288 288 288 289 290 288 287 285 282 282 284 284 283 281 279 279 277 276 276 276 275 274
283 280 278 275 276 281 285 285 282 283 282 283 282 282 282 284 286 285 287 287 287 287 288 288 286 286 287 286 283 283 280 281 281 281 281 279 279 277 275 275 275 275 274 274
279 281 279 277 273 271 276 281 281 282 278 278 282 281 281 281 275 279 285 286 286 287 287 285 286 284 285 286 280 280 279 278 278 278 278 276 278 277 275 276 275 275 274 274
264 265 266 270 271 275 277 278 281 275 271 278 281 280 280 277 280 283 285 285 286 286 286 287 286 284 283 281 278 278 276 276 276 275 275 275 276 276 276 275 275 274 274 273
267 265 268 268 264 265 278 277 270 275 280 282 280 280 278 279 280 281 282 282 283 284 284 285 285 285 286 280 276 278 276 276 273 273 273 274 274 275 274 273 273 272 272 271
265 271 268 270 270 276 278 278 280 282 277 278 278 279 277 276 277 278 279 280 281 282 283 284 283 284 285 282 278 276 277 273 273 272 274 273 274 274 273 272 272 271 272 271
269 275 268 268 272 275 276 279 280 280 278 278 277 275 275 275 276 276 275 276 277 277 278 280 280 281 281 285 280 279 278 275 274 275 274 273 273 272 272 272 272 271 270 270
272 273 270 270 274 275 276 277 277 277 276 274 275 274 274 273 272 273 273 273 274 275 276 276 277 278 278 281 283 283 279 276 275 275 273 272 273 272 271 272 271 272 272 272
275 273 270 269 275 275 275 277 275 272 271 271 271 271 272 272 271 271 271 272 272 271 272 270 270 272 273 275 277 281 281 276 275 273 272 271 271 270 270 270 270 276 275 276

GFSCGP_sfc_thetae_027.txt.gz
Theta_e
292 288 286 290 290 291 284 283 284 288 291 288 289 291 293 296 295 292 294 296 298 298 302 301 298 297 297 296 296 295 293 294 294 292 290 290 291 290 289 290 290 288 288 287
288 285 291 290 289 288 287 286 286 290 292 287 289 289 292 294 295 297 298 298 297 299 299 300 295 294 295 295 296 295 294 294 294 294 294 293 293 289 291 289 289 288 287 286
288 290 293 290 287 287 285 284 287 286 288 287 285 287 289 292 294 297 298 299 299 298 298 299 297 292 295 295 295 295 294 293 294 294 293 286 286 285 285 286 287 287 287 286
288 291 291 288 287 288 286 289 289 287 284 282 285 280 285 288 289 291 294 296 296 297 298 298 298 292 292 295 296 295 294 293 294 293 292 291 290 289 288 290 288 287 286 285
286 287 286 287 289 290 287 288 287 284 282 281 281 279 284 287 286 290 294 295 296 297 296 297 298 295 293 294 294 294 293 292 293 292 292 291 291 291 287 285 284 286 285 285
288 289 289 289 289 290 289 285 284 282 281 278 283 282 284 284 287 289 291 293 295 296 296 296 295 293 292 291 292 292 291 291 292 291 291 291 290 287 285 285 285 285 285 284
283 286 288 290 286 286 286 283 277 275 274 279 281 280 287 288 289 291 292 294 294 293 293 294 292 291 292 290 290 290 290 290 291 290 290 290 290 288 288 285 286 284 284 283
280 283 286 288 288 286 285 285 278 271 277 282 280 279 288 290 291 291 290 291 292 292 293 293 292 292 290 289 288 290 289 289 290 289 290 290 290 289 288 286 287 286 285 285
280 282 285 287 287 289 282 281 286 280 268 272 282 284 291 290 289 288 290 289 290 290 290 290 290 290 289 288 288 288 288 290 289 289 289 289 289 289 287 286 286 286 285 285
286 282 286 285 287 286 285 285 280 278 271 270 278 279 283 288 290 291 290 291 290 290 290 289 290 290 289 288 287 287 288 289 288 288 289 289 288 288 287 285 285 285 285 284
289 286 286 287 283 284 281 282 283 283 282 279 277 281 292 292 292 289 288 289 290 290 290 292 291 291 289 287 287 286 287 288 287 288 288 288 288 288 287 285 285 285 284 283
291 287 283 286 289 286 285 285 285 281 280 282 282 283 295 295 296 295 295 296 295 292 291 289 290 290 290 288 287 286 286 288 289 289 288 287 288 287 286 286 284 285 283 283
291 287 282 284 286 286 285 288 288 288 286 281 278 281 294 295 295 296 296 293 291 291 294 294 292 292 290 290 290 288 288 288 288 288 287 287 286 285 286 286 284 283 283 282
295 289 286 280 284 287 283 285 287 287 282 282 283 285 289 291 292 294 295 297 293 293 292 293 293 292 291 290 290 288 288 288 286 285 285 286 286 285 286 286 284 282 282 281
287 281 284 284 284 284 283 284 285 284 286 283 285 285 289 292 293 294 295 294 289 287 288 287 287 288 289 289 290 288 288 286 286 286 285 286 286 286 286 284 283 282 282 281
284 277 280 277 281 282 281 284 285 286 286 285 285 284 291 285 286 286 288 285 285 286 286 287 287 286 286 287 288 288 289 286 285 285 285 286 284 284 284 283 282 281 280 279
277 275 271 271 277 276 271 277 279 282 284 282 279 279 281 280 280 283 282 282 282 283 284 284 285 286 285 286 286 287 285 286 283 284 285 284 284 283 283 282 280 280 279 278
276 274 270 269 270 259 275 281 282 280 277 277 277 278 279 279 280 284 282 282 282 283 284 285 285 285 285 285 285 285 284 283 283 282 283 281 283 282 281 280 279 278 278 277
279 276 272 269 264 273 277 277 274 273 274 277 275 277 278 279 279 279 282 283 283 284 285 286 286 286 285 285 285 284 283 282 281 281 280 280 280 280 278 277 277 277 277 276
275 277 272 262 264 262 272 276 278 277 270 277 278 278 277 277 271 274 280 281 282 283 284 284 285 285 285 285 285 283 283 282 281 279 280 279 279 280 277 278 277 278 277 277
260 258 259 256 257 265 271 275 277 266 267 277 280 279 278 275 276 279 281 280 281 281 281 283 283 282 284 284 284 283 282 282 281 277 276 276 276 277 277 276 275 275 275 275
265 258 255 255 254 258 274 275 269 271 275 275 277 276 275 276 276 276 277 278 278 278 279 279 279 279 280 282 283 282 282 283 277 275 274 274 275 276 276 275 273 274 274 273
265 268 263 266 265 275 276 275 279 278 276 276 276 276 276 274 274 274 275 275 275 275 277 277 277 277 278 279 281 280 281 282 278 275 275 274 275 275 275 273 272 273 273 272
271 275 270 267 273 274 276 278 278 278 277 277 276 274 274 272 273 273 273 273 273 273 274 275 274 273 273 275 275 274 276 280 280 277 276 274 274 274 274 275 274 273 272 272
273 272 270 271 274 275 277 277 277 277 276 275 274 273 272 272 272 272 271 271 271 272 272 271 271 271 270 271 271 273 274 275 275 278 277 275 274 274 273 274 274 274 275 275
275 273 270 269 275 275 276 278 275 274 273 272 271 271 272 271 270 270 269 270 270 269 269 268 268 267 267 268 268 268 270 270 270 273 276 276 274 273 273 272 272 278 277 278

GFSCGP_sfc_thetae_030.txt.gz
Theta_e
291 287 285 289 288 287 283 282 281 286 290 286 288 289 291 294 294 295 295 296 296 298 301 301 298 295 295 295 295 295 293 295 295 294 292 291 292 291 291 292 291 290 290 288
287 284 290 289 288 288 286 285 285 288 291 286 287 287 291 293 294 295 296 297 297 297 298 299 296 293 294 296 295 295 294 294 294 295 295 294 294 292 292 291 290 290 289 288
287 288 291 289 287 286 284 283 285 284 286 286 284 284 286 290 292 295 296 297 298 297 298 299 296 293 292 292 293 295 295 294 294 295 294 286 286 285 286 286 288 289 288 288
286 290 289 286 286 287 285 288 287 286 282 279 285 279 283 291 291 290 293 294 293 293 295 296 295 294 291 293 293 295 295 294 293 294 293 292 292 290 290 291 290 289 288 287
286 286 285 285 288 288 286 287 286 283 281 279 279 278 283 285 285 289 291 292 292 294 293 293 294 294 294 293 292 294 294 294 293 293 293 292 292 293 289 291 289 287 287 287
287 288 288 288 288 289 288 285 284 281 280 277 282 281 282 283 287 287 289 292 293 293 293 292 292 292 292 291 291 291 291 292 292 292 293 291 292 291 287 287 287 286 286 286
282 285 287 289 285 285 285 282 277 275 274 278 280 279 286 287 290 290 293 293 291 291 291 291 291 292 291 290 290 289 289 290 290 291 292 291 292 290 288 287 287 286 285 285
280 283 285 287 288 285 283 283 277 271 273 281 279 280 286 289 291 291 289 289 290 291 290 290 290 290 291 290 289 288 288 288 288 289 290 290 291 290 289 287 288 287 287 287
280 281 285 286 286 288 282 281 285 279 271 272 282 285 291 290 289 287 289 288 290 289 290 290 290 290 291 290 288 287 287 287 287 287 289 289 290 289 288 286 286 286 286 286
286 281 285 284 286 285 285 285 279 278 274 270 279 279 284 288 289 290 289 289 289 290 294 299 294 292 290 290 288 287 286 287 286 286 288 289 288 289 288 285 285 285 285 285
288 287 286 286 282 283 281 282 282 282 282 278 277 281 292 289 289 288 292 294 291 292 293 293 290 290 290 289 287 286 285 286 286 286 287 287 287 288 286 285 285 286 285 285
290 288 283 285 291 288 288 288 288 282 279 280 282 281 294 294 293 292 293 295 295 290 288 288 289 289 290 290 290 287 286 286 286 287 286 286 287 285 285 286 286 285 285 285
292 287 281 283 284 286 283 287 287 287 286 281 278 281 292 293 294 295 291 285 288 288 288 288 288 287 287 287 288 289 289 288 286 285 284 284 284 283 286 286 285 284 285 284
293 287 284 279 282 284 282 283 284 282 277 279 279 283 288 289 286 282 284 284 284 284 284 285 285 286 286 286 286 286 287 288 288 284 284 284 284 285 286 286 285 284 285 283
286 278 281 281 281 281 280 279 280 279 280 277 280 281 282 279 279 282 282 282 281 282 283 283 283 284 285 285 286 286 286 286 285 285 285 284 285 284 284 285 285 283 283 283
282 275 277 274 278 278 275 277 278 279 279 280 282 280 279 280 280 281 281 280 280 281 282 283 283 285 285 284 284 284 285 284 284 284 284 285 286 283 283 284 283 282 282 282
276 273 266 269 276 273 268 272 275 276 277 276 274 275 278 277 278 279 280 281 279 280 281 283 283 285 284 285 284 284 284 284 284 284 284 283 284 284 283 283 282 282 281 282
274 270 265 264 263 258 273 279 277 276 275 275 275 277 277 277 278 279 282 279 278 279 280 282 283 283 284 285 285 284 284 283 283 283 283 282 282 283 282 281 281 281 281 280
278 274 262 261 260 270 275 273 271 269 269 273 273 277 279 279 277 275 280 280 280 280 281 282 282 282 283 283 284 283 282 283 283 282 281 280 280 280 280 280 280 280 280 279
275 276 271 257 260 257 268 273 277 275 264 272 272 273 274 276 268 272 278 280 279 280 281 280 281 281 280 280 281 280 280 281 282 282 281 278 277 276 278 278 278 279 280 279
258 256 258 255 254 261 270 274 275 261 266 270 273 276 276 273 273 276 278 276 277 278 279 279 279 278 278 279 279 278 278 279 280 279 280 280 278 275 276 277 278 278 278 278
264 258 255 252 250 256 273 273 266 271 274 273 276 277 275 276 277 276 276 275 275 275 275 276 276 276 277 278 276 275 276 277 275 276 278 280 280 277 277 276 276 276 275 275
265 267 262 264 264 274 273 275 279 278 275 277 276 277 276 276 275 275 274 274 274 274 274 274 273 274 274 274 274 273 273 274 274 274 274 275 278 278 276 275 275 274 274 274
270 274 269 270 273 274 277 278 278 278 278 279 278 276 275 273 273 273 273 273 273 273 272 272 271 270 270 271 271 270 271 271 270 269 270 272 273 277 276 275 275 274 273 273
273 272 269 271 274 276 277 277 278 278 278 276 275 274 273 272 271 272 271 271 271 271 271 271 270 269 268 269 268 267 268 267 266 266 267 268 270 274 276 275 275 275 276 276
275 273 271 270 276 275 276 278 277 275 274 273 271 270 272 272 270 270 269 269 269 268 269 268 267 267 266 265 265 265 264 263 263 263 264 266 268 270 274 275 275 279 280 279

GFSCGP_sfc_thetae_033.txt.gz
Theta_e
291 287 285 289 288 287 284 283 282 285 290 287 289 289 291 294 293 294 296 296 296 297 300 301 300 300 298 298 298 297 296 299 300 301 299 298 297 298 297 298 297 296 296 294
287 284 289 289 288 287 286 285 284 288 290 286 286 287 292 293 294 295 296 296 295 296 297 298 298 298 297 298 297 297 296 297 298 300 300 301 300 299 298 297 296 296 295 294
287 288 291 289 286 286 284 283 285 284 286 286 285 285 287 291 292 293 295 296 296 296 296 297 296 297 297 296 296 296 297 296 297 299 299 292 294 293 294 294 293 293 294 293
286 289 289 285 285 287 284 287 287 285 283 280 285 279 287 293 292 293 292 292 293 293 294 295 295 296 296 296 297 296 296 296 296 297 296 295 296 293 294 295 294 293 293 292
286 285 285 285 287 287 286 287 285 284 282 281 281 279 283 286 289 290 292 294 294 295 294 294 294 295 295 296 296 295 295 295 296 295 296 295 295 296 294 295 293 293 292 292
286 287 288 288 287 288 287 285 284 282 281 276 282 281 282 285 287 289 291 293 292 293 293 293 293 293 295 294 294 294 294 294 294 294 295 294 294 295 291 292 291 291 291 290
283 285 287 289 285 286 286 283 278 277 275 279 281 279 286 288 292 290 291 292 292 292 291 292 295 295 296 295 294 293 292 292 292 292 293 294 293 294 291 291 291 289 289 289
280 283 285 288 289 287 285 285 281 274 274 282 279 279 285 290 291 290 290 290 291 294 293 293 293 292 293 292 293 291 290 290 290 291 291 293 293 293 292 290 291 290 290 290
285 282 284 286 287 289 284 282 286 281 271 274 283 287 290 289 289 290 289 290 291 291 290 289 289 290 290 290 290 290 289 289 289 289 290 290 291 292 291 290 290 290 290 290
288 283 288 286 285 285 286 287 281 280 275 275 281 282 284 288 290 289 290 286 287 288 288 288 288 287 288 288 289 290 290 289 288 288 288 289 290 290 291 288 288 289 289 289
292 286 285 287 285 286 287 283 283 283 282 278 277 281 288 288 286 285 287 288 286 286 286 286 287 288 288 288 288 288 288 288 288 289 289 288 288 288 289 287 287 288 288 287
293 288 284 286 289 289 288 287 287 282 280 282 282 281 293 290 287 285 284 284 284 284 284 285 285 286 287 286 287 287 287 288 287 287 288 287 288 287 287 287 287 287 286 286
292 286 281 280 283 287 285 287 286 284 284 280 278 281 289 289 288 283 281 282 282 283 283 284 284 285 286 286 286 286 286 287 287 286 286 287 286 286 286 287 287 286 286 286
293 287 284 279 282 282 281 281 281 280 276 277 277 279 283 284 281 282 281 282 282 281 282 283 284 284 286 286 285 285 285 286 286 285 285 285 285 285 286 287 287 286 286 285
286 281 281 284 281 280 279 278 279 277 278 274 277 277 281 279 278 279 280 281 282 280 280 281 283 283 285 285 285 286 285 285 285 284 284 284 285 285 285 285 286 286 285 285
282 276 277 271 278 279 276 276 276 276 276 275 276 276 279 280 279 278 278 278 281 279 279 280 281 282 282 283 283 284 284 284 284 283 283 284 283 283 283 284 284 285 284 284
277 275 268 270 276 271 266 272 275 275 274 274 272 275 277 276 277 278 277 278 280 279 279 279 280 281 281 281 282 282 283 282 282 283 283 283 282 280 281 282 282 283 283 283
276 270 265 260 260 256 272 275 277 276 275 274 273 273 275 276 279 278 279 278 279 279 279 279 280 280 280 281 280 281 281 280 281 281 282 283 281 279 280 280 281 281 282 282
278 274 259 258 255 266 272 273 271 268 267 273 270 271 275 278 278 276 279 278 278 279 279 280 280 280 280 279 279 279 278 278 278 279 281 278 277 279 280 279 280 280 281 281
275 276 268 255 257 254 268 272 275 273 264 271 271 272 273 276 268 273 277 278 278 278 278 278 279 279 278 278 278 277 276 276 275 278 277 276 276 279 279 279 279 280 280 280
257 258 266 263 262 262 270 274 274 261 265 270 271 274 274 273 275 278 278 277 277 277 277 277 276 276 276 277 276 276 275 274 275 276 274 274 275 276 276 279 279 279 279 279
265 257 253 250 250 256 271 273 267 271 275 273 276 276 275 276 277 278 278 277 276 275 276 276 274 274 275 275 274 273 272 274 274 272 272 272 272 272 274 275 277 278 277 277
264 267 262 264 263 272 273 274 278 278 275 277 277 277 277 276 276 276 275 275 275 275 275 275 273 273 273 273 273 270 271 272 271 269 268 268 269 270 270 271 274 276 277 276
269 273 269 270 273 274 276 278 278 278 278 279 278 277 275 274 275 274 273 273 273 273 272 272 271 270 270 271 271 270 270 269 267 265 265 266 266 267 268 270 272 276 276 275
273 272 269 270 274 276 277 277 278 278 278 275 274 274 273 272 271 272 271 270 270 270 270 270 269 268 268 269 268 267 267 266 264 263 264 263 264 264 266 268 270 273 276 277
275 273 271 269 276 275 276 278 276 274 273 271 270 270 271 270 269 269 267 268 267 267 266 265 265 264 264 264 263 263 263 263 261 260 261 261 262 262 264 265 266 273 276 280

GFSCGP_sfc_thetae_036.txt.gz
Theta_e
299 295 292 296 297 297 294 292 292 295 298 294 294 295 297 299 300 300 301 302 303 304 306 306 307 308 308 308 307 307 307 308 309 310 310 311 311 312 311 312 311 309 307 304
294 292 297 298 295 293 293 291 292 295 296 293 294 293 296 299 299 300 301 303 303 303 305 305 305 306 306 306 306 306 305 306 307 308 309 310 309 310 310 310 309 308 306 304
294 297 296 294 293 291 293 290 292 292 294 294 292 293 295 299 299 300 302 302 302 301 301 302 304 305 306 305 305 305 305 305 304 306 307 307 307 305 306 306 306 306 305 304
294 296 293 291 291 293 290 296 293 291 289 287 293 286 295 299 299 299 301 300 300 301 301 302 302 302 302 302 304 303 303 303 303 303 304 304 302 301 302 303 304 304 303 302
294 291 291 291 292 293 291 293 291 290 289 288 290 286 294 294 295 296 298 299 300 300 300 300 300 300 300 301 300 301 301 301 302 301 302 302 302 303 304 303 302 302 300 301
293 294 294 294 293 293 293 292 291 289 288 284 291 288 291 293 294 297 297 297 297 297 296 296 296 296 296 297 297 297 297 297 299 300 301 301 300 301 300 301 299 299 299 298
293 293 294 293 291 292 291 289 285 286 284 285 288 286 290 296 296 294 294 293 294 294 293 292 292 292 293 293 294 294 294 294 296 297 298 299 299 300 299 300 299 299 297 297
289 288 290 293 293 294 289 290 286 280 283 287 289 285 291 297 295 294 294 294 294 293 293 293 292 292 292 292 292 292 293 292 292 294 294 296 297 297 298 299 299 298 298 298
289 289 293 291 293 294 289 287 294 286 287 282 287 292 295 294 293 293 293 293 291 291 291 291 292 292 292 291 291 291 291 292 291 291 293 294 294 295 296 297 297 297 298 297
293 287 295 294 291 291 290 292 284 285 278 278 284 287 288 290 292 292 291 289 289 289 289 289 289 290 291 292 292 292 292 291 291 290 291 292 292 293 294 294 295 295 296 296
293 289 290 292 289 289 287 286 287 287 285 280 279 285 292 290 288 288 288 287 287 287 287 287 288 289 290 291 291 291 291 290 290 290 290 291 291 291 292 292 293 294 295 295
296 289 284 288 295 296 294 291 291 284 282 284 283 283 295 290 287 287 285 285 286 286 286 286 287 288 288 289 289 289 289 289 289 289 289 289 290 290 290 290 291 292 292 293
294 288 283 284 287 291 288 288 288 286 284 281 279 282 295 293 290 285 284 284 284 284 283 284 285 286 286 287 287 288 288 288 288 287 287 287 288 287 287 287 289 290 290 290
294 287 285 280 284 287 283 286 285 282 278 280 280 281 285 287 284 282 281 282 283 284 282 282 283 285 286 286 286 286 286 287 286 285 286 286 286 286 285 286 287 288 288 289
289 282 285 285 286 283 282 281 281 279 280 276 278 279 283 282 281 281 282 281 281 283 281 282 282 283 284 284 284 285 285 285 285 283 284 285 286 286 284 283 284 286 286 287
283 280 279 276 281 281 278 280 280 280 279 278 279 278 282 282 283 281 281 280 280 282 281 281 282 282 283 283 283 283 283 283 284 282 283 284 286 284 281 282 283 284 285 286
280 279 275 273 279 275 271 275 278 279 280 279 274 278 279 277 278 279 280 280 280 281 281 281 282 282 283 283 283 283 283 283 282 282 282 282 284 280 279 281 283 282 283 285
278 277 276 271 270 265 276 280 280 279 277 279 278 278 278 278 280 281 282 282 281 282 281 282 283 283 283 284 283 283 282 281 281 281 281 282 281 278 278 279 281 282 282 283
280 277 272 268 269 272 274 277 276 275 275 279 278 278 278 279 280 279 282 283 282 283 283 283 283 283 282 282 282 281 281 280 280 279 279 280 279 276 277 276 278 278 280 281
277 278 273 264 265 264 274 276 278 277 270 276 277 277 277 278 272 276 282 283 283 283 284 283 282 281 281 281 280 279 278 278 278 279 278 278 277 275 275 275 275 277 279 280
270 271 269 270 268 271 277 278 278 268 271 279 279 278 278 277 279 281 282 282 283 283 282 282 281 280 280 280 279 277 276 276 277 278 277 276 275 274 274 273 274 274 275 276
270 268 267 264 264 264 276 276 272 278 281 280 280 280 280 280 280 281 281 281 282 281 280 280 278 278 278 278 276 275 274 276 276 275 274 273 272 272 272 271 271 271 272 273
269 273 271 270 271 277 278 279 282 282 280 281 281 281 281 279 279 280 279 279 278 278 277 277 276 275 275 275 274 272 273 274 272 270 269 269 269 269 269 268 269 269 271 272
276 278 273 273 276 277 279 281 282 282 281 282 282 280 278 277 276 275 275 275 274 274 273 273 272 270 270 271 270 270 270 269 267 266 266 266 266 267 267 268 268 268 269 271
276 276 274 274 277 278 279 281 281 282 282 279 276 275 274 274 272 272 271 271 270 270 269 269 267 267 266 267 266 266 265 264 263 262 263 263 264 264 264 265 266 267 269 271
278 276 273 272 278 277 278 281 281 279 277 273 272 272 272 270 269 269 268 268 267 266 266 264 264 264 263 262 262 262 261 261 260 260 260 261 261 262 262 262 263 267 269 271

GFSCGP_sfc_thetae_039.txt.gz
Theta_e
301 296 293 297 299 299 297 295 294 298 301 299 298 297 299 302 303 303 304 305 305 305 307 308 309 309 309 309 309 309 309 310 312 313 314 315 315 318 318 319 319 317 315 312
296 293 299 301 300 296 295 294 294 298 301 298 297 295 298 301 303 304 303 303 303 304 304 305 305 306 306 305 306 307 307 308 308 311 312 313 313 315 316 316 316 316 314 312
295 299 301 297 297 295 295 294 295 294 297 297 295 294 298 302 305 302 302 302 303 302 301 301 301 301 302 302 303 303 304 305 306 307 308 309 310 310 307 310 311 313 313 311
297 298 295 295 294 295 291 297 295 293 291 288 295 286 295 300 301 299 299 300 299 299 298 298 298 297 298 299 301 301 301 302 304 304 304 305 304 303 305 307 309 310 310 309
295 294 293 292 294 296 293 296 293 292 290 290 291 288 295 300 296 296 297 297 297 297 296 295 295 296 296 297 298 299 299 299 300 302 302 302 303 304 304 305 307 306 307 306
295 298 295 295 296 296 296 293 294 294 291 286 292 291 293 295 295 294 295 295 296 296 296 296 296 296 295 296 297 297 296 295 297 299 299 299 299 301 301 302 302 303 303 303
297 297 298 296 293 295 293 291 287 286 285 286 292 291 293 297 295 296 294 295 295 296 295 295 294 294 294 294 295 295 295 293 294 295 296 297 297 298 298 299 300 301 301 301
290 288 294 295 294 294 294 293 286 280 282 286 293 287 293 297 295 296 296 295 294 293 293 292 293 293 293 294 294 294 294 293 293 293 294 295 295 296 297 297 297 299 299 301
290 290 299 296 298 295 292 289 295 288 288 284 288 292 295 295 295 295 294 293 290 290 290 290 291 292 292 292 292 292 292 292 292 292 293 293 294 294 294 294 296 297 298 298
294 288 296 295 294 294 290 292 286 286 279 279 285 288 288 293 293 293 290 289 289 290 289 289 289 290 291 291 291 292 291 291 291 290 291 291 292 293 293 294 293 293 294 295
294 291 290 294 290 289 288 286 287 287 286 280 280 285 294 292 290 289 289 289 288 288 287 287 288 289 289 290 290 289 289 289 289 289 289 290 290 290 290 290 291 292 292 293
296 290 286 288 295 296 295 291 290 283 282 284 284 285 296 291 289 289 287 287 287 287 286 286 286 287 287 287 288 287 288 288 288 288 288 288 288 289 288 287 287 288 289 291
294 287 282 284 288 292 289 290 289 288 285 282 280 283 294 289 288 286 286 285 286 286 285 285 285 285 286 286 286 286 287 287 287 286 286 286 286 287 286 285 285 286 287 288
295 287 284 280 284 287 284 287 288 286 281 281 281 283 287 290 289 285 284 283 283 284 285 284 284 284 285 285 286 285 285 286 286 286 284 284 285 285 286 284 283 284 285 285
291 282 285 286 286 285 284 283 284 282 283 279 282 282 286 288 287 284 284 284 282 282 284 284 283 283 284 284 285 285 285 285 285 284 284 283 284 284 285 282 281 283 284 284
285 281 282 278 283 283 280 282 283 282 282 282 283 282 288 286 284 283 282 282 281 282 282 283 283 283 283 284 284 285 285 285 285 283 283 283 283 283 284 281 280 281 282 283
282 281 278 274 279 278 273 277 279 281 283 282 277 281 282 280 280 280 280 281 281 282 283 282 283 284 284 284 284 284 285 285 284 283 282 282 282 281 282 280 279 279 280 281
280 279 278 273 274 266 278 282 281 279 280 281 281 280 279 279 280 281 283 282 282 282 282 283 284 284 285 285 285 284 284 283 282 281 281 281 281 280 280 279 278 278 279 278
282 279 274 271 271 274 276 278 278 276 276 282 281 280 279 280 280 280 283 284 283 283 284 285 286 286 285 284 284 282 281 281 280 280 280 280 280 279 278 276 276 276 276 276
278 280 275 272 266 265 275 278 280 278 271 281 282 279 279 279 273 277 283 283 284 285 285 285 285 284 283 282 281 280 279 278 277 278 278 279 279 277 276 276 275 275 275 275
272 273 271 271 269 272 279 279 279 269 272 280 281 280 279 277 280 282 284 283 284 284 284 284 284 281 280 280 279 277 276 275 277 277 276 276 276 275 275 274 274 273 272 272
271 270 270 271 268 266 280 278 273 280 282 283 281 281 281 281 282 282 282 282 282 281 281 280 278 278 278 277 275 274 273 274 274 273 272 271 271 272 272 270 270 270 270 269
270 275 273 273 273 280 281 281 283 283 281 281 282 282 282 281 281 281 280 279 279 278 277 276 274 273 273 273 272 269 270 270 269 267 265 265 266 266 267 266 266 267 267 267
277 279 275 274 277 278 280 282 283 283 282 283 283 283 281 279 279 277 276 276 275 274 273 272 270 269 268 269 268 267 267 266 263 261 261 262 262 262 263 264 265 264 264 265
278 278 276 275 278 279 281 282 282 282 283 282 280 277 277 276 274 274 273 272 271 271 270 269 267 266 266 266 265 264 264 262 261 260 260 261 261 261 261 262 262 263 264 265
279 277 274 273 279 279 279 282 283 282 281 279 275 275 274 272 271 271 269 269 268 267 266 265 265 264 263 263 262 262 262 261 260 259 260 260 260 261 261 261 261 265 267 268

GFSCGP_sfc_thetae_042.txt.gz
Theta_e
298 292 289 293 295 295 293 291 290 294 298 295 294 295 296 299 298 297 298 296 298 299 300 300 300 300 300 300 301 302 302 304 306 306 307 308 308 311 312 312 313 313 311 310
293 289 296 298 297 295 293 290 289 294 297 294 292 292 296 298 298 297 296 297 297 297 297 297 296 297 297 297 298 298 300 301 302 303 305 306 306 306 308 310 311 311 310 308
292 296 299 297 295 293 292 290 291 290 292 293 290 288 292 296 296 297 296 296 295 294 293 293 293 293 294 294 295 296 297 298 300 300 301 301 302 302 301 301 304 307 309 307
295 296 295 293 292 293 288 293 292 290 287 282 290 279 288 293 292 294 293 292 292 292 293 293 293 292 292 293 294 294 295 296 298 298 298 297 297 297 298 299 301 304 306 305
293 292 291 291 292 294 290 292 290 289 286 284 286 282 287 292 289 290 291 292 291 292 292 292 292 293 293 293 293 293 292 293 295 296 295 295 294 296 297 298 298 299 301 302
293 294 293 293 294 293 293 290 290 289 286 279 287 285 286 288 289 289 291 292 292 292 291 292 292 292 292 292 291 291 291 291 292 293 294 293 292 292 293 293 294 295 297 298
292 292 293 294 290 291 289 286 281 280 278 279 289 286 289 291 292 292 292 291 290 289 289 289 289 290 290 291 290 291 290 290 291 291 291 291 291 291 291 291 291 291 293 294
287 286 292 293 292 289 289 288 280 274 276 280 286 281 289 292 293 293 291 290 289 288 288 288 288 288 289 289 289 289 290 288 289 289 290 291 290 290 290 290 291 291 291 293
287 287 292 292 293 293 289 286 291 284 280 280 283 288 291 292 291 291 289 287 286 286 287 287 288 288 288 288 288 288 288 288 287 287 288 288 289 288 288 288 288 289 290 292
292 285 292 289 291 290 288 289 282 284 276 271 279 281 285 288 289 288 286 285 286 285 285 285 286 286 287 287 286 287 287 286 286 286 286 287 287 287 287 286 285 285 286 288
293 289 287 291 288 287 285 284 285 286 283 277 276 279 289 288 289 286 286 286 285 284 283 284 284 286 286 286 285 284 285 285 284 284 284 284 285 286 285 284 283 283 284 285
293 288 282 286 292 292 289 288 288 281 278 282 283 282 290 288 287 287 286 286 286 286 284 283 284 283 284 283 283 283 283 284 284 284 283 283 284 284 284 283 282 282 282 283
292 285 274 278 285 289 286 288 288 287 284 281 278 279 288 287 285 285 284 282 283 284 282 282 282 282 282 283 284 284 284 284 284 284 282 282 281 281 282 282 280 280 281 281
294 287 280 275 280 284 280 283 285 284 279 279 279 281 285 287 286 283 282 281 280 280 281 283 281 281 282 283 282 282 282 283 283 282 281 280 280 281 282 282 280 278 279 280
289 277 281 283 284 283 280 280 281 278 280 275 278 279 283 285 286 281 282 281 280 280 280 280 281 280 281 281 281 282 282 282 282 281 280 280 281 281 281 280 280 279 278 279
286 272 277 270 280 280 278 280 280 280 280 280 281 280 286 284 280 279 279 279 279 280 281 281 281 281 281 281 281 282 281 281 281 280 280 281 281 281 280 280 280 279 278 278
279 275 268 265 276 274 267 274 277 278 280 279 275 279 278 277 278 277 277 278 279 279 280 280 280 280 280 281 282 280 281 281 280 280 281 280 280 280 280 280 279 279 277 277
278 273 271 264 265 257 274 278 276 275 277 277 276 274 275 276 277 277 278 278 278 279 279 280 280 280 281 281 280 280 280 279 279 278 279 279 279 279 279 279 278 278 278 276
281 277 267 262 261 270 274 275 273 272 271 275 274 275 277 277 276 275 280 280 279 280 280 281 281 281 280 279 279 278 278 278 277 277 277 277 277 277 277 276 277 277 276 276
276 277 272 260 259 257 270 274 278 275 265 273 273 274 275 276 268 274 279 280 280 281 281 280 279 279 278 277 277 276 276 275 274 275 275 275 274 273 273 274 274 275 275 274
263 264 267 269 266 267 274 276 277 264 268 275 275 276 276 274 276 279 280 279 279 279 279 278 276 276 276 276 274 273 272 271 272 272 271 270 270 268 268 268 269 269 269 270
267 263 262 261 259 260 276 275 269 274 278 276 278 278 277 278 278 279 279 278 277 276 276 276 274 273 274 273 271 270 269 270 269 268 267 265 264 264 264 263 263 264 264 264
266 271 266 268 267 276 276 276 279 279 276 279 278 279 278 278 277 277 276 275 275 274 274 273 270 270 270 270 268 266 267 267 266 263 261 261 261 261 262 261 261 261 261 261
272 275 270 269 274 276 278 279 279 279 279 279 279 279 278 277 276 275 274 274 273 272 271 270 267 266 266 266 266 264 265 264 262 260 260 260 260 260 260 261 261 260 260 260
274 274 271 271 276 277 278 279 280 280 280 279 278 277 276 274 273 273 271 270 270 269 269 267 265 265 264 264 263 262 262 261 260 260 260 259 260 259 260 261 261 261 262 262
277 275 272 271 277 277 277 279 280 279 278 277 277 273 274 272 271 270 269 268 267 266 265 264 264 263 262 261 261 261 261 260 259 258 258 258 258 259 259 259 259 265 267 268

GFSCGP_sfc_thetae_045.txt.gz
Theta_e
294 289 286 289 290 290 288 287 286 290 295 291 291 290 293 297 294 293 294 293 292 292 294 294 294 294 294 295 296 296 298 299 301 304 305 306 307 308 310 311 312 312 311 311
290 286 293 294 294 292 290 287 286 290 293 291 290 289 293 292 291 293 291 291 291 291 291 292 292 292 292 292 293 294 295 296 298 300 299 301 302 301 302 303 307 309 308 308
288 292 296 294 292 291 289 288 287 288 289 290 286 286 289 291 292 292 291 291 291 290 290 290 290 290 291 291 290 292 293 295 295 296 298 298 298 298 298 298 299 301 306 305
291 295 294 292 290 291 287 292 291 289 284 281 286 278 285 288 288 289 289 288 288 289 290 291 290 290 290 290 291 291 292 293 294 294 294 293 292 292 294 295 296 298 300 303
291 290 289 289 290 292 289 291 289 287 284 282 283 280 283 288 286 286 287 288 289 290 290 289 289 290 290 289 289 289 290 291 292 292 292 291 290 291 292 292 292 293 295 297
290 292 291 291 292 291 291 288 287 285 283 278 284 282 283 285 287 286 288 289 289 288 288 288 289 290 289 289 288 289 289 289 290 291 291 290 289 290 289 290 289 291 292 293
289 289 291 292 288 290 288 284 279 277 276 278 285 283 286 288 289 289 288 286 286 286 286 286 287 287 288 287 287 289 288 287 288 288 289 289 289 288 288 288 288 288 288 289
285 284 289 292 291 288 286 286 278 270 275 277 284 280 284 288 289 288 287 286 286 285 286 286 287 287 287 287 287 287 287 287 287 287 287 287 288 288 287 287 287 286 286 288
286 286 290 291 291 292 287 284 288 281 277 273 281 284 288 288 286 285 284 285 284 284 285 285 285 286 286 285 286 286 287 286 286 285 286 286 286 286 285 284 283 284 285 286
290 285 290 288 290 288 287 288 281 280 268 268 278 279 281 284 284 284 284 284 284 284 284 283 284 284 284 284 284 285 285 285 285 285 285 286 286 287 286 284 282 282 282 283
291 288 286 289 287 286 284 283 283 284 280 274 272 277 286 287 285 284 285 285 284 283 282 283 283 283 284 283 283 283 283 284 284 284 283 284 284 284 285 284 284 283 281 282
291 285 282 284 290 289 288 285 285 281 275 281 279 280 288 287 287 286 286 285 284 283 282 282 283 283 283 283 282 282 283 282 284 283 284 283 283 282 282 282 282 281 281 281
291 281 271 276 283 286 285 286 287 285 284 276 274 277 286 285 286 286 283 282 283 283 280 280 280 280 281 281 282 282 282 281 282 282 281 280 280 280 280 280 281 281 280 279
294 284 277 275 279 283 279 282 284 284 274 274 277 278 283 283 284 282 281 280 279 279 280 280 280 280 280 281 280 280 281 281 281 281 280 279 279 279 279 279 279 280 280 279
287 276 281 281 282 281 280 280 280 278 279 273 278 277 280 282 281 281 280 279 278 278 278 278 279 279 279 279 279 280 280 281 281 280 280 280 280 280 279 279 279 279 279 279
284 273 276 268 279 279 278 279 279 279 279 278 279 278 284 281 278 277 277 278 278 278 279 280 279 279 279 279 279 280 280 280 280 278 279 280 280 281 280 280 280 280 279 279
278 274 265 264 275 272 267 274 277 278 278 278 274 279 276 277 277 276 277 277 277 278 278 278 279 279 279 279 280 279 279 279 279 279 279 279 280 279 279 279 279 279 278 278
277 271 265 260 261 257 273 276 277 277 278 276 274 272 276 276 277 277 278 276 277 278 279 279 279 279 279 279 278 278 278 278 278 277 276 277 277 277 277 277 276 276 276 276
280 277 264 263 256 267 273 275 273 271 270 271 272 272 276 277 275 273 278 279 279 279 279 279 279 279 277 277 277 276 276 276 275 274 274 274 273 271 271 270 271 271 271 271
276 281 275 255 259 257 269 272 276 275 266 271 270 271 275 275 268 271 277 279 280 279 279 278 276 277 276 275 274 273 272 272 271 271 271 270 269 267 267 267 266 267 266 267
263 262 270 269 261 264 272 275 276 264 269 271 273 276 276 273 274 277 279 279 278 278 276 275 274 274 274 273 272 270 269 268 269 268 268 267 266 264 264 263 263 263 263 263
266 263 260 260 264 262 274 274 270 273 276 275 277 277 276 277 278 278 278 277 276 275 274 274 271 271 271 271 269 267 266 268 267 266 264 263 262 262 262 260 261 261 260 260
266 269 265 267 267 275 275 276 279 279 275 278 277 278 278 277 277 277 276 276 275 272 273 271 268 268 268 268 266 264 265 265 264 261 260 260 260 261 261 260 260 259 260 259
271 274 270 269 273 275 277 278 279 279 278 279 279 278 277 276 277 276 274 274 272 271 270 268 266 265 265 264 265 261 263 263 260 258 259 260 260 259 260 260 260 259 259 259
273 273 271 269 275 276 276 277 278 278 279 278 278 278 278 276 273 273 271 269 270 269 268 266 264 264 263 263 262 259 261 260 259 259 260 259 259 258 259 259 259 260 261 262
275 275 272 269 277 275 276 278 279 278 278 278 277 273 273 274 272 270 269 268 267 266 265 264 263 262 261 260 259 259 258 258 258 258 259 259 259 258 259 258 259 264 266 268

GFSCGP_sfc_thetae_048.txt.gz
Theta_e
293 288 286 288 289 289 287 285 285 288 293 289 289 289 289 291 290 289 289 288 289 289 291 292 292 291 291 292 293 294 294 295 298 298 301 304 305 306 303 304 306 311 313 314
289 286 292 292 291 289 288 286 285 289 292 289 288 287 288 289 288 289 288 287 288 288 289 290 290 290 290 290 291 292 293 293 294 296 296 298 298 298 297 298 298 300 304 307
287 291 294 292 290 290 288 287 286 288 288 287 284 284 285 288 289 289 288 289 289 288 288 288 288 288 289 288 289 290 291 292 292 294 294 295 294 294 294 294 294 295 298 301
289 293 292 290 290 291 286 290 290 287 284 281 285 279 283 286 286 287 287 286 286 287 288 288 288 287 288 287 288 289 290 291 291 292 291 290 289 289 289 291 291 293 294 294
290 289 289 289 290 291 288 290 288 286 283 281 282 279 282 286 284 284 285 286 286 287 287 287 287 288 288 287 286 286 288 289 290 290 290 289 288 289 288 289 288 289 291 291
290 291 290 290 290 290 290 287 287 284 282 277 282 281 281 283 286 285 286 285 286 285 285 286 287 287 286 286 286 286 286 286 287 288 288 287 286 286 285 285 285 286 287 288
287 288 289 291 287 288 287 285 279 276 276 277 283 280 283 286 287 287 284 283 284 284 284 284 284 285 285 284 285 286 285 284 285 286 286 285 285 285 284 284 283 283 283 285
284 283 288 290 289 288 285 285 278 270 274 277 282 279 282 285 286 286 285 284 284 283 284 284 285 284 285 285 285 284 284 284 283 284 285 285 286 285 285 283 283 283 283 283
284 285 288 289 289 291 286 283 286 280 274 273 280 281 285 284 282 283 282 282 282 282 283 284 285 284 285 286 285 285 284 283 283 283 285 285 286 286 285 285 283 283 283 284
289 283 288 287 289 287 286 288 281 279 269 270 277 279 280 280 280 282 281 281 281 283 283 283 283 284 284 284 284 284 284 283 283 282 282 283 284 285 285 285 284 284 284 283
290 287 284 287 285 285 284 282 283 283 277 272 270 276 284 285 283 282 282 283 282 282 283 284 283 284 284 283 282 283 284 283 283 283 282 281 282 282 283 282 282 282 282 282
290 285 276 284 287 288 286 284 284 277 275 280 278 279 286 287 285 285 285 285 283 282 281 281 282 282 282 282 281 281 281 281 282 282 282 281 281 281 280 280 281 281 281 282
291 282 271 277 282 285 283 284 285 284 281 274 272 275 284 285 284 285 284 283 283 280 279 280 279 279 279 280 280 280 280 280 281 281 280 280 280 279 279 280 280 281 280 280
294 283 280 279 278 282 280 282 284 282 272 278 277 279 280 282 283 283 283 282 281 280 279 278 278 278 279 279 279 279 279 280 280 279 279 279 278 279 279 279 279 279 279 279
288 279 279 281 282 281 281 280 281 279 279 274 277 278 282 283 281 281 282 278 277 277 277 277 279 279 279 279 278 279 279 279 279 278 278 278 279 279 279 278 279 279 279 279
284 273 277 271 280 281 278 280 280 280 280 279 279 278 283 279 278 277 278 277 277 278 278 279 279 279 279 279 278 279 278 278 278 277 278 279 279 279 278 278 278 278 278 278
281 276 270 268 274 272 268 273 277 277 278 277 273 278 277 276 277 276 276 277 277 277 278 278 278 279 279 278 279 277 277 277 277 277 276 276 276 276 276 276 275 274 273 274
278 274 272 264 263 259 274 275 276 276 278 276 274 271 273 275 276 277 276 277 277 278 278 278 278 277 279 278 277 277 276 276 275 274 272 273 273 271 272 271 270 270 270 270
281 277 270 265 259 267 274 274 273 272 271 272 273 271 275 276 275 273 277 278 278 278 279 278 279 277 276 276 275 274 274 274 273 272 272 271 270 268 268 266 267 267 266 266
277 280 276 260 260 259 269 272 274 274 266 269 269 270 275 275 267 272 276 279 279 279 279 277 276 276 275 274 273 272 271 270 269 270 269 268 267 265 264 264 263 264 263 264
263 266 272 268 267 265 272 274 275 265 268 269 272 275 276 273 276 277 278 278 279 278 276 275 274 274 273 272 271 269 268 267 268 267 266 266 265 263 262 262 262 261 261 262
267 265 265 267 267 264 274 274 270 273 275 275 277 277 276 277 277 277 278 278 277 275 274 273 271 271 271 270 268 266 265 267 266 265 264 262 261 261 262 260 260 260 260 259
266 269 266 268 269 275 274 275 279 279 275 278 278 278 278 277 277 277 277 276 275 273 273 270 267 268 268 267 265 262 264 264 264 259 258 258 259 260 260 259 259 258 259 259
271 273 269 269 273 275 277 279 280 279 279 279 279 278 277 276 277 277 275 274 272 271 269 267 265 265 264 264 264 261 262 263 255 254 257 259 260 259 259 260 260 258 258 258
273 273 270 269 274 276 278 279 280 279 279 278 277 278 278 276 276 276 273 271 270 269 268 266 264 264 262 262 260 258 260 257 256 257 259 259 259 259 259 260 259 259 261 262
274 273 271 269 277 277 278 279 279 278 278 277 277 274 275 276 275 272 270 269 268 266 264 263 263 261 259 257 257 256 255 253 254 257 258 259 259 259 259 259 259 264 266 268

GFSCGP_sfc_thetae_051.txt.gz
Theta_e
291 287 285 288 289 288 286 284 283 286 291 289 289 288 287 289 288 286 286 287 287 287 289 290 290 289 290 290 291 292 292 293 295 296 298 299 298 299 298 298 298 301 305 308
288 285 290 290 289 288 286 284 284 288 290 288 288 286 286 287 287 287 286 286 286 287 287 288 288 288 288 288 289 290 291 291 292 294 293 295 294 295 295 295 295 295 296 297
287 291 293 291 288 287 286 285 285 286 287 286 284 284 285 286 287 288 287 287 287 286 286 286 286 286 286 286 287 289 289 290 291 292 292 292 291 290 290 290 290 291 292 292
288 292 291 288 288 289 285 290 289 287 283 280 284 279 282 284 284 285 285 284 284 285 286 286 286 285 285 285 286 288 288 289 289 290 290 288 287 285 286 287 287 288 289 288
289 289 288 288 289 291 288 289 287 285 282 280 281 279 280 283 282 282 283 284 284 285 285 284 284 285 285 284 283 284 286 286 287 287 287 286 284 285 284 284 284 284 286 286
290 290 289 290 289 290 290 286 286 283 281 277 281 282 281 281 283 283 284 284 284 284 283 284 285 284 284 284 283 282 284 285 285 285 285 284 283 282 282 282 282 282 283 284
286 287 288 289 287 287 286 285 279 276 275 277 281 279 282 284 285 286 284 283 283 283 282 282 282 282 283 283 283 283 282 282 283 284 284 283 282 282 281 281 281 281 281 282
283 283 288 289 288 286 284 285 279 271 273 276 281 279 282 283 285 286 284 283 283 283 283 283 283 283 282 283 282 282 282 282 282 283 283 283 284 283 283 283 282 282 281 282
283 284 287 288 289 290 284 282 286 278 276 272 279 281 282 282 281 281 281 281 281 281 282 283 283 283 283 282 282 283 282 283 283 284 284 283 284 284 283 283 283 282 283 284
289 283 287 287 288 286 286 288 281 279 270 269 276 278 280 279 279 280 280 281 281 281 282 282 282 282 282 283 283 284 284 284 283 282 282 281 282 283 282 281 280 280 281 281
290 288 284 287 285 284 284 282 282 282 277 271 269 276 283 283 282 281 282 283 282 281 281 281 282 283 284 283 282 282 282 282 282 282 282 281 282 281 281 281 280 280 281 280
291 285 276 283 285 286 285 284 284 281 277 278 277 279 284 286 285 284 284 284 282 281 281 281 282 282 281 281 280 280 281 281 281 281 281 280 280 280 279 279 280 280 280 281
291 283 275 282 282 284 283 284 283 283 280 280 277 278 284 284 283 284 283 283 282 281 280 280 280 280 280 280 280 279 279 279 280 279 279 279 279 278 278 279 279 279 279 279
294 285 281 280 280 282 281 284 284 283 278 278 280 282 280 282 282 282 283 283 281 280 279 278 278 278 278 279 278 278 278 278 279 279 278 278 278 278 278 279 278 278 278 278
289 283 280 281 282 282 282 281 283 280 281 278 280 280 282 283 283 283 283 281 280 278 277 277 277 277 277 278 278 278 277 278 278 277 277 277 278 278 277 277 277 277 277 277
284 278 279 279 280 281 279 281 281 282 282 279 280 280 282 283 282 280 280 279 278 278 277 278 279 279 279 279 278 279 277 278 277 276 276 277 276 276 276 275 274 274 273 273
281 278 276 278 274 274 272 277 279 280 280 281 277 282 278 276 279 280 279 277 277 277 278 278 278 278 279 278 279 276 276 276 276 275 274 274 274 272 272 272 271 270 270 270
280 279 277 270 269 268 277 273 275 277 279 276 275 272 275 277 277 277 277 277 277 277 278 278 278 277 278 277 276 276 275 274 274 272 270 271 271 269 269 269 268 268 268 267
281 278 270 271 265 270 276 274 272 271 271 274 276 273 275 275 274 273 277 277 277 278 279 278 278 277 276 275 274 273 272 272 271 270 270 269 268 266 266 264 265 265 265 264
278 280 279 264 267 263 272 271 274 275 267 269 272 273 274 274 269 272 276 278 278 279 278 278 277 276 275 272 272 271 270 269 268 269 268 268 267 262 263 263 263 263 262 263
269 272 274 269 271 268 273 274 276 266 270 270 272 274 275 273 275 277 277 277 278 278 277 276 275 274 272 272 270 269 268 267 268 267 266 265 264 262 262 261 262 261 260 261
268 268 266 269 269 266 274 274 271 275 275 274 275 276 276 277 277 277 277 277 278 275 275 274 271 271 270 270 268 267 266 267 265 265 264 261 260 260 261 259 259 259 259 258
268 271 268 272 270 274 275 276 279 278 276 277 278 278 278 278 277 277 276 277 277 274 273 271 269 268 268 267 266 263 265 264 264 258 256 256 258 259 260 258 258 258 259 258
270 273 268 269 272 274 277 278 279 279 279 279 279 279 278 277 277 276 276 276 274 272 270 267 266 265 265 264 265 262 262 263 254 251 255 257 258 259 259 260 260 258 258 258
273 272 269 269 274 275 277 278 280 280 279 278 277 277 277 276 276 276 275 273 272 270 269 267 265 265 263 263 261 257 259 256 254 254 257 258 258 257 259 260 259 260 261 262
273 271 270 268 276 277 278 279 280 279 278 278 277 275 276 276 276 275 273 272 270 268 266 264 263 262 261 259 258 256 253 252 251 255 257 258 258 258 259 258 258 264 266 268

GFSCGP_sfc_thetae_054.txt.gz
Theta_e
290 286 286 289 288 287 286 284 284 285 289 287 288 287 286 287 286 284 284 285 286 286 288 288 288 288 289 289 290 290 291 292 295 295 298 296 294 295 294 294 294 294 295 298
287 284 290 289 289 287 285 283 283 286 289 288 287 286 285 286 285 285 285 284 285 285 286 287 287 287 287 287 288 289 290 290 292 293 292 291 291 290 290 290 289 290 290 291
286 289 292 290 287 286 284 283 283 285 286 285 283 283 283 285 285 286 285 285 285 284 284 284 284 284 284 284 285 287 288 288 289 290 290 289 288 286 285 285 286 286 286 287
287 291 291 287 287 288 283 288 288 286 284 281 284 278 281 283 282 283 283 283 283 283 284 284 283 283 282 282 284 285 286 286 286 287 286 284 283 281 282 283 284 285 285 285
289 288 287 287 288 290 287 289 287 284 282 280 280 278 280 282 280 281 282 283 283 283 283 282 282 283 282 282 281 283 284 284 284 284 284 283 282 282 281 282 282 283 284 284
290 290 290 290 288 290 289 286 285 282 281 276 281 281 280 280 282 282 283 283 283 283 282 282 282 282 281 281 281 281 283 283 283 283 283 282 281 281 281 281 281 281 282 283
286 287 287 289 286 286 286 284 279 276 275 277 280 279 282 284 284 285 283 282 282 282 281 281 280 280 281 280 280 281 281 281 282 282 282 281 281 280 280 280 280 280 281 281
282 282 287 289 287 285 284 284 279 271 272 276 280 278 283 282 283 286 285 284 282 281 282 281 281 281 281 281 280 281 281 281 281 282 282 282 283 282 282 281 281 281 281 283
282 284 286 287 288 288 283 281 284 278 275 272 279 281 281 281 280 282 282 281 281 281 281 281 281 281 280 281 280 281 281 281 281 281 281 281 282 282 281 281 281 281 282 283
288 283 286 286 288 286 285 287 281 278 270 267 277 278 279 279 279 280 280 281 281 281 281 281 281 281 281 281 281 281 281 281 281 281 281 281 280 280 280 280 279 280 279 280
289 287 283 286 284 283 283 282 282 282 277 272 269 276 282 283 282 281 281 282 282 281 281 281 281 281 281 281 280 280 280 281 281 281 281 280 280 280 280 279 279 279 280 280
291 284 277 282 283 285 284 283 284 281 276 277 276 280 285 285 284 284 283 283 282 282 281 280 281 280 280 280 279 280 280 280 280 280 280 279 279 279 279 278 279 279 279 279
290 284 274 279 282 283 283 284 284 282 280 279 275 278 283 284 283 284 284 284 282 281 280 280 280 280 279 279 279 279 278 279 279 279 279 279 278 278 278 278 278 278 278 277
294 285 281 281 281 283 281 283 283 283 278 280 281 283 281 283 283 282 283 283 282 281 280 280 279 279 279 279 278 278 278 278 278 278 278 278 277 277 277 277 277 277 276 276
291 285 281 280 281 282 281 281 282 281 284 280 284 282 284 284 284 284 284 282 281 279 278 279 279 277 277 277 277 277 277 277 277 277 277 276 276 276 275 275 275 274 273 273
285 283 278 275 280 280 279 281 281 284 284 283 280 281 283 285 283 281 282 282 281 280 279 279 279 278 278 278 278 278 276 277 277 275 275 275 275 274 273 273 272 271 271 271
283 279 279 279 276 276 277 281 282 281 281 282 279 283 279 279 281 281 280 280 280 280 279 278 278 278 279 278 278 276 276 276 275 274 273 273 272 270 270 270 270 269 268 268
280 278 277 274 271 271 279 274 278 282 280 280 276 273 277 278 279 277 278 279 279 278 278 278 278 277 278 277 276 276 275 274 273 271 269 270 269 268 268 268 267 266 266 266
280 280 272 272 269 274 277 273 273 274 274 275 277 276 275 275 274 274 277 276 278 277 278 278 278 277 276 275 274 273 272 272 271 270 270 268 267 265 266 263 264 265 264 264
280 280 281 267 269 269 274 272 275 276 268 271 276 274 273 274 270 273 276 278 278 278 278 278 278 277 275 273 272 271 270 269 268 269 268 267 266 261 261 263 262 263 262 263
273 274 277 275 272 272 273 274 275 269 273 269 272 275 274 273 275 277 277 277 278 278 278 277 276 276 273 271 270 269 268 267 268 266 266 265 264 261 260 260 261 260 260 261
272 272 266 270 271 270 274 274 273 276 275 273 275 275 275 277 277 277 277 277 277 277 276 276 273 272 270 270 268 267 266 267 265 264 263 260 257 258 260 255 258 258 258 258
269 273 271 274 273 274 276 277 279 279 276 277 277 277 278 277 277 277 276 276 276 275 274 272 271 269 268 267 266 265 265 265 264 258 255 254 256 258 258 255 257 258 258 258
270 273 270 271 272 275 277 278 279 279 278 279 279 278 277 277 277 276 275 275 275 273 272 269 268 267 266 264 266 263 263 263 253 251 254 256 255 256 257 259 259 258 257 258
273 272 269 269 273 275 277 277 278 278 278 277 276 277 277 277 275 276 275 274 273 272 270 269 268 267 265 264 262 259 260 257 255 253 256 256 256 255 257 259 259 260 261 262
273 271 270 268 275 275 276 278 279 278 278 278 277 275 275 276 276 275 274 273 272 270 268 267 265 264 262 261 260 256 253 253 251 255 257 256 257 257 258 258 258 263 266 268

GFSCGP_sfc_thetae_057.txt.gz
Theta_e
291 288 287 288 289 288 287 285 285 287 290 289 289 289 287 287 286 285 285 285 286 286 288 288 288 288 289 290 291 292 294 295 297 297 297 294 291 291 289 289 290 290 291 294
287 284 291 290 289 288 286 284 284 287 289 289 288 287 286 286 285 285 285 285 285 285 286 286 286 286 286 287 288 289 290 291 293 293 292 292 289 287 288 288 288 288 289 289
286 289 290 290 287 286 284 284 284 286 287 287 285 285 283 284 285 285 286 286 285 285 284 284 284 284 284 284 285 286 287 288 288 290 289 288 287 287 286 286 286 287 288 288
287 290 290 287 287 287 283 288 287 286 285 282 285 280 283 283 283 284 284 284 284 284 284 283 283 283 283 283 284 285 285 286 286 287 286 285 283 282 283 284 286 286 287 286
289 288 287 287 288 289 287 288 287 286 284 282 282 280 282 282 281 282 283 283 283 284 283 282 282 283 283 283 283 284 285 285 285 285 285 284 283 284 284 284 285 285 286 286
290 290 290 290 289 290 288 287 285 283 281 277 282 282 282 280 283 283 283 283 284 283 283 282 283 282 282 282 283 283 284 284 284 284 284 284 283 283 284 284 284 284 284 285
286 287 288 289 286 287 286 284 279 277 276 278 280 279 283 285 284 285 284 284 284 283 282 282 281 281 281 281 282 283 283 283 284 284 284 284 283 283 283 283 283 283 283 283
283 281 287 288 287 285 284 284 279 273 274 277 280 278 284 284 284 286 286 285 284 282 282 281 281 281 281 281 281 282 283 282 283 284 284 284 284 284 284 284 283 283 283 283
282 283 286 286 287 288 284 282 284 277 276 274 280 282 284 283 282 284 284 283 282 282 282 282 282 281 281 281 281 282 282 282 283 283 283 283 283 283 283 283 283 283 283 283
287 283 285 285 287 286 285 287 281 279 271 269 277 279 282 280 281 281 282 282 282 283 282 282 282 281 281 281 282 282 282 282 282 282 282 282 282 282 282 282 282 282 282 281
288 287 283 285 283 283 283 283 282 282 278 274 271 277 283 284 284 281 283 284 283 282 282 282 282 282 282 282 282 282 282 281 281 282 282 282 282 281 281 281 281 281 281 280
290 286 279 282 284 285 284 284 283 279 276 276 276 279 284 285 284 284 283 284 284 284 283 282 282 281 281 281 281 281 281 281 282 282 282 281 281 281 281 280 280 280 279 279
290 285 279 279 282 283 283 283 284 282 280 275 276 279 284 283 283 283 283 284 284 282 281 281 281 281 281 281 280 280 280 281 281 281 281 280 280 280 279 279 279 278 277 277
295 286 284 283 282 283 281 283 283 284 275 281 281 284 282 283 283 282 283 283 282 282 282 281 281 281 281 280 280 279 279 280 280 280 279 279 279 278 277 277 277 276 275 274
291 285 285 281 282 283 282 282 282 282 285 283 285 284 284 285 285 285 285 283 281 281 281 281 281 281 281 280 279 279 278 278 278 278 278 277 277 276 276 274 274 273 273 273
287 285 283 280 281 282 280 282 282 284 285 284 283 282 286 287 284 284 284 283 282 282 282 282 282 282 281 280 278 279 277 278 278 277 276 276 275 274 273 272 272 271 271 270
285 282 282 283 278 280 279 281 281 281 282 284 280 286 283 282 283 284 284 283 284 284 282 280 281 281 281 280 280 278 277 277 276 275 274 274 272 271 270 270 270 269 268 268
283 282 282 270 275 272 278 275 279 283 284 281 278 277 282 283 282 282 283 283 282 282 281 280 280 280 280 279 278 277 276 275 274 272 271 271 270 268 268 268 267 267 267 266
281 282 275 273 274 276 276 274 277 278 277 281 283 280 277 277 277 278 279 280 281 280 280 279 279 278 277 277 277 275 274 274 272 271 270 269 267 266 266 264 265 265 265 264
281 282 282 272 272 271 277 273 275 278 272 275 282 282 276 276 272 277 278 278 279 278 278 278 278 277 277 275 275 274 272 270 269 270 269 268 267 263 262 263 263 264 262 263
275 275 278 276 274 275 276 275 276 271 275 274 274 275 275 274 277 277 277 277 278 278 278 278 277 277 276 273 272 271 270 269 269 268 267 266 264 262 261 261 262 261 260 262
275 274 273 273 273 271 274 274 275 278 275 274 274 276 276 276 277 277 277 277 277 277 277 277 275 274 272 272 271 269 268 268 266 265 265 262 259 260 261 255 258 258 258 258
273 277 274 276 276 275 277 278 279 279 277 276 276 277 277 277 276 277 276 276 276 275 276 274 273 271 269 269 269 268 267 266 264 261 257 256 257 259 259 256 258 258 258 258
272 273 272 274 274 275 277 278 279 279 278 278 278 277 277 276 276 276 275 275 274 274 274 271 270 269 267 266 267 266 265 264 258 256 257 258 257 258 258 260 260 258 258 258
274 274 270 270 273 275 277 278 279 279 278 277 276 277 277 276 274 276 275 274 274 274 271 271 271 270 268 265 264 262 262 260 258 257 258 258 258 256 258 259 259 260 261 262
273 272 271 269 276 276 277 279 279 278 278 277 277 274 275 276 276 275 274 275 274 272 270 269 269 268 265 264 262 259 258 258 257 258 258 258 258 258 259 258 258 263 266 268

GFSCGP_sfc_thetae_060.txt.gz
Theta_e
299 297 294 297 299 297 296 294 294 295 295 295 297 297 294 293 292 292 292 293 292 292 292 293 294 296 297 296 296 296 297 299 301 299 296 293 292 294 293 294 294 294 293 294
295 293 299 297 296 295 294 293 293 294 294 294 295 294 296 292 292 293 292 292 292 292 292 292 293 294 295 295 296 296 296 297 300 300 298 295 293 292 292 292 292 292 293 293
295 296 297 294 292 292 292 292 293 293 293 294 293 293 293 289 290 290 291 292 291 292 291 291 291 292 294 294 295 295 295 296 295 294 293 292 292 292 291 290 290 291 292 292
295 296 293 292 292 293 291 294 293 291 291 289 292 289 291 290 288 288 289 290 291 290 289 289 289 290 290 290 291 292 292 292 292 294 294 293 290 288 289 290 290 290 291 290
293 292 292 292 293 294 294 293 292 291 291 290 289 288 293 288 286 287 289 290 291 290 289 288 288 288 288 290 290 291 290 290 291 292 292 290 289 289 290 290 289 290 289 290
295 295 295 295 293 295 293 292 291 290 289 284 290 288 291 288 290 290 290 290 290 289 288 287 287 287 287 289 289 290 289 289 290 290 291 290 289 289 289 289 288 288 288 288
293 292 294 294 291 292 292 291 285 283 282 283 286 285 291 294 291 292 290 290 290 289 287 286 286 286 286 287 288 288 288 287 289 289 289 289 289 289 288 288 288 288 287 287
289 287 291 293 295 291 290 292 287 281 281 284 284 283 290 289 291 291 293 292 291 289 288 287 286 286 286 286 287 288 288 287 288 289 288 289 289 289 288 288 288 287 287 287
288 289 292 291 292 295 289 287 292 282 279 283 288 289 291 287 288 289 290 290 289 288 288 287 286 286 286 286 287 288 287 288 288 288 288 288 289 288 288 288 288 287 287 285
293 288 290 289 292 291 291 293 285 287 281 280 285 286 289 287 288 289 288 289 290 289 288 287 286 286 286 287 287 288 288 287 288 288 288 288 288 287 287 287 286 286 285 284
294 291 287 289 288 289 287 287 288 289 288 284 282 286 293 294 293 289 290 291 291 289 288 287 287 287 287 287 287 287 287 287 287 287 287 287 286 286 286 286 285 284 284 283
296 292 285 287 289 290 292 290 290 287 281 284 283 287 289 291 293 293 292 291 292 290 289 288 288 287 286 286 286 286 287 286 287 287 287 286 286 286 285 285 284 283 282 281
294 289 286 286 288 288 287 289 291 291 289 285 284 287 289 290 290 292 293 292 291 290 289 289 288 286 286 286 286 286 286 286 287 287 286 285 285 285 284 283 282 281 280 279
297 291 289 287 291 292 286 288 288 289 286 286 286 289 287 289 290 291 291 292 291 290 289 288 287 287 286 286 286 286 286 287 286 286 285 285 284 283 282 281 279 278 278 277
294 286 290 292 290 290 290 289 288 287 290 286 289 288 292 291 291 293 293 292 290 289 288 288 288 287 286 285 285 285 285 285 285 284 284 284 282 281 279 278 277 276 276 275
291 286 290 287 289 286 285 288 288 288 290 290 291 290 294 295 294 292 290 289 288 288 288 288 287 287 285 285 285 284 284 284 284 283 283 281 280 278 276 275 274 274 274 273
285 286 284 284 286 283 280 286 287 288 290 290 285 291 291 289 289 291 292 289 288 288 288 287 287 287 286 285 285 284 284 284 282 282 280 278 277 275 274 273 273 272 272 272
285 284 285 278 279 275 285 282 289 288 288 289 287 288 290 291 291 290 291 290 288 288 288 288 287 287 287 287 286 285 283 281 280 279 277 275 274 273 272 271 271 271 271 270
285 285 277 277 277 281 280 278 282 283 285 287 288 287 286 282 285 286 286 288 290 289 289 287 288 288 287 286 284 281 280 280 278 276 275 274 273 271 271 269 269 269 269 269
281 284 285 277 277 276 284 278 281 285 280 284 288 289 282 283 284 289 284 284 285 286 287 286 285 284 283 282 281 280 278 277 276 276 275 273 271 269 268 268 267 269 267 267
278 279 279 278 278 279 285 279 279 278 283 283 286 285 281 283 287 284 283 282 285 284 284 284 282 281 282 279 279 278 277 276 277 275 272 270 269 267 267 266 267 266 265 266
279 278 277 280 278 275 279 277 280 285 279 282 280 282 282 282 281 281 283 282 282 281 281 281 280 279 279 279 279 277 276 275 273 272 270 268 266 267 267 264 265 264 264 264
277 282 281 282 283 279 281 282 283 283 283 280 282 281 282 281 281 281 281 281 280 281 280 280 280 278 277 277 278 276 275 272 270 269 266 265 264 265 264 264 265 265 265 264
276 277 279 280 278 278 280 281 281 282 282 282 282 282 282 281 281 280 280 279 279 279 279 279 277 277 274 274 274 276 272 271 266 266 265 264 263 265 264 266 266 265 265 265
279 277 275 275 276 278 280 281 282 282 281 280 280 280 281 282 280 280 280 280 279 279 278 278 277 277 276 273 272 271 270 267 266 265 265 266 265 264 265 265 266 265 266 265
277 276 275 277 279 281 281 284 283 281 281 281 280 278 279 280 280 280 279 280 279 278 277 276 276 276 274 272 270 268 267 266 266 265 265 266 265 265 264 264 265 267 267 269

GFSCGP_sfc_thetae_063.txt.gz
Theta_e
303 298 296 299 300 301 299 298 297 299 300 297 298 299 301 298 297 298 298 298 298 297 296 298 300 301 298 299 298 300 301 300 299 297 296 296 295 296 296 296 297 297 297 298
297 294 301 303 301 299 298 296 296 299 297 296 297 297 301 300 297 298 298 297 297 296 296 296 299 299 297 297 297 297 298 299 298 298 297 296 295 295 294 294 294 294 295 294
297 300 301 299 297 296 296 295 296 295 296 296 296 294 297 299 297 296 296 298 297 296 295 295 297 299 298 297 297 298 298 299 299 297 296 295 295 294 292 292 292 293 293 293
297 302 297 296 295 296 293 299 296 295 293 290 296 289 299 298 292 292 293 294 295 295 295 295 295 296 296 295 296 297 297 297 297 298 297 297 293 290 291 291 291 291 292 291
295 294 294 294 295 297 295 298 295 295 293 293 294 289 295 295 291 292 293 294 295 294 294 293 294 293 293 295 295 295 295 295 295 296 295 293 291 292 291 291 291 290 291 291
296 298 297 297 296 297 297 294 293 293 293 286 292 291 293 292 293 295 294 294 294 293 293 292 291 291 291 292 293 293 292 292 293 293 293 292 291 291 290 290 290 290 289 289
294 294 297 297 293 295 296 292 287 284 283 284 291 291 294 298 296 297 293 293 294 293 292 290 288 289 289 290 291 291 290 290 291 292 292 292 291 291 290 290 289 288 288 287
290 289 295 296 297 294 292 294 288 282 284 287 286 285 291 295 297 295 296 295 294 292 291 289 289 289 289 289 289 289 290 289 290 290 290 291 290 290 290 289 289 288 287 287
292 292 296 297 299 299 292 290 296 286 282 285 288 291 295 291 291 292 294 294 293 291 290 289 289 289 288 289 289 289 289 290 289 289 290 289 290 289 289 289 289 288 287 286
297 291 292 292 294 295 294 296 286 288 282 281 288 289 290 288 289 291 292 293 293 292 290 290 289 289 288 289 289 290 290 289 289 289 289 289 289 289 289 288 287 286 286 285
298 293 288 290 289 290 289 289 291 291 290 286 284 288 297 296 294 291 292 293 294 292 290 290 289 289 288 289 289 289 289 289 289 289 289 289 288 288 288 287 286 286 285 284
298 294 288 287 293 295 295 292 292 287 284 287 287 289 293 297 298 296 294 294 295 294 292 290 289 289 288 288 288 288 289 288 289 289 289 288 288 287 287 286 285 285 283 282
297 291 285 288 289 290 288 291 292 292 291 287 285 288 292 293 295 297 295 295 295 294 292 291 290 288 288 288 288 288 288 288 288 288 288 287 287 286 286 285 283 283 281 281
298 292 290 289 292 292 287 289 291 290 286 287 288 291 289 292 293 295 296 296 295 294 292 291 289 289 288 288 287 287 287 288 288 288 287 286 286 286 285 283 282 280 280 279
294 285 290 292 295 293 292 290 290 288 290 288 291 292 295 293 294 295 296 296 295 293 293 291 290 289 289 288 287 287 287 288 288 287 286 286 286 285 283 281 279 278 278 277
292 285 288 286 292 292 289 291 292 290 290 291 292 293 300 300 297 296 296 295 293 293 293 292 290 289 288 287 287 286 287 287 286 286 285 285 283 281 280 278 277 276 275 275
285 285 285 283 289 288 284 287 290 292 292 293 288 294 291 293 292 294 295 294 292 293 292 291 290 290 289 287 287 286 286 286 285 285 284 282 281 278 277 276 275 275 274 274
285 285 286 284 283 276 289 289 290 292 293 294 294 291 293 292 294 295 296 294 292 291 290 290 290 291 289 289 287 286 285 284 283 283 281 280 278 276 275 274 274 273 273 272
288 287 284 280 280 285 288 285 286 288 288 291 291 289 289 285 287 289 290 292 293 292 292 292 291 291 290 288 287 285 283 282 282 280 279 277 276 275 274 273 272 272 272 271
282 283 284 279 278 278 285 283 286 290 283 289 291 290 285 285 284 291 287 288 288 291 291 290 290 290 288 287 286 282 281 281 280 279 278 277 275 273 271 272 271 272 270 270
278 280 280 282 281 284 288 282 283 280 285 287 290 290 285 285 289 286 286 285 287 288 287 288 288 285 286 283 282 281 280 279 280 279 276 275 273 271 271 270 270 269 268 269
281 279 279 282 280 278 282 279 283 287 284 286 288 288 286 285 282 282 283 283 282 282 283 284 282 281 281 281 281 280 279 280 277 276 274 272 270 271 269 267 267 267 267 266
279 285 284 284 284 281 283 283 284 285 286 283 284 285 287 283 282 282 282 282 282 282 282 281 281 279 279 280 281 279 278 276 274 272 270 268 268 269 268 266 267 267 267 267
280 280 282 282 281 280 281 282 282 283 283 284 284 284 284 283 282 281 281 281 280 280 280 280 279 278 276 277 278 279 275 274 271 269 268 267 266 267 266 267 268 268 268 268
281 280 280 279 278 279 280 283 284 283 282 281 281 282 283 283 281 281 281 280 280 280 279 279 279 278 277 276 276 274 273 270 270 269 268 268 268 267 267 267 269 268 269 269
280 279 278 280 282 283 283 284 284 282 281 282 281 279 280 282 281 281 280 280 280 279 278 277 277 277 277 275 274 272 271 270 270 269 268 269 269 267 268 268 267 270 271 271

GFSCGP_sfc_thetae_069.txt.gz
Theta_e
296 290 288 292 291 292 291 289 288 292 295 292 291 291 293 294 292 291 292 292 292 292 293 295 295 295 295 297 298 298 298 298 298 297 296 294 291 291 292 292 293 291 292 293
292 288 295 296 295 293 292 289 289 292 294 292 291 290 293 293 293 294 294 293 292 290 291 294 293 294 294 294 297 299 298 298 298 297 295 293 291 290 290 291 291 291 290 290
290 294 298 295 293 292 291 290 290 290 291 290 288 288 290 293 294 294 296 294 293 290 290 292 292 292 292 294 297 298 297 296 295 293 292 291 290 289 288 288 287 287 288 288
292 297 296 292 292 294 289 294 293 292 288 284 288 283 287 291 291 292 294 292 292 290 291 293 292 291 292 296 298 298 296 294 294 293 292 290 288 286 285 285 285 286 286 286
291 292 292 292 292 294 290 293 292 290 287 284 285 283 284 291 291 291 293 290 290 291 291 292 292 292 292 295 296 296 295 294 294 293 290 288 285 285 285 284 284 284 284 285
291 293 293 293 292 294 294 291 290 288 286 280 285 284 288 290 294 297 293 290 290 289 290 292 291 290 291 293 293 293 292 291 291 290 288 286 285 284 283 283 283 283 283 283
289 290 292 294 290 292 291 287 280 278 278 279 286 284 289 292 293 294 291 291 289 290 290 289 288 288 289 291 290 291 290 288 288 287 286 286 285 285 284 283 283 282 282 281
284 283 290 292 291 288 287 288 281 274 277 279 282 281 287 293 290 293 293 292 290 289 289 288 287 287 288 289 289 289 288 286 287 287 286 286 286 285 285 284 283 282 282 281
285 285 291 292 292 294 287 285 291 285 273 276 282 285 290 290 288 288 289 290 288 288 287 286 287 286 286 286 286 287 286 286 286 286 286 286 285 285 284 283 283 282 281 282
292 286 289 288 292 291 289 291 284 287 276 277 281 281 286 287 287 287 288 289 289 288 287 286 286 285 286 285 285 285 286 286 285 285 286 285 284 284 283 283 281 281 281 281
294 292 285 287 286 287 286 286 288 289 282 276 275 282 289 292 291 289 289 290 289 288 286 285 285 286 286 285 285 285 285 284 284 285 284 284 284 283 283 282 281 280 280 279
295 292 284 284 289 291 292 290 290 285 279 282 280 285 288 289 292 292 291 291 290 289 286 285 285 285 285 284 284 285 285 285 285 285 284 284 283 282 281 280 279 279 278 278
295 289 283 285 287 289 287 289 291 289 285 283 279 285 288 290 289 289 289 290 290 288 286 285 284 284 284 284 284 284 284 284 284 284 283 282 282 281 280 279 279 278 277 276
298 290 287 284 286 286 282 286 290 290 285 282 286 287 287 286 287 287 288 289 289 288 286 284 284 284 284 284 284 284 284 284 284 283 283 282 281 281 280 279 278 277 277 276
296 287 289 289 291 291 286 284 287 287 288 285 289 288 292 290 289 291 291 288 288 287 286 285 284 284 283 283 284 284 284 284 284 283 282 281 281 280 279 278 278 277 277 276
293 287 287 287 289 290 288 289 290 287 288 289 289 288 292 294 291 289 290 289 289 288 287 286 286 284 283 284 284 284 284 284 284 283 282 282 281 280 279 278 277 277 276 276
288 287 284 283 286 287 282 287 288 290 291 289 285 290 292 293 294 291 290 290 290 290 289 287 286 285 284 284 284 284 284 284 283 283 282 282 281 280 278 277 276 275 275 275
285 285 285 283 284 278 286 285 292 291 292 294 292 292 288 291 293 291 292 291 291 291 290 289 288 287 285 285 285 284 283 283 283 283 283 282 280 279 277 276 275 275 274 273
289 286 283 281 280 282 284 282 285 286 287 293 293 294 296 285 285 287 289 289 290 290 290 290 290 289 286 284 284 283 283 283 283 282 282 281 280 278 276 275 274 274 273 272
284 288 284 282 279 277 281 281 284 287 279 285 291 293 286 287 286 289 287 289 290 291 291 289 288 286 286 285 284 283 282 282 282 282 282 281 279 278 276 276 274 274 273 272
278 279 280 282 279 281 284 281 283 279 281 280 283 285 286 288 290 291 289 291 291 290 290 289 287 286 286 284 283 282 281 281 283 282 280 279 279 278 277 275 273 271 270 270
279 278 278 280 279 277 280 280 283 284 282 282 284 284 285 284 285 284 284 284 285 285 285 284 282 282 281 283 283 281 280 281 280 279 278 277 277 276 274 273 270 269 268 266
280 283 280 283 282 282 280 281 283 284 284 284 285 285 287 283 281 281 281 281 281 281 281 278 279 278 276 280 282 279 279 278 277 277 276 275 273 273 272 270 267 265 264 264
279 280 280 281 280 282 281 281 283 282 282 282 282 284 284 283 281 279 279 279 279 278 278 276 278 277 276 275 278 278 277 276 276 275 272 270 270 268 268 268 267 266 264 264
279 279 276 276 278 279 282 283 286 284 281 280 280 281 283 282 279 279 278 278 279 278 277 276 277 276 276 274 274 275 275 275 274 272 270 269 269 268 265 266 266 266 265 266
278 278 278 278 281 283 282 286 284 283 281 280 279 277 279 280 279 278 277 278 277 276 275 274 273 272 272 272 271 270 272 273 271 268 268 267 266 265 265 265 262 272 271 273

GFSCGP_sfc_thetae_072.txt.gz
Theta_e
294 289 287 292 290 291 289 287 287 289 294 291 290 292 294 292 291 290 290 290 291 292 292 295 294 295 296 296 295 295 296 298 298 296 295 294 292 292 292 293 293 293 293 292
291 287 294 295 293 291 289 287 288 290 293 291 291 290 293 291 292 294 294 292 292 290 291 293 293 293 295 295 297 296 298 298 299 298 294 292 291 290 291 291 291 291 291 290
289 293 296 294 291 290 289 287 287 289 290 289 287 288 290 292 294 294 295 296 294 292 291 292 292 292 292 294 298 298 298 298 297 293 292 290 290 289 289 288 288 288 289 287
291 295 294 291 290 292 287 292 292 290 287 284 288 283 287 290 291 292 295 294 293 291 292 293 292 291 292 293 298 298 297 295 293 293 291 291 289 287 287 287 287 286 285 285
290 291 291 290 291 293 290 292 290 288 285 283 284 282 285 289 289 292 295 292 290 291 291 292 292 293 293 296 298 297 294 293 293 292 292 289 287 286 286 285 283 283 284 284
290 292 293 293 292 293 293 290 288 286 284 279 285 284 289 289 292 296 297 291 291 290 291 292 292 293 293 297 297 295 293 292 293 291 289 288 286 285 283 283 282 282 282 282
289 289 290 292 289 290 290 286 280 278 277 279 284 283 289 291 292 294 293 290 289 290 290 290 289 290 291 294 294 294 293 291 290 289 288 287 285 284 283 282 282 281 281 281
284 283 289 292 291 289 287 287 281 273 275 278 282 280 286 291 293 290 292 291 288 288 290 290 290 290 290 291 291 292 290 289 288 288 286 286 284 284 283 283 282 282 281 281
284 284 289 290 290 293 286 285 290 283 272 275 282 285 290 291 290 290 289 288 287 288 289 289 289 289 290 289 289 290 289 288 288 287 286 285 284 284 283 282 282 281 281 281
290 284 287 287 291 290 288 290 282 284 274 274 280 281 285 289 289 289 287 286 286 288 287 288 288 288 288 288 288 289 289 287 287 286 285 285 284 283 283 282 281 281 280 280
292 290 284 287 286 286 286 285 286 288 283 276 274 282 288 290 291 290 288 288 287 288 286 287 287 287 287 285 286 288 288 286 285 285 285 284 283 283 282 281 281 280 280 279
293 291 281 285 289 291 290 289 290 285 278 280 279 285 288 289 290 290 289 289 288 288 287 286 286 285 285 284 284 285 286 285 285 285 284 283 282 282 281 280 279 280 279 279
295 289 284 285 287 289 287 289 291 289 284 281 279 284 287 288 288 288 288 288 288 287 285 284 284 284 284 284 284 284 284 284 284 284 283 282 281 281 280 279 279 279 278 277
298 290 287 284 285 285 283 286 289 290 285 282 286 287 286 287 287 289 288 287 286 286 284 284 283 284 285 284 284 284 284 284 284 283 283 282 281 280 280 279 279 278 277 277
296 287 289 290 289 286 284 286 288 288 288 286 289 288 293 291 290 290 289 287 286 286 284 284 283 283 284 284 284 284 284 283 284 283 282 282 281 281 280 279 278 277 277 276
295 288 288 288 290 289 287 288 286 288 290 290 290 289 293 294 292 289 290 288 287 287 286 285 284 283 283 284 284 284 283 283 283 283 282 282 281 280 279 278 277 277 276 276
289 288 286 285 289 288 283 288 290 289 289 290 286 291 296 294 293 291 289 288 288 288 288 286 285 284 284 284 284 283 284 284 283 282 282 282 281 280 279 278 277 277 276 276
289 289 288 285 285 278 288 288 293 291 293 292 291 292 292 292 295 294 291 290 289 290 290 288 287 286 285 285 285 284 283 283 283 283 282 282 281 280 279 277 277 276 275 275
288 287 285 283 282 284 285 283 285 287 288 294 293 293 295 294 287 289 290 290 291 291 291 290 288 287 285 284 284 283 282 283 283 282 282 282 281 280 278 277 276 276 275 274
287 288 285 283 280 278 281 281 286 289 283 286 293 294 294 287 284 292 288 288 288 288 288 287 285 284 284 284 284 283 282 282 282 283 283 282 281 280 278 277 276 276 275 275
279 282 280 282 281 281 282 282 285 281 282 280 285 289 286 286 289 289 288 288 288 288 288 287 286 284 285 284 283 282 282 282 284 284 283 282 281 280 279 278 276 276 274 273
279 279 279 282 280 278 281 283 284 285 282 282 284 285 285 287 285 284 285 286 286 287 286 286 285 285 284 284 284 283 282 284 283 283 282 281 281 280 279 277 275 274 273 272
279 282 280 283 283 287 283 286 286 286 285 285 285 285 287 286 284 284 283 282 283 282 281 279 280 278 278 282 283 282 281 281 281 281 280 280 280 279 278 276 273 272 272 271
281 282 282 282 283 283 283 282 283 285 283 283 282 284 285 284 283 281 279 280 280 278 278 276 277 276 275 274 277 278 278 279 279 279 277 277 276 274 274 274 273 272 270 269
281 280 277 278 279 280 283 282 284 283 281 280 280 281 284 284 279 279 278 278 279 278 276 277 278 277 275 274 273 274 276 277 277 275 273 273 274 272 271 271 271 272 269 271
279 280 280 279 284 285 285 286 284 285 283 280 280 278 278 281 281 278 277 277 276 275 273 273 272 272 269 270 270 268 272 275 273 270 270 271 271 269 269 267 263 273 271 274

GFSCGP_sfc_thetae_075.txt.gz
Theta_e
293 289 287 291 290 289 288 286 286 289 292 290 289 290 294 293 290 290 290 290 291 292 293 294 295 295 296 295 295 295 299 299 298 297 297 296 293 294 293 294 294 294 294 293
290 287 293 294 292 290 288 286 286 289 291 290 290 289 291 291 291 293 294 293 293 292 290 293 293 294 295 297 296 294 299 298 298 299 294 293 293 292 292 292 291 291 291 290
289 293 295 293 290 288 287 286 286 288 289 288 287 287 288 291 293 294 294 297 296 294 291 291 292 293 293 296 297 297 298 299 298 294 292 290 291 290 289 289 288 289 289 288
290 293 293 291 289 290 285 290 290 288 286 283 287 283 287 289 290 291 295 296 294 291 292 292 292 292 293 296 299 299 299 299 294 293 292 292 292 288 288 287 287 287 287 286
289 290 290 289 290 292 288 291 289 287 284 282 281 281 285 288 288 291 296 295 291 291 292 292 292 294 294 295 298 299 299 294 293 293 293 292 290 287 286 286 285 285 285 284
290 292 293 292 292 293 292 289 287 285 283 279 284 284 289 286 289 291 295 293 291 290 290 292 293 293 293 295 298 297 294 293 293 292 291 290 287 285 284 284 283 283 283 282
288 289 289 291 289 290 289 287 280 278 276 279 282 281 289 291 292 292 293 292 291 289 289 290 290 292 292 295 297 293 293 291 292 290 289 288 287 286 285 284 283 281 281 280
284 282 289 291 291 289 286 286 281 274 275 278 282 280 285 290 292 292 291 291 289 287 288 289 290 292 293 295 296 293 292 291 290 289 288 288 287 286 285 284 283 281 281 281
283 283 288 288 289 293 285 284 289 282 271 274 281 284 289 290 291 293 288 287 287 286 288 289 290 291 293 295 295 293 292 290 289 288 287 286 286 285 283 282 282 281 281 281
288 283 286 287 290 289 288 290 283 282 273 272 279 280 284 289 291 291 289 288 286 286 287 288 289 289 291 292 294 293 291 288 288 288 287 285 285 284 283 282 281 280 280 280
290 287 283 286 285 285 286 284 285 287 281 275 273 282 288 290 290 289 290 289 287 286 286 287 288 289 289 289 289 289 289 288 287 287 286 285 284 283 282 281 281 280 280 279
292 287 278 283 287 288 287 287 289 284 279 280 279 285 289 290 288 289 290 289 286 286 286 286 287 286 285 285 286 287 287 287 287 286 285 284 283 282 281 280 280 280 279 279
294 288 283 285 288 289 286 287 290 288 285 281 279 284 288 288 289 289 289 287 286 285 284 284 284 285 285 284 285 286 286 286 287 286 285 283 282 281 280 280 279 279 278 278
297 289 284 285 285 287 284 286 288 289 284 282 285 288 290 288 288 290 288 287 286 284 284 283 283 284 285 285 284 285 285 286 286 285 284 283 281 281 280 279 279 278 278 277
295 287 287 289 288 286 285 287 288 287 288 286 289 288 292 295 293 294 290 287 286 284 283 283 283 284 284 284 284 284 284 284 284 284 283 282 281 280 280 279 279 278 277 277
295 288 288 288 290 288 287 287 287 289 290 290 291 290 297 294 294 289 291 289 286 286 286 285 284 284 284 284 284 284 284 283 283 283 282 282 281 280 279 279 278 277 277 276
289 289 286 285 290 288 283 288 289 288 290 290 286 291 297 293 293 294 291 289 288 288 287 285 284 284 284 285 285 284 283 283 282 282 282 281 280 279 279 278 277 277 276 277
289 289 288 285 286 279 288 291 293 291 292 292 292 294 296 294 296 295 291 291 290 289 289 287 286 286 285 285 285 285 283 283 283 282 281 281 280 280 278 278 277 277 277 276
292 289 286 284 283 285 286 283 285 286 288 293 293 293 294 292 287 291 291 291 292 291 291 291 289 287 284 284 285 283 282 282 282 281 281 281 281 280 278 278 277 277 276 275
287 290 286 283 281 279 284 283 286 289 284 288 293 294 294 288 286 293 289 288 288 289 289 288 286 284 284 283 283 282 281 281 281 282 282 282 282 281 279 278 277 277 277 276
281 282 280 283 282 282 282 282 287 281 283 279 285 291 286 288 292 289 286 287 285 286 285 284 284 283 283 282 282 281 281 281 283 283 282 282 282 281 280 279 278 277 276 275
281 280 280 282 280 278 281 282 284 286 280 281 282 285 283 284 285 284 284 286 286 286 285 283 281 280 280 282 282 282 281 283 283 283 282 282 282 281 280 279 278 277 276 275
279 283 281 282 283 286 283 284 287 286 284 285 286 286 286 286 286 285 286 285 285 282 282 279 281 280 279 281 284 282 282 283 283 283 283 282 282 282 281 279 277 276 275 275
282 284 284 284 285 286 285 285 284 286 285 285 286 287 287 286 285 284 281 282 281 277 278 275 277 277 276 276 278 277 279 281 282 282 282 282 281 280 280 279 278 276 274 274
284 283 282 280 282 282 284 284 284 284 283 282 281 283 285 285 281 281 279 279 280 278 276 276 277 276 275 273 273 274 276 279 279 279 277 277 278 278 276 277 276 275 275 276
280 281 282 282 285 286 286 286 285 284 281 281 281 279 280 283 283 279 278 278 278 277 274 274 273 273 272 272 272 271 274 277 275 272 272 274 272 272 272 271 266 278 276 278

GFSCGP_sfc_thetae_078.txt.gz
Theta_e
292 288 286 290 289 288 287 284 284 287 291 289 289 288 293 292 290 290 291 291 292 293 296 293 294 295 295 296 296 296 300 301 300 299 299 298 295 295 295 295 297 301 299 298
289 286 292 293 291 289 287 285 285 288 290 289 289 289 292 293 291 293 295 294 294 294 290 291 293 294 295 299 297 295 300 299 300 301 296 295 295 292 292 292 292 293 293 292
288 291 293 292 289 288 286 285 285 287 288 287 285 285 287 291 292 294 295 297 297 295 292 290 292 293 295 298 297 296 300 299 300 294 293 292 292 291 290 290 290 290 290 289
289 292 291 289 288 290 284 289 288 287 285 282 286 281 286 290 291 290 294 295 294 292 291 291 292 292 294 298 297 298 300 299 297 295 294 294 295 292 290 289 288 287 288 287
288 289 289 288 289 291 287 289 287 286 283 281 280 280 284 286 287 291 296 295 292 291 292 291 292 293 295 298 297 298 299 299 294 295 295 295 294 288 288 287 286 285 286 286
289 291 291 291 290 291 290 288 286 284 283 279 283 284 287 287 289 291 293 292 292 291 289 290 291 293 293 297 299 299 299 296 294 293 294 293 288 287 286 285 284 284 284 284
287 288 290 291 288 289 288 286 280 278 276 280 280 281 289 291 291 291 293 292 290 289 288 288 289 291 292 296 298 298 297 293 293 293 292 290 289 288 286 285 284 283 282 282
284 282 288 290 291 288 286 286 281 274 275 278 281 279 285 290 292 291 291 290 290 289 287 288 289 291 292 295 298 297 294 292 292 292 290 290 289 288 287 286 284 284 283 282
283 284 287 288 288 292 285 283 288 282 270 274 281 284 289 289 290 291 291 289 290 288 286 287 289 291 292 295 296 295 293 292 291 291 289 288 288 287 285 284 284 283 282 282
288 283 285 287 289 288 287 289 282 280 272 271 279 280 284 288 291 290 290 289 289 286 286 287 288 289 292 294 295 293 294 292 291 290 289 288 287 286 285 284 282 282 282 282
289 287 283 285 284 285 285 284 283 285 280 274 273 282 287 289 290 289 289 289 289 287 286 286 287 288 291 292 291 291 292 290 289 289 288 287 286 285 284 283 282 282 281 280
291 286 278 283 285 287 286 286 287 284 278 279 278 284 289 290 289 288 290 289 287 287 286 286 286 286 287 287 287 290 290 289 289 288 286 286 284 284 283 282 281 281 279 279
293 288 282 284 286 287 285 286 290 287 285 280 277 285 288 289 289 289 290 288 288 285 284 285 284 285 286 287 287 287 289 289 287 286 286 284 283 283 282 281 281 279 278 278
298 289 285 284 284 286 283 285 287 289 284 283 285 289 290 287 289 290 288 288 286 285 284 283 284 285 285 286 286 286 286 287 286 285 285 283 283 283 282 281 280 279 278 277
295 287 287 289 287 286 285 286 287 286 288 285 289 287 292 295 295 296 293 289 287 285 284 284 284 284 285 285 285 285 285 284 285 284 284 283 283 282 281 280 280 278 278 278
294 287 286 286 287 285 283 285 287 288 289 289 290 288 296 294 295 293 292 291 288 288 286 285 284 284 284 285 285 285 284 283 284 284 283 283 282 281 280 279 279 278 277 277
290 288 286 285 288 286 283 288 288 288 290 290 286 291 296 293 293 293 294 292 290 289 289 286 285 285 285 285 286 285 284 283 283 283 283 282 282 280 280 279 278 277 277 277
290 288 287 285 285 279 288 290 293 291 291 292 292 294 296 294 295 295 294 292 291 290 290 288 287 286 285 286 285 285 284 282 283 282 281 282 281 280 279 278 278 277 277 277
291 287 285 283 283 287 284 285 286 287 289 294 292 294 295 295 289 293 291 292 293 292 291 291 290 287 284 284 284 283 281 282 282 281 281 281 281 280 278 278 278 278 277 276
289 289 284 284 281 279 288 289 287 290 285 293 293 294 294 290 285 293 293 290 289 288 288 288 287 284 283 282 283 282 281 281 281 282 282 281 281 280 279 279 278 278 278 277
281 284 281 282 281 284 282 281 284 283 284 285 291 293 293 288 292 289 286 286 285 285 284 284 283 282 282 282 282 281 281 281 282 282 281 281 281 280 280 279 278 278 277 276
281 281 281 282 280 279 282 285 283 286 280 280 282 285 284 286 287 287 286 286 286 283 283 281 279 279 279 281 282 280 280 281 281 281 280 280 280 280 280 279 278 277 277 276
279 280 278 283 282 284 283 283 288 286 284 285 285 286 286 286 286 285 285 285 285 282 281 278 278 278 277 279 280 279 280 282 282 281 281 281 281 280 280 279 277 277 277 276
282 285 283 284 285 286 285 286 285 285 285 288 288 286 286 286 285 285 282 283 282 277 278 276 278 277 276 276 279 282 282 282 283 282 282 282 281 280 280 281 279 278 276 276
281 284 283 283 284 284 286 286 291 289 285 283 283 286 287 286 283 283 281 279 281 279 276 276 278 277 276 274 274 276 279 282 282 282 281 281 282 281 280 280 279 278 278 278
281 281 281 281 285 286 287 287 287 285 286 284 282 280 280 283 283 280 279 280 279 278 275 275 273 273 272 274 272 272 276 280 278 276 279 280 280 280 279 278 275 282 281 281

GFSCGP_sfc_thetae_081.txt.gz
Theta_e
291 289 287 290 289 287 286 285 285 287 291 290 289 290 293 294 291 292 294 294 295 295 299 297 296 297 299 300 300 301 302 303 303 303 302 301 299 298 297 298 303 306 305 304
288 286 292 292 291 289 287 285 285 288 289 290 289 288 291 294 292 295 297 298 296 297 294 294 294 296 298 299 300 299 302 302 302 305 302 300 297 294 294 294 295 298 300 299
288 290 292 292 288 288 286 285 285 287 288 288 286 286 288 292 294 296 296 298 300 297 295 293 293 295 297 298 300 299 302 302 302 300 296 294 294 293 292 292 292 292 294 294
289 292 291 289 288 290 284 289 288 287 286 282 286 282 287 291 293 293 295 297 295 295 294 293 293 294 296 299 301 300 302 302 302 298 298 298 298 296 294 292 291 290 291 290
288 289 288 288 289 291 287 289 287 286 284 283 283 282 286 288 289 293 298 297 295 294 294 293 293 295 296 298 300 299 301 302 299 298 299 299 299 294 292 290 288 288 288 288
289 290 291 291 290 291 290 288 286 284 283 279 283 284 286 287 290 292 294 295 294 294 292 292 292 293 295 298 298 299 300 300 297 297 298 300 295 291 289 288 288 286 286 286
287 288 290 291 288 289 288 287 281 278 277 280 281 281 289 291 291 292 294 294 293 293 292 290 290 292 294 296 297 298 299 298 296 296 296 296 294 292 291 289 288 285 284 284
285 283 288 291 291 288 286 286 281 274 275 279 281 279 286 290 292 292 292 292 292 293 291 289 290 291 293 296 297 298 298 295 295 295 295 293 292 292 291 289 288 287 285 284
283 283 287 288 288 292 285 284 287 282 270 275 282 284 289 290 290 292 293 291 291 291 290 289 289 291 292 295 298 298 297 295 294 294 292 291 291 289 288 287 286 285 284 283
289 283 285 286 288 288 288 289 283 281 274 272 280 281 285 289 290 291 290 291 291 290 288 288 289 290 292 295 298 297 296 293 294 293 291 290 289 289 287 285 283 283 283 283
290 287 282 285 284 284 285 284 283 284 281 276 274 283 287 290 291 291 291 291 291 290 288 288 288 289 291 294 294 293 293 292 292 291 290 289 288 287 285 285 283 283 282 282
292 288 280 282 285 286 285 286 286 281 277 279 278 285 290 290 291 291 292 291 290 289 288 288 288 289 290 291 291 291 292 291 291 290 289 288 287 285 284 284 283 283 282 282
292 287 282 283 285 286 284 286 290 286 283 280 280 285 288 288 289 290 290 290 289 288 287 287 287 287 289 290 290 290 290 290 290 289 288 286 285 284 284 283 282 282 281 281
296 288 287 285 285 286 282 284 287 289 283 284 285 289 289 288 289 291 290 290 289 288 287 286 286 286 287 289 290 290 289 289 288 287 287 285 284 284 284 282 281 281 281 280
295 286 288 289 288 287 286 285 287 286 288 285 289 288 292 294 293 295 293 290 289 288 286 285 286 286 286 287 288 289 288 287 287 287 286 285 284 285 283 282 281 280 280 279
294 285 288 288 290 287 284 285 287 288 289 289 290 289 297 294 296 294 295 295 290 289 289 288 287 286 286 287 287 287 287 286 286 286 286 285 284 283 282 281 280 279 279 279
289 285 285 284 287 285 282 287 286 287 290 289 286 291 297 291 294 295 294 293 293 291 292 291 288 287 287 287 288 286 287 286 285 285 285 284 283 282 281 280 279 278 278 278
285 285 285 284 285 277 288 291 293 289 291 290 290 293 294 294 294 294 296 293 293 293 292 291 291 289 288 288 287 287 286 284 284 284 283 283 282 281 280 279 279 279 278 278
292 286 283 282 282 285 286 285 286 288 289 294 292 294 296 295 289 294 292 294 296 295 294 293 292 290 287 286 286 285 283 283 283 283 282 282 282 281 280 279 279 279 278 278
287 289 285 283 280 278 282 280 286 290 286 294 293 294 294 291 286 293 292 291 291 291 290 290 289 288 285 283 284 283 282 282 282 283 282 282 281 281 279 280 279 279 279 278
281 283 281 282 281 283 286 282 286 283 285 281 290 294 294 291 293 291 288 288 288 287 286 285 286 285 283 282 282 281 281 281 282 282 282 281 282 281 280 280 279 279 278 278
279 280 280 282 280 278 280 282 283 283 284 280 284 286 286 287 289 288 288 287 286 286 284 282 280 279 280 281 282 280 280 281 281 281 280 280 280 280 280 279 279 278 278 277
277 282 280 282 280 284 282 283 286 285 285 287 285 286 287 287 286 287 286 286 286 285 282 278 278 277 276 279 280 279 279 280 280 279 279 279 280 280 280 278 278 277 278 277
279 284 283 281 284 286 288 288 287 289 288 287 286 286 287 286 286 286 282 283 283 278 278 275 276 275 275 274 277 278 279 281 281 281 280 281 280 278 278 278 278 277 277 276
280 281 277 279 283 285 287 287 289 289 289 288 288 286 287 287 285 283 282 280 282 280 276 276 278 277 276 275 275 277 279 281 281 282 281 280 280 279 278 279 278 278 278 279
280 279 278 278 285 285 285 288 288 287 287 287 286 283 281 284 285 283 282 282 280 280 276 276 275 275 273 275 275 275 279 281 281 279 280 281 281 280 279 279 279 282 281 282

GFSCGP_sfc_thetae_084.txt.gz
Theta_e
299 298 295 297 299 296 294 294 293 296 297 296 297 297 300 303 303 302 304 305 306 306 309 309 308 308 310 312 312 312 312 314 314 313 311 310 310 307 304 307 310 314 315 313
296 294 299 299 297 296 294 293 293 296 296 295 296 296 300 301 302 304 305 306 307 308 308 307 306 306 306 308 310 310 311 312 312 313 314 313 310 305 304 300 304 307 309 310
294 296 297 296 293 293 293 293 293 292 294 295 294 294 298 301 301 303 305 305 307 307 308 307 304 304 306 306 308 309 310 311 312 313 312 306 302 299 296 297 298 299 302 302
296 298 295 294 293 294 291 295 294 292 292 290 294 287 296 299 300 302 303 305 306 306 306 305 304 304 304 306 308 308 309 310 311 312 308 307 307 302 301 301 299 295 297 300
294 293 293 293 294 295 293 294 293 293 292 291 292 288 294 296 297 300 304 307 308 307 306 305 304 304 304 305 307 308 309 309 310 309 310 309 311 310 304 301 296 293 290 292
295 296 296 296 294 295 294 294 292 292 292 286 292 290 292 296 298 302 305 306 304 303 303 302 301 302 303 304 306 306 307 307 308 307 308 309 310 303 299 299 294 293 289 289
292 293 295 295 292 294 294 293 286 286 284 285 289 289 293 299 300 301 303 304 302 303 302 303 299 299 300 302 304 304 305 305 306 306 306 307 306 301 302 300 295 290 288 287
288 286 293 296 296 293 291 293 288 284 283 287 286 285 294 300 303 304 301 301 302 303 303 301 299 299 300 301 302 303 303 304 304 304 304 305 305 304 303 300 297 296 291 289
288 288 293 292 295 297 290 288 295 289 281 285 290 295 298 299 299 299 300 302 303 302 300 299 298 298 299 300 301 302 303 304 303 303 303 301 299 297 296 295 295 293 292 287
294 288 290 291 295 294 294 297 288 290 284 283 288 289 292 295 298 299 300 301 301 300 298 297 297 297 298 300 301 302 303 303 302 302 301 298 296 294 294 291 289 286 286 285
295 292 288 291 290 292 291 290 291 292 290 287 285 291 299 300 300 299 301 300 300 299 298 297 296 297 298 299 301 301 302 302 300 300 298 296 295 292 291 289 286 285 285 283
296 293 289 289 292 293 296 294 293 289 284 287 287 290 297 299 301 301 301 300 300 297 297 297 296 296 297 298 299 299 300 299 299 299 297 296 294 290 288 287 286 285 284 283
295 289 285 287 290 291 289 291 294 294 290 288 287 290 295 296 296 297 298 299 298 296 295 295 295 295 296 297 298 298 298 298 298 298 296 294 291 288 287 286 285 284 283 282
296 289 288 287 291 293 287 290 292 292 288 289 289 293 294 294 296 298 297 298 298 296 295 296 296 296 296 297 298 298 298 298 297 296 294 292 291 288 287 285 284 283 283 281
293 284 288 291 292 290 290 290 290 290 292 289 292 292 296 298 298 300 301 298 295 295 295 297 297 296 295 295 296 297 297 296 295 294 293 292 290 289 287 284 283 283 282 281
293 285 286 285 290 290 288 290 291 290 292 292 293 293 301 302 303 302 302 302 297 296 297 298 295 294 293 294 295 295 295 294 293 293 291 291 288 286 285 283 283 282 281 280
288 285 285 284 289 289 284 288 292 291 293 293 289 295 300 299 299 300 301 302 302 302 301 299 298 296 295 294 294 294 294 293 291 291 290 288 287 286 284 283 282 281 280 280
285 285 285 282 285 277 290 295 296 294 295 295 295 297 299 299 300 302 303 303 301 300 301 301 301 299 297 297 295 294 293 291 289 290 288 287 286 285 284 282 281 281 280 279
291 287 284 281 281 286 289 291 291 290 291 297 296 296 298 300 297 299 301 301 302 303 304 303 303 302 299 294 294 292 290 289 289 289 288 287 286 285 283 282 282 281 280 279
288 289 284 284 279 277 289 290 290 294 286 290 297 298 298 298 293 298 302 301 301 301 298 297 297 296 294 292 290 289 287 287 286 288 288 287 286 284 283 283 282 281 281 280
283 284 281 282 280 284 291 289 291 285 287 286 288 290 290 290 296 300 297 297 296 296 294 293 292 292 291 287 287 286 286 285 287 287 286 285 285 284 283 283 283 281 280 279
281 281 281 283 280 278 288 289 287 287 288 287 290 291 289 291 292 293 294 294 294 294 291 288 287 286 285 286 286 285 285 286 285 285 284 284 283 284 283 282 281 281 280 278
278 283 282 283 284 288 289 290 290 289 290 291 291 291 291 291 293 294 293 292 293 291 287 284 284 283 283 284 286 284 284 284 284 283 282 282 283 283 283 282 281 280 280 280
282 285 281 282 285 288 290 291 290 290 290 292 292 291 290 293 295 291 290 289 288 286 286 283 282 282 282 281 282 284 283 283 281 281 281 282 281 282 282 282 282 281 280 280
282 283 282 282 285 286 288 288 290 290 290 290 290 290 291 292 291 290 288 287 286 286 283 282 282 282 282 281 282 282 282 282 282 282 282 282 282 282 281 281 281 281 282 283
282 280 278 278 284 283 284 288 290 289 289 289 288 288 286 286 287 288 287 287 284 285 283 282 282 281 281 281 282 282 283 284 283 282 282 282 281 281 280 280 280 282 282 283

GFSCGP_sfc_thetae_087.txt.gz
Theta_e
304 298 295 298 300 299 297 296 295 298 300 297 297 298 301 304 304 304 305 306 307 309 312 313 313 313 316 323 325 325 324 323 324 323 321 319 318 317 313 317 317 324 325 322
299 295 300 301 300 298 297 294 294 298 300 297 297 297 301 303 304 305 305 306 308 309 311 312 312 312 312 315 321 322 322 321 321 321 319 317 316 317 314 308 308 314 316 316
295 297 300 299 297 295 295 294 294 294 298 299 296 295 298 303 305 306 307 308 309 309 309 311 311 310 311 311 315 317 319 319 318 318 317 315 315 309 305 303 303 304 309 311
297 300 297 296 295 296 291 298 296 294 293 289 296 288 296 299 301 304 306 307 308 309 310 310 311 309 310 311 313 315 316 316 316 316 315 313 308 305 307 308 303 299 301 304
295 296 295 294 295 298 294 297 296 295 293 293 293 289 294 299 298 301 304 308 310 312 312 310 310 310 310 311 312 313 313 314 314 314 314 311 308 313 312 308 300 297 296 299
297 298 299 298 297 298 298 296 295 295 293 286 292 291 292 296 299 302 305 308 309 309 308 307 307 308 307 310 310 312 311 311 313 313 313 311 311 312 306 302 299 295 293 292
294 295 297 298 294 296 296 293 286 286 285 285 293 292 294 300 302 304 305 308 305 306 306 307 304 303 305 306 307 309 309 308 311 311 311 311 312 313 308 304 299 296 293 291
289 287 294 297 296 293 293 293 288 284 284 288 289 287 293 302 304 305 306 307 306 306 307 306 306 304 304 304 306 307 307 307 309 309 309 310 311 312 308 307 305 299 297 296
290 290 297 296 298 298 292 289 296 289 288 285 289 294 299 302 302 303 304 304 305 307 306 305 304 303 303 303 305 305 305 306 307 308 307 308 309 308 307 305 304 304 300 294
295 289 294 294 296 297 295 298 288 290 284 282 287 291 292 298 299 302 303 304 306 305 303 301 302 302 302 303 304 305 305 305 307 307 306 306 307 306 305 302 300 297 296 290
296 293 289 293 291 292 292 291 293 293 291 286 284 290 301 301 304 303 304 305 305 304 303 302 301 301 302 303 303 303 304 304 306 305 305 305 303 302 299 295 293 290 288 286
297 293 288 290 296 298 297 293 293 289 287 290 289 290 302 303 304 305 304 304 304 303 302 302 301 300 300 301 302 303 303 303 305 304 304 302 301 298 296 293 289 288 287 285
296 288 285 288 293 294 290 294 296 295 292 289 287 290 299 300 300 303 304 303 302 301 300 300 300 300 300 301 301 302 302 303 303 302 301 300 299 296 294 292 289 288 286 284
296 287 287 286 290 292 288 291 294 292 288 289 290 294 299 300 299 301 301 301 302 301 300 299 300 300 300 300 300 301 301 302 301 301 300 298 297 295 292 290 288 287 285 284
293 284 288 290 292 291 289 289 292 290 292 288 292 294 298 301 302 303 304 304 301 300 298 299 300 302 301 300 300 301 301 301 300 299 298 297 296 293 291 288 286 285 284 283
292 285 286 285 290 291 287 288 290 291 293 293 295 294 302 303 303 303 304 302 299 299 299 300 301 301 300 299 299 299 300 299 298 297 296 296 292 290 289 286 285 283 282 282
287 285 285 282 288 286 282 288 289 291 294 293 289 296 300 299 300 302 303 304 303 304 305 304 303 302 300 299 299 298 299 299 296 294 294 292 290 288 287 285 283 282 281 281
286 285 285 282 285 276 290 296 295 293 295 296 296 298 299 300 302 303 303 303 303 304 304 305 306 307 304 301 300 298 297 296 293 292 291 291 288 287 286 284 283 283 281 280
292 287 283 280 281 285 286 289 289 290 291 295 294 296 298 299 301 301 302 300 303 304 305 306 305 304 304 302 300 295 293 293 292 290 290 289 288 286 285 283 283 283 282 280
288 289 284 283 278 276 287 292 293 295 284 289 290 291 291 293 291 297 296 297 298 300 302 301 300 299 298 297 294 291 290 291 290 290 290 290 288 286 285 284 283 283 283 281
282 284 280 280 279 284 290 290 293 283 284 289 289 291 290 289 292 295 297 297 297 297 297 296 294 293 292 290 289 289 289 288 290 289 289 288 287 286 285 284 284 283 282 280
281 281 281 282 279 277 290 289 288 287 289 288 290 291 290 292 293 294 297 296 295 294 295 291 287 287 287 287 287 287 287 288 287 287 286 285 285 285 285 283 283 282 281 279
279 284 282 285 284 290 291 291 293 291 291 292 292 292 292 292 292 294 296 296 294 292 289 288 286 284 285 285 286 285 286 285 285 284 283 283 284 284 284 283 281 281 280 279
286 286 281 282 285 286 288 292 290 291 290 291 291 291 292 291 292 290 291 292 289 288 288 285 284 284 284 283 283 284 284 284 282 282 282 282 282 282 283 283 282 281 280 279
283 284 282 282 285 286 288 288 287 286 287 289 289 289 290 290 289 290 289 290 290 288 286 285 284 284 283 283 283 283 283 282 282 282 282 282 283 282 282 282 282 282 282 282
283 280 278 278 284 283 284 286 287 286 286 287 288 288 288 288 288 288 288 289 288 287 285 285 284 283 284 282 282 282 282 282 282 282 282 282 282 282 281 281 281 284 284 284

GFSCGP_sfc_thetae_090.txt.gz
Theta_e
300 293 290 293 295 295 293 290 289 292 297 294 293 293 295 297 297 297 297 298 300 301 303 306 305 306 309 316 320 326 323 321 322 321 320 318 319 318 315 319 321 327 325 321
295 291 297 298 297 294 293 289 289 292 295 293 292 292 296 297 297 299 300 300 301 300 302 304 305 304 307 311 318 322 323 320 320 322 321 317 316 314 315 311 313 319 323 321
292 295 299 296 293 293 291 289 289 289 293 293 290 289 292 297 298 300 301 302 303 302 301 302 303 304 305 307 312 318 321 320 321 320 318 311 311 309 303 305 306 307 315 319
294 298 295 293 292 293 288 293 292 291 288 283 291 281 289 294 295 297 300 300 300 301 302 303 303 302 304 305 307 313 317 318 319 317 314 310 309 302 302 303 304 303 307 311
291 292 292 291 293 295 291 294 292 291 287 287 286 283 287 293 291 295 298 299 300 302 302 303 303 303 303 304 304 307 311 313 314 314 311 309 306 303 303 302 299 302 301 304
293 296 295 294 294 295 296 293 291 290 288 280 286 285 284 289 292 295 297 298 301 302 301 301 300 302 302 303 304 305 307 308 309 310 308 307 304 303 303 299 298 299 298 298
292 292 294 295 291 294 292 289 280 280 278 279 288 284 287 293 295 295 297 298 299 299 300 299 297 298 300 300 302 304 304 304 306 307 307 306 304 305 303 299 299 297 295 293
285 283 291 294 293 290 289 289 281 275 278 280 284 281 287 295 297 298 300 298 300 299 301 301 300 298 298 300 301 302 303 303 304 305 305 305 305 306 304 301 299 297 298 297
286 286 294 294 294 295 289 286 291 284 277 277 283 288 293 296 296 298 298 299 299 299 300 300 299 298 298 299 300 301 302 302 303 304 304 303 304 304 302 302 300 298 297 297
290 285 291 291 294 293 291 293 284 285 276 275 280 282 286 292 294 296 297 298 299 299 297 297 297 297 298 299 300 301 301 301 302 303 303 302 302 303 301 300 298 297 295 294
292 289 285 289 288 288 288 287 289 288 284 277 277 282 292 293 295 295 297 298 298 298 297 296 296 297 297 298 299 299 300 300 300 301 301 300 300 300 299 296 295 293 289 288
295 291 282 286 292 293 291 290 290 283 281 282 282 285 294 297 298 298 298 299 297 297 297 296 296 296 296 296 297 298 299 299 300 300 300 299 299 297 295 292 291 287 286 285
295 288 280 284 290 291 288 290 292 291 287 283 280 285 295 296 296 297 297 296 297 296 295 295 295 295 295 295 296 297 298 298 299 299 298 298 296 295 293 290 287 285 284 285
297 288 286 284 288 290 286 289 292 291 285 285 285 289 294 295 296 295 296 295 297 296 296 295 295 295 295 296 296 296 297 298 298 298 297 296 295 294 292 289 286 284 284 284
293 285 287 288 290 290 287 288 290 289 289 286 288 290 294 296 297 299 299 297 297 296 296 295 295 295 295 295 295 296 297 297 297 297 296 296 294 293 290 286 284 283 284 284
292 285 286 284 288 288 286 288 289 289 290 290 290 289 297 298 298 299 301 302 299 297 298 297 296 296 297 296 295 296 297 296 296 296 295 293 291 288 287 285 283 283 282 283
287 285 283 278 285 283 280 283 285 288 291 292 288 293 297 296 297 299 300 300 298 298 299 299 298 298 297 296 296 295 296 294 293 291 290 289 288 287 285 283 282 282 281 282
285 285 285 280 280 274 283 290 292 291 292 294 294 295 292 291 293 297 293 292 293 295 296 297 299 299 299 298 296 296 293 292 290 289 289 288 287 286 285 283 282 281 281 281
290 284 281 274 272 280 284 286 285 284 285 288 289 289 290 291 293 293 294 295 295 295 296 297 296 296 295 295 294 291 290 289 288 289 287 287 286 285 284 283 282 281 280 279
285 286 277 270 268 268 280 285 291 292 280 285 288 288 288 288 284 291 294 294 295 295 294 294 294 292 290 289 287 287 288 287 287 287 287 286 285 284 283 282 280 278 278 279
279 281 278 277 274 275 282 283 288 278 280 284 286 288 289 285 288 292 294 294 295 294 293 293 291 288 287 285 284 284 285 285 286 284 284 284 283 283 282 280 279 279 277 280
279 278 277 279 277 273 283 283 282 284 283 285 286 288 287 288 290 290 292 290 292 293 292 289 286 285 285 284 283 283 283 285 282 281 281 280 280 282 281 280 278 278 279 279
273 279 277 279 277 285 284 284 287 287 285 286 285 286 288 288 288 289 290 290 290 290 290 287 285 284 285 282 282 281 283 282 280 277 276 276 277 279 280 279 278 277 279 279
278 281 274 276 279 281 284 288 285 285 283 284 284 285 287 286 286 286 287 288 287 288 287 282 282 283 284 282 281 281 281 281 278 277 276 276 277 277 275 278 279 278 278 278
278 279 274 275 281 280 282 284 283 282 281 282 283 283 284 284 284 284 285 285 286 286 286 283 283 283 282 280 279 279 280 279 278 276 276 276 276 276 275 277 278 278 278 279
279 277 275 273 280 279 279 281 282 281 281 281 281 282 283 283 283 283 284 284 283 284 286 284 283 282 284 280 279 282 279 279 280 279 278 277 279 277 276 276 277 284 283 284

GFSCGP_sfc_thetae_093.txt.gz
Theta_e
294 289 286 289 290 290 288 286 285 289 294 292 290 290 293 295 294 293 294 294 296 298 301 301 302 303 306 314 321 324 325 325 326 322 322 325 327 327 328 330 327 324 323 320
291 287 292 294 292 291 289 286 285 290 292 290 289 290 292 294 295 297 297 295 296 295 298 300 300 300 303 313 319 323 324 322 325 326 325 320 316 317 322 322 323 326 322 319
288 292 296 294 291 290 287 286 286 287 289 289 288 285 289 292 294 296 297 298 298 297 297 299 299 299 302 308 315 320 322 321 323 322 317 312 311 310 309 311 317 314 322 320
290 295 293 290 289 291 286 290 290 288 285 281 287 279 286 291 292 293 295 297 297 296 298 299 300 298 299 305 311 316 321 319 320 318 318 318 317 314 310 317 315 311 311 319
289 291 290 290 290 292 288 291 289 288 285 284 283 281 284 289 289 292 294 294 295 297 298 299 299 300 299 301 304 312 315 318 319 318 318 315 315 310 301 301 303 308 306 309
291 293 292 291 292 292 293 291 290 287 285 278 283 282 281 286 289 291 294 294 298 298 297 297 298 299 299 300 301 305 310 314 316 316 314 313 312 303 300 299 301 305 305 303
289 290 292 294 290 292 291 286 278 278 277 277 283 281 283 290 293 294 294 296 298 298 298 298 297 297 298 300 301 301 305 306 308 311 308 309 307 304 303 300 300 302 301 299
285 282 290 293 291 289 288 286 279 273 276 278 282 280 287 292 296 297 298 295 297 297 298 297 298 297 297 298 299 301 302 303 304 306 307 305 304 305 303 301 300 301 301 303
283 284 291 291 292 293 287 285 288 282 273 275 280 284 289 292 294 296 296 296 296 295 297 298 297 297 297 297 299 300 300 301 302 303 303 303 302 302 302 299 299 299 299 299
287 283 288 289 292 291 290 292 283 283 274 273 278 279 284 289 291 293 294 294 294 295 296 296 295 296 296 297 298 299 300 301 301 301 302 302 302 302 301 299 298 296 296 296
290 287 284 288 286 286 287 285 287 287 283 276 274 279 288 289 293 293 294 295 296 294 295 294 295 295 295 296 297 298 298 299 299 300 300 300 300 300 299 298 297 296 293 292
293 288 279 284 289 291 288 288 288 281 278 280 280 283 292 294 294 295 295 296 294 294 295 294 294 294 295 295 296 297 297 297 298 299 299 299 299 298 297 295 294 291 291 288
293 285 275 282 287 289 287 289 290 289 284 282 278 283 292 293 294 296 296 296 295 296 295 294 294 294 294 294 295 295 296 297 298 298 298 297 297 296 294 293 291 288 286 285
297 289 283 281 286 289 284 287 291 289 281 283 284 287 291 293 293 295 295 296 295 295 295 293 294 294 295 294 294 295 296 297 297 297 297 296 295 295 294 291 288 286 285 284
293 286 288 289 290 291 288 287 289 288 288 284 287 288 291 293 295 295 297 298 297 297 296 295 294 294 294 294 294 295 295 296 296 296 296 296 294 293 291 288 286 285 284 284
292 284 285 284 288 288 285 287 288 289 290 291 290 289 297 297 296 294 297 297 295 294 295 296 297 297 295 295 294 295 295 295 294 296 296 295 291 289 288 286 285 284 284 283
288 285 284 278 285 284 280 284 287 288 289 291 286 290 293 291 293 292 291 292 292 293 295 295 296 296 296 296 296 295 295 293 292 291 292 290 289 288 287 286 284 283 282 282
285 285 284 278 281 274 283 287 289 288 289 292 291 288 288 288 290 292 292 291 292 293 294 295 296 295 294 294 293 292 290 290 289 289 289 288 287 287 286 284 283 282 282 281
290 285 280 277 269 276 281 284 285 286 285 287 287 287 287 288 289 289 291 292 292 293 294 294 294 294 293 292 290 286 287 287 287 288 287 286 286 286 284 283 282 281 280 279
287 285 281 275 268 267 277 284 288 288 277 285 287 287 287 286 278 285 290 291 292 293 293 293 292 291 289 289 286 285 285 285 285 286 287 286 285 286 284 284 282 278 279 280
280 283 280 275 275 272 280 284 287 275 278 282 285 286 286 282 285 288 290 290 291 290 292 292 290 288 287 286 284 283 284 284 285 285 285 283 284 285 284 281 278 278 278 278
277 275 275 278 274 270 281 282 280 280 281 282 285 283 282 283 286 286 287 286 287 289 289 288 285 286 286 285 282 283 283 284 283 282 282 283 283 283 281 279 274 275 277 277
274 277 273 275 275 282 280 283 285 285 282 282 281 281 283 283 282 284 284 284 285 285 285 286 286 285 286 282 280 280 283 282 282 280 280 279 277 279 279 279 278 277 279 279
276 280 275 276 281 282 284 286 285 283 282 283 282 282 283 282 282 283 283 283 284 283 284 282 283 284 284 285 282 281 281 281 278 279 278 277 279 278 276 279 279 279 279 279
277 278 274 273 279 280 284 283 282 280 280 280 281 281 281 281 281 281 281 281 282 283 282 280 282 282 283 283 283 282 280 276 279 279 278 277 276 276 277 279 279 279 279 281
278 277 275 272 279 279 278 279 280 279 277 277 277 277 278 278 278 279 278 279 279 278 278 279 279 279 281 282 281 281 277 277 281 280 280 280 279 277 277 278 277 283 282 283

GFSCGP_sfc_thetae_096.txt.gz
Theta_e
293 288 285 288 288 286 286 285 285 286 292 291 290 289 291 293 292 293 293 293 294 295 299 299 299 300 305 311 316 322 326 328 329 329 328 329 330 330 330 328 326 323 323 320
289 284 290 291 290 288 286 285 284 288 290 290 288 288 291 292 293 295 295 294 294 293 294 298 298 297 298 307 315 320 324 327 328 329 329 328 330 329 330 329 326 324 323 320
286 289 293 292 289 288 286 285 285 286 287 287 286 284 287 290 291 294 295 296 297 295 294 295 296 297 297 301 311 318 323 325 328 328 319 312 314 313 315 322 325 324 323 320
289 293 291 289 288 289 284 289 289 287 284 280 285 278 283 288 290 291 294 295 292 293 295 296 297 296 296 300 309 317 322 323 326 325 319 320 320 320 321 322 322 320 322 320
287 289 290 287 288 290 287 290 287 286 283 281 281 280 283 285 286 290 292 293 293 293 294 295 296 297 297 298 304 311 317 318 319 320 322 320 320 321 306 307 314 314 312 317
288 292 291 291 290 291 292 289 287 285 282 277 281 281 279 284 288 288 292 293 296 298 297 296 297 297 297 298 304 309 314 316 318 318 319 319 320 305 303 302 308 310 309 310
287 288 290 292 289 290 288 284 277 276 276 276 280 279 282 287 290 291 294 294 296 297 296 296 296 297 298 298 300 305 309 310 311 313 312 312 313 305 306 303 306 307 307 302
284 282 289 292 290 288 286 284 278 272 274 276 281 279 285 290 293 294 295 296 295 294 296 296 297 297 297 298 298 299 302 305 307 308 307 307 307 307 306 302 301 304 306 308
283 283 290 290 291 292 287 283 286 280 270 274 279 283 288 290 292 292 292 293 291 295 296 295 296 296 296 297 298 299 299 300 301 303 303 303 303 303 302 300 300 300 300 300
287 281 287 289 292 290 288 291 283 281 272 271 278 278 282 288 289 292 293 294 294 296 296 296 296 295 296 296 297 298 299 299 299 300 301 302 301 301 300 299 298 297 297 297
290 285 283 287 286 285 286 285 285 285 281 277 274 279 286 288 293 292 293 293 293 294 294 293 293 294 294 295 296 297 297 298 298 299 299 299 299 300 299 298 297 297 295 294
290 286 279 283 288 288 287 286 286 280 277 279 279 281 291 293 293 294 293 293 293 293 292 292 293 293 293 294 294 295 296 296 297 298 297 298 298 298 297 296 295 293 294 291
292 284 274 281 285 288 285 287 289 286 282 280 277 280 291 291 293 294 294 293 293 295 294 292 292 292 293 293 294 294 295 296 296 296 296 296 296 296 295 295 293 292 291 289
296 286 283 280 283 287 284 286 287 287 279 281 283 284 289 289 291 293 295 295 295 294 294 294 293 293 293 293 293 293 294 295 295 296 295 295 294 295 294 293 291 290 288 287
293 285 286 288 289 289 286 286 288 286 287 283 286 286 288 291 293 293 293 294 293 292 293 293 294 294 293 294 294 294 294 294 295 295 294 295 294 293 293 290 289 288 286 286
292 285 286 284 288 288 285 289 287 287 288 288 287 288 294 292 292 290 291 291 290 291 292 293 293 294 294 294 294 293 293 293 292 293 293 293 291 290 289 289 288 286 286 284
289 285 284 280 285 284 281 285 288 287 289 290 286 290 291 287 289 288 289 289 290 291 292 292 293 293 293 292 292 291 290 290 289 288 289 289 289 288 288 288 286 286 285 283
286 285 283 279 282 275 283 285 290 288 289 291 287 286 287 287 289 290 289 288 289 290 291 292 292 292 292 291 291 289 286 286 286 287 287 287 286 286 287 286 286 285 283 283
291 286 281 278 272 276 280 283 285 286 286 289 288 286 286 287 288 287 288 288 289 290 291 292 292 291 290 289 288 284 284 284 285 285 286 286 286 285 285 284 285 284 282 281
287 287 282 275 271 268 278 281 286 287 279 285 286 286 285 285 282 284 287 288 288 288 289 289 289 288 287 286 285 284 284 283 284 284 285 285 284 283 284 285 284 280 283 283
281 283 280 276 271 272 280 283 286 279 278 280 284 285 284 281 282 285 286 285 286 287 288 287 285 284 284 285 284 283 283 283 285 283 283 283 282 282 283 283 278 277 279 278
280 279 278 277 273 273 281 283 281 280 281 282 282 282 282 282 282 282 284 283 283 283 284 284 283 283 284 284 283 283 283 286 282 281 280 280 280 280 281 278 276 274 275 276
274 278 276 279 279 282 280 282 284 283 281 281 280 281 283 282 281 280 282 282 282 282 282 281 279 281 281 281 279 281 283 284 282 279 279 279 278 278 276 274 275 274 275 278
276 280 276 277 281 280 281 282 281 282 281 282 282 282 281 279 280 280 280 280 280 280 280 279 278 278 279 280 280 279 281 281 279 278 279 279 277 278 279 277 278 280 279 280
278 279 274 274 279 282 281 281 281 281 281 280 280 280 278 277 278 278 277 277 278 278 276 275 275 276 276 276 276 278 280 278 277 278 278 278 278 277 280 280 280 280 282 282
278 277 276 273 281 280 280 280 280 279 277 277 277 276 276 277 276 274 273 274 273 272 272 272 272 271 271 271 271 274 276 277 277 277 279 278 277 277 276 279 280 283 284 284

GFSCGP_sfc_thetae_099.txt.gz
Theta_e
292 288 285 288 288 285 285 284 284 285 290 289 289 289 291 293 291 292 292 292 292 293 296 296 297 298 306 310 315 321 325 328 329 329 329 329 327 328 328 326 323 323 321 317
289 284 289 290 288 287 285 284 283 286 289 289 287 288 289 291 292 293 294 293 293 292 292 295 296 295 297 305 312 317 323 326 328 330 330 330 330 329 329 329 324 323 322 319
285 287 291 289 286 286 284 283 283 285 286 285 284 283 285 288 289 291 293 294 294 293 294 294 294 294 294 296 304 313 319 324 327 330 330 318 322 319 326 327 325 322 322 320
287 290 289 287 286 287 282 288 287 286 284 280 283 277 282 286 288 289 292 291 291 291 292 294 294 294 293 295 298 308 316 322 326 328 326 325 326 324 325 326 326 323 322 321
286 288 287 286 287 289 286 288 286 285 281 281 280 279 281 283 285 289 290 291 291 292 291 293 294 295 295 295 296 303 312 319 323 325 324 324 324 326 321 323 320 321 321 320
287 290 290 290 289 289 290 287 285 283 281 277 280 280 279 282 286 286 290 292 295 296 296 296 297 297 296 296 298 304 311 315 319 322 321 321 322 309 309 312 317 314 315 317
286 287 290 291 288 289 286 284 277 275 275 276 279 278 281 286 288 288 290 292 292 292 295 295 295 295 296 296 298 304 308 307 309 313 313 314 315 309 310 311 315 313 312 306
282 281 288 290 288 286 284 284 278 271 273 276 280 279 283 288 291 291 291 291 291 292 294 294 294 294 294 295 297 298 302 305 307 309 309 309 310 307 307 306 308 312 313 313
282 282 289 289 290 292 285 282 285 279 269 273 278 281 287 288 289 292 293 294 292 293 294 294 294 294 294 295 296 297 298 299 301 304 304 304 305 304 304 302 302 303 303 303
287 281 286 288 290 289 288 289 282 279 270 270 276 278 281 285 290 291 291 291 292 292 293 293 293 294 294 295 296 297 298 298 298 299 300 302 301 302 302 300 299 298 298 298
287 285 283 287 285 285 285 285 284 285 280 275 272 278 285 289 291 291 290 290 291 292 292 292 293 293 294 294 295 296 296 297 297 298 298 298 298 299 298 297 297 297 295 295
290 285 279 283 286 287 288 286 285 281 276 277 279 279 289 292 292 292 292 292 293 291 291 291 291 292 292 293 293 294 295 295 296 296 296 296 297 296 296 296 296 294 294 292
290 284 274 280 284 285 284 285 286 284 282 279 276 279 289 290 291 292 292 292 292 292 292 292 292 292 291 292 292 293 293 294 295 295 295 295 295 295 295 294 294 293 292 291
295 285 284 280 281 286 283 285 287 288 281 281 283 282 287 287 291 291 291 291 290 290 291 291 292 292 292 292 292 291 292 292 293 293 294 293 294 294 294 294 292 291 291 290
292 282 284 285 287 285 284 285 287 286 287 283 286 285 289 289 290 291 290 290 290 290 291 291 291 291 291 291 292 292 291 291 290 291 291 292 292 292 292 290 290 290 289 288
292 285 284 285 289 288 284 286 287 287 287 287 286 285 291 291 289 288 289 289 289 289 290 291 291 291 291 291 290 290 289 288 287 288 288 288 287 288 288 288 288 287 287 286
289 286 285 283 285 285 283 287 287 286 286 288 285 289 289 286 287 286 287 288 288 289 290 290 290 290 290 289 290 289 288 286 286 285 286 286 286 285 286 286 286 286 286 285
287 286 285 280 283 278 285 285 291 289 289 291 287 287 288 287 287 286 287 287 287 288 289 289 289 289 289 288 288 287 285 285 285 285 284 284 284 285 285 284 285 284 284 283
291 286 282 279 279 278 280 282 285 287 287 291 288 285 286 287 286 284 286 287 287 287 288 288 287 287 287 286 285 284 285 284 284 285 285 284 283 283 283 283 283 283 280 280
288 288 284 276 276 270 279 281 286 288 280 284 287 285 285 286 281 282 286 285 285 286 286 285 284 285 283 283 283 283 283 283 283 285 285 284 283 280 280 282 282 280 276 283
282 282 282 277 271 273 279 284 285 278 280 280 285 285 285 281 283 284 284 283 284 284 283 283 282 282 282 282 282 282 282 281 283 283 282 282 281 279 280 279 277 278 278 278
281 280 280 278 275 274 280 282 282 282 281 283 282 281 281 282 282 282 282 282 281 280 281 281 280 280 280 281 280 280 280 282 282 281 280 280 280 279 280 276 279 276 273 277
276 279 278 280 279 282 282 282 284 285 282 280 281 282 282 281 281 281 280 280 280 279 280 278 275 276 277 277 277 276 278 279 279 278 278 279 279 279 279 274 277 276 274 279
276 280 278 279 279 279 280 280 281 281 280 281 281 282 281 280 280 279 279 279 278 277 277 274 273 273 274 273 274 273 274 275 275 275 276 277 279 280 279 277 276 277 281 281
278 279 276 275 280 280 280 279 280 280 280 280 279 279 277 277 277 277 276 275 275 274 273 272 272 271 270 270 270 268 271 272 272 272 273 275 278 278 278 279 279 278 280 281
278 277 277 276 281 280 279 280 280 278 277 277 277 275 276 276 274 272 272 272 271 270 269 269 268 267 267 266 266 267 267 268 267 267 272 275 277 280 281 281 281 285 284 285

GFSCGP_sfc_thetae_102.txt.gz
Theta_e
292 288 285 287 288 285 286 283 282 284 288 288 287 287 290 291 290 291 291 292 292 293 295 295 295 295 304 310 316 322 324 327 328 330 328 328 327 328 326 322 320 320 317 315
289 285 289 290 288 287 285 283 282 285 288 288 285 287 289 290 291 292 293 292 292 291 291 293 294 293 295 305 312 318 323 326 327 329 330 330 329 329 328 326 322 322 319 316
285 287 290 289 286 285 282 283 282 283 284 285 283 283 284 287 288 290 292 292 292 292 292 293 294 293 292 294 305 313 319 324 327 329 329 324 326 324 326 326 324 322 321 317
286 288 288 286 284 286 282 287 286 284 283 279 282 276 281 284 287 288 291 290 289 289 290 290 291 291 292 292 294 305 313 319 324 327 327 327 326 324 326 327 326 322 321 320
285 287 286 285 286 287 284 287 286 283 281 280 279 278 281 282 285 288 288 289 291 294 293 294 295 295 294 294 292 296 306 313 319 324 327 327 325 327 327 326 323 322 321 321
285 289 289 288 287 288 289 286 284 282 280 276 280 280 279 281 285 285 288 288 291 291 293 293 294 295 295 296 300 301 304 309 315 320 324 326 325 324 318 322 322 320 320 320
285 286 289 290 287 288 284 283 277 275 274 276 278 278 280 285 286 285 286 290 290 290 292 292 292 293 294 295 296 303 306 307 311 315 315 318 320 315 316 317 320 315 313 310
280 279 287 289 287 285 283 283 278 271 272 275 280 277 283 286 288 289 291 290 291 291 292 292 292 293 293 294 295 296 301 304 306 309 310 310 311 309 308 313 315 316 316 316
280 280 287 288 289 290 284 281 284 277 267 272 277 281 286 287 290 290 291 291 290 289 291 291 292 292 293 294 295 296 297 297 300 303 304 305 307 306 307 306 308 310 310 309
286 280 285 287 289 289 286 288 280 278 269 269 276 277 280 284 288 289 289 289 290 290 291 291 291 292 293 293 294 295 296 296 297 298 300 301 301 301 302 300 300 300 300 300
286 284 282 286 285 284 284 282 282 283 279 274 271 277 283 286 289 289 289 290 289 289 289 289 290 291 291 292 292 293 294 295 296 297 297 297 297 298 298 297 297 297 296 296
288 284 280 283 286 287 285 285 284 281 276 276 278 278 287 289 291 291 290 291 290 290 290 290 290 291 292 291 292 292 293 293 293 294 294 295 295 295 294 295 295 294 294 293
289 282 272 279 284 284 283 283 285 283 282 278 275 279 288 289 290 290 290 290 289 290 289 290 291 291 291 291 291 291 291 291 291 292 293 293 293 293 293 293 293 292 292 292
294 285 284 280 281 284 283 284 285 286 279 282 281 282 286 288 289 289 288 288 288 289 289 289 290 290 290 290 289 289 289 289 289 290 290 290 290 291 292 291 291 291 290 290
291 283 284 284 284 285 284 285 285 285 287 282 285 284 289 290 290 290 288 288 289 289 289 289 288 289 289 289 289 289 288 288 287 288 288 287 287 288 288 287 287 287 287 287
291 279 282 280 286 285 281 284 286 287 288 287 283 282 287 289 289 287 288 288 288 288 288 289 288 288 288 288 288 288 287 287 286 287 286 286 285 285 285 285 285 286 286 286
289 285 281 280 284 285 282 284 285 287 288 287 283 288 288 286 288 287 286 287 287 288 288 287 287 287 287 286 287 286 285 285 285 285 285 284 284 284 284 284 284 284 284 284
286 287 285 282 284 277 285 285 290 288 287 288 286 287 289 288 286 287 287 286 286 286 285 285 285 285 285 284 284 284 283 283 284 284 284 284 283 283 283 282 282 282 283 283
291 289 283 280 281 282 282 282 285 286 287 290 289 285 285 284 284 283 285 286 286 286 285 284 284 284 283 282 282 282 282 282 282 282 283 283 282 281 282 281 282 282 280 282
289 288 285 278 278 276 279 280 286 290 284 287 287 285 283 285 282 281 285 284 284 284 283 282 282 282 281 281 281 281 280 280 280 281 281 281 281 277 278 279 280 278 276 280
283 284 282 279 277 276 280 284 286 280 280 280 288 287 285 285 285 285 283 282 282 282 282 280 279 279 279 280 279 278 278 278 278 279 279 279 279 278 278 277 275 277 277 278
282 280 281 279 277 275 280 283 283 282 280 281 284 287 282 281 282 282 281 280 280 279 280 278 276 276 277 278 276 275 275 276 275 276 275 275 275 277 279 277 278 277 273 275
280 284 281 282 281 282 281 281 284 284 281 280 281 283 282 280 281 282 280 279 279 277 278 275 273 274 275 274 273 271 272 273 273 271 271 272 274 275 277 276 277 278 272 279
278 281 280 280 281 280 280 281 282 282 281 282 282 281 281 280 280 279 278 278 277 275 274 272 271 271 271 270 271 269 270 270 267 267 268 270 271 273 276 278 278 276 277 277
280 280 277 276 278 278 278 279 280 280 281 280 279 279 279 279 278 277 275 274 273 273 271 270 270 269 268 268 266 264 267 265 265 265 266 267 270 271 273 278 280 281 281 280
279 278 278 277 280 281 280 280 280 279 278 277 276 275 275 277 275 273 272 271 270 268 267 267 266 265 264 263 262 262 260 259 262 262 264 265 266 268 270 272 275 282 285 285

GFSCGP_sfc_thetae_105.txt.gz
Theta_e
292 288 286 288 288 286 286 284 283 285 289 288 288 288 290 292 292 292 293 294 294 295 298 297 298 298 303 313 320 325 327 331 331 330 328 327 327 327 324 322 321 319 319 317
289 285 289 291 288 287 285 284 283 286 289 289 286 288 290 291 292 293 294 293 294 293 294 295 295 296 296 302 312 319 325 328 330 331 330 330 329 329 327 325 321 321 319 317
286 288 290 290 286 286 284 284 284 285 285 285 284 284 285 288 289 290 292 292 293 293 293 293 294 295 295 295 303 313 321 326 329 331 330 329 328 326 326 324 322 321 319 317
287 288 288 286 284 286 283 287 286 285 284 280 283 278 283 285 287 289 291 290 291 294 294 294 296 296 295 296 295 308 315 322 326 329 329 327 326 324 326 327 325 322 321 318
285 286 286 285 286 287 285 287 286 285 282 281 280 280 282 283 286 288 289 292 292 294 295 295 295 296 297 299 297 297 308 316 322 327 328 327 325 326 327 327 325 322 321 321
286 289 288 288 287 288 288 285 284 282 280 277 280 281 280 282 286 286 289 289 291 291 293 294 295 296 297 298 304 303 303 309 316 323 326 327 325 324 321 323 324 322 320 320
284 285 288 289 287 288 285 283 277 276 275 276 278 278 281 286 286 286 289 290 291 292 293 293 294 294 296 297 298 306 308 310 314 318 321 325 325 324 322 320 322 319 317 317
280 279 287 289 287 286 283 283 278 272 273 276 280 278 282 286 288 291 292 291 292 292 292 292 293 294 295 296 297 298 302 306 311 314 315 317 318 318 317 318 320 320 319 320
280 280 287 287 288 290 285 282 284 277 268 274 278 281 285 287 290 290 291 291 290 291 291 292 293 293 294 295 296 297 298 298 301 305 309 311 312 312 312 312 313 313 313 311
285 280 285 287 289 288 286 288 281 279 271 270 276 278 280 286 288 289 289 289 289 290 290 290 291 292 293 293 294 296 297 296 297 299 300 302 303 305 305 305 306 306 306 306
286 284 282 286 285 284 283 282 282 282 279 274 271 277 283 285 289 289 288 289 289 289 289 290 291 291 292 293 293 293 294 294 295 296 297 298 298 299 300 300 300 301 301 300
288 284 280 283 285 286 285 284 284 280 276 276 277 278 287 287 291 290 289 290 290 290 290 290 290 291 291 291 291 291 291 292 293 294 295 295 295 296 296 296 297 297 297 297
289 283 273 280 283 284 283 284 285 282 281 277 275 281 288 288 289 290 290 290 290 289 290 290 290 290 290 290 290 290 290 290 291 292 291 291 291 292 293 293 293 294 294 294
294 285 284 279 282 284 283 283 284 284 278 281 281 282 286 287 288 289 289 289 289 289 289 289 289 289 289 289 289 289 289 289 289 290 289 289 289 289 290 290 290 290 291 291
291 283 284 286 282 283 284 284 285 283 286 282 285 282 287 290 289 290 288 287 288 288 288 288 288 288 288 288 288 288 288 288 289 289 288 287 288 288 288 287 287 287 288 288
290 283 283 281 285 284 281 284 285 287 287 286 282 283 287 292 289 288 288 288 287 287 287 287 287 287 286 287 286 286 286 286 287 287 286 286 286 286 286 286 285 286 286 287
288 286 281 281 284 284 281 284 284 286 288 288 284 289 288 287 291 289 288 288 287 287 286 286 285 285 284 285 285 284 284 285 284 284 284 284 284 284 284 284 284 284 284 284
287 287 286 283 283 276 285 289 289 287 288 289 285 287 288 290 290 288 288 288 287 285 285 284 284 283 283 283 283 283 283 283 283 282 282 282 282 282 282 282 282 283 283 283
292 288 284 281 280 282 285 282 284 285 286 289 289 285 284 285 286 284 287 288 286 285 284 284 284 283 282 282 282 282 281 281 280 280 280 281 280 279 279 278 280 281 280 282
287 287 286 282 280 278 281 281 285 289 283 289 289 285 284 287 285 284 286 286 285 284 284 283 282 281 281 280 280 279 279 278 277 277 278 279 279 275 275 277 278 279 278 279
282 283 281 282 279 281 280 282 285 281 282 280 288 287 286 288 287 286 286 283 284 283 281 280 279 278 278 278 277 276 276 274 275 275 275 275 275 274 275 276 276 276 277 278
282 282 281 280 278 278 280 284 283 283 281 281 286 285 282 283 283 283 282 281 281 280 278 277 276 276 275 274 274 273 272 273 272 271 271 270 270 272 274 273 275 276 275 276
280 284 282 282 282 283 281 282 285 284 282 282 284 283 283 282 281 281 280 280 279 279 276 274 274 274 272 271 271 269 269 270 269 266 266 267 268 270 272 273 275 277 278 277
279 281 281 282 284 284 284 282 283 283 282 283 283 282 283 281 281 280 279 278 276 275 273 273 272 271 269 268 268 266 268 267 263 262 264 266 267 268 269 271 273 275 277 279
280 281 277 277 278 279 280 281 282 281 281 280 280 281 281 281 279 279 277 275 274 272 270 270 269 268 266 266 265 263 264 262 261 262 263 264 266 265 266 269 270 272 274 277
279 279 278 279 282 283 281 281 282 280 279 278 278 277 277 279 277 275 273 272 271 269 268 267 265 264 263 262 262 261 259 258 257 260 262 263 263 264 265 266 267 273 276 278

GFSCGP_sfc_thetae_108.txt.gz
Theta_e
298 295 292 295 296 293 294 291 290 291 294 295 295 295 298 301 300 301 302 304 305 305 308 307 307 308 309 321 328 331 333 335 332 331 330 329 328 329 328 327 329 329 327 325
295 292 295 296 292 292 292 291 290 291 294 294 294 294 298 300 300 302 303 303 305 306 305 304 305 306 306 307 315 324 330 333 332 332 331 331 330 329 330 328 325 326 326 325
293 293 295 294 291 290 290 290 289 290 291 291 291 292 294 297 297 298 300 301 302 302 302 302 302 303 305 305 307 313 321 329 333 332 331 330 330 328 327 325 323 322 322 323
294 293 292 292 291 293 288 292 291 290 290 287 290 286 292 295 295 295 298 299 299 302 302 303 303 304 304 305 305 306 313 320 328 332 329 328 327 325 327 326 326 326 322 320
291 291 291 290 292 293 291 292 291 290 290 289 288 287 291 290 292 296 297 299 300 301 302 302 303 303 306 309 306 304 310 316 323 329 329 328 327 328 329 330 326 324 322 321
292 294 293 293 290 293 292 291 290 289 288 283 288 288 289 291 293 293 296 297 298 299 301 301 302 304 305 311 313 305 307 315 321 326 329 328 326 326 325 327 327 323 321 322
290 291 293 294 290 292 291 290 283 282 282 282 284 284 290 293 292 293 296 297 298 300 301 301 301 302 304 306 311 313 309 311 318 323 325 326 325 325 325 326 326 322 320 320
285 283 291 293 292 290 290 290 285 279 279 282 283 282 289 293 293 294 296 298 298 299 299 299 300 301 302 304 306 311 311 311 316 319 322 325 324 323 322 323 324 323 322 323
285 286 292 292 293 293 289 286 290 282 277 282 285 288 293 293 293 295 296 297 297 297 298 299 299 301 302 303 303 305 308 308 308 311 313 313 314 316 317 317 318 318 316 313
290 284 289 291 294 293 291 293 285 285 281 279 283 284 288 290 292 294 295 296 296 296 296 297 298 299 300 301 302 303 304 304 306 307 306 306 307 308 308 309 308 308 308 308
291 288 286 290 289 289 287 286 287 288 286 283 281 285 293 294 296 295 296 296 296 296 296 296 297 297 297 298 299 300 302 302 303 304 305 305 305 306 307 308 308 308 308 308
294 290 285 287 291 292 291 290 289 285 282 284 284 286 292 292 297 297 295 294 295 296 296 296 296 296 296 296 297 298 299 299 300 300 301 300 301 302 302 301 302 302 303 303
293 289 285 284 288 290 288 289 291 290 288 283 283 286 292 293 295 296 294 294 294 295 295 295 295 295 295 295 295 296 296 296 297 297 297 297 297 297 297 297 297 298 299 300
295 288 286 283 286 290 286 288 288 288 285 285 285 288 290 292 293 293 294 295 294 294 294 295 294 294 294 295 295 296 295 296 296 296 296 295 294 295 295 295 295 295 295 295
293 286 288 289 290 289 290 289 288 286 288 285 288 288 292 294 294 295 296 295 293 293 293 294 293 293 294 294 293 293 294 294 294 293 293 292 293 293 293 292 292 292 292 292
292 287 288 285 289 288 286 289 289 289 289 289 289 289 296 297 298 295 294 293 292 292 293 292 292 292 291 290 290 290 290 290 291 289 288 288 288 288 288 289 289 290 290 290
289 288 285 282 288 286 282 286 288 289 291 291 287 292 295 294 295 295 294 293 293 292 291 291 290 289 289 288 288 288 288 288 287 287 286 285 285 285 285 286 286 287 287 288
287 287 287 283 284 277 288 294 293 290 291 292 292 294 295 295 296 298 298 295 293 292 291 289 288 287 287 287 287 287 286 285 285 284 283 283 283 282 283 283 283 284 285 286
291 289 284 282 282 286 289 288 290 289 288 293 292 293 293 292 293 292 297 296 294 291 290 288 287 286 285 284 284 284 283 282 281 281 281 281 281 279 280 279 281 282 283 284
289 288 285 284 281 279 289 292 291 293 285 295 294 293 289 291 288 294 292 293 289 288 286 284 284 283 282 281 282 281 279 278 277 277 277 278 278 276 276 278 279 281 281 282
283 283 281 283 283 286 287 288 292 284 287 287 290 294 291 291 295 293 290 286 286 285 283 283 282 280 278 278 279 277 276 275 275 275 275 275 274 274 276 277 277 278 280 280
284 282 282 284 282 280 285 288 287 288 287 286 290 291 291 289 288 288 286 283 282 280 280 280 278 276 275 275 276 275 273 273 273 271 271 270 271 272 274 274 276 277 279 280
282 287 285 285 285 289 287 287 289 288 287 288 288 288 287 286 285 284 282 281 279 278 277 278 276 274 273 273 272 272 270 270 269 267 267 269 270 271 272 272 273 275 277 279
284 285 286 286 289 288 288 288 287 288 287 286 287 286 286 284 284 282 281 279 276 276 275 275 274 273 270 270 269 268 268 267 265 266 267 269 269 269 271 272 273 273 274 275
285 284 283 284 283 284 287 285 286 284 284 284 285 286 285 283 281 280 279 277 275 273 272 273 272 271 268 268 267 266 265 264 264 265 267 268 269 269 269 271 271 272 274 275
283 283 282 284 286 287 288 287 285 283 283 283 282 282 283 283 281 279 276 275 273 271 271 269 268 268 266 265 265 264 263 262 262 264 266 267 266 268 268 269 270 273 274 275

GFSCGP_sfc_thetae_111.txt.gz
Theta_e
301 295 292 295 297 297 295 294 292 295 296 296 296 296 299 302 302 302 303 304 306 306 309 310 310 312 318 326 329 331 332 335 333 331 330 330 329 330 330 331 331 331 330 329
296 292 297 299 298 295 294 293 292 293 295 295 296 295 299 301 302 303 303 304 306 307 308 308 308 310 310 312 321 327 330 333 335 332 332 332 331 331 332 331 329 329 330 329
294 295 299 296 294 293 293 292 292 291 293 295 293 292 295 300 301 303 304 305 306 307 307 308 308 307 309 310 311 314 324 330 333 332 331 331 331 330 329 329 327 327 327 327
296 296 296 295 293 294 290 294 293 291 291 287 293 286 295 297 297 298 300 303 304 304 304 305 306 307 308 308 311 310 313 320 329 335 330 329 327 325 327 328 329 326 325 324
293 293 293 293 294 296 292 295 293 292 291 290 290 287 292 294 294 297 301 302 303 305 305 305 306 306 308 311 311 309 308 313 320 328 331 329 327 328 330 329 326 326 324 324
294 296 296 295 294 296 295 293 293 292 290 283 289 288 289 293 294 296 299 301 302 303 304 304 305 306 309 314 315 309 307 309 316 322 329 327 327 326 326 327 325 325 324 322
291 292 295 296 292 294 295 291 284 283 283 282 287 287 290 297 296 296 298 299 301 302 303 304 304 305 307 310 314 312 307 311 316 322 325 328 326 325 325 326 326 323 321 320
286 284 292 295 294 291 291 291 286 281 281 284 285 283 290 297 297 297 297 300 301 301 302 302 303 304 305 307 312 314 312 313 315 320 323 325 323 324 324 325 327 324 322 322
287 287 294 294 295 295 290 288 293 284 281 284 287 290 295 296 295 296 296 298 299 301 301 302 302 303 304 305 307 311 312 312 315 318 319 318 319 320 320 320 321 321 319 316
292 285 291 292 295 295 293 295 285 287 282 280 285 287 289 292 293 295 296 297 299 300 300 301 302 302 303 304 305 306 309 310 309 310 311 312 312 311 311 312 310 310 309 309
293 290 287 291 289 289 289 289 290 290 288 283 281 286 295 296 297 296 297 298 299 298 299 300 300 300 301 302 303 304 305 306 307 308 307 306 306 307 307 307 307 307 309 309
294 291 286 287 293 295 294 290 291 286 284 286 285 287 295 295 296 300 299 300 300 300 299 299 299 299 299 299 300 301 302 301 302 303 303 303 304 304 303 303 303 304 304 305
294 289 286 285 290 293 289 291 292 292 290 285 283 286 297 295 297 299 299 298 297 298 298 298 298 298 298 298 298 298 298 298 299 300 299 299 299 299 298 298 299 299 300 300
296 292 287 283 286 290 287 289 291 289 285 286 287 289 293 294 295 297 298 297 297 297 297 297 297 297 297 297 297 297 297 298 298 298 297 296 296 296 296 296 296 296 296 296
295 287 289 290 291 291 291 290 290 288 289 286 289 289 293 296 296 297 298 298 297 296 296 297 296 296 296 295 295 296 295 295 295 293 292 292 292 292 292 292 293 293 292 293
294 288 290 286 290 290 288 290 291 291 291 290 290 290 297 299 299 298 297 297 295 296 296 296 296 295 294 293 293 292 291 291 291 289 288 288 288 288 288 288 288 288 289 290
290 289 286 283 289 288 284 287 289 290 293 291 287 292 296 296 297 298 298 297 296 296 295 295 294 293 292 291 291 289 289 289 288 287 286 285 285 285 285 285 285 285 286 287
288 286 288 284 285 277 288 295 294 291 292 294 294 295 296 297 299 300 301 298 297 297 296 295 294 291 289 289 288 287 287 286 285 284 283 283 283 282 282 283 283 283 284 284
291 288 285 282 283 287 290 293 292 290 290 295 294 295 296 297 299 298 301 301 299 298 296 294 292 289 287 286 286 285 284 283 282 281 280 280 279 278 279 280 280 281 282 282
290 290 285 284 281 279 289 292 297 296 285 296 296 295 295 295 289 294 300 300 299 296 293 289 287 286 284 284 284 281 280 279 277 277 277 277 277 276 277 278 278 279 280 281
281 284 281 283 283 286 288 290 294 284 287 288 290 292 294 294 295 298 299 297 294 290 287 286 284 281 280 281 281 278 277 275 275 275 275 275 274 274 276 276 276 277 278 279
283 282 282 283 281 280 289 290 288 289 291 289 291 292 290 294 293 294 292 288 286 283 283 282 278 277 277 279 278 276 274 274 273 272 272 272 272 273 275 273 275 275 277 277
283 289 287 288 288 294 290 293 293 291 289 291 290 290 291 290 289 288 286 284 282 281 280 278 276 274 274 274 276 273 271 271 270 270 270 271 272 273 273 273 274 275 276 276
287 289 287 287 291 292 293 292 292 291 291 289 289 289 290 289 286 284 282 280 279 278 277 276 274 272 270 270 270 270 269 269 268 269 270 272 271 271 273 273 274 273 274 274
286 287 287 286 289 289 290 290 290 290 287 286 287 288 289 287 284 282 279 278 277 276 276 276 275 272 270 269 268 267 267 266 268 269 270 270 271 270 271 272 272 273 274 274
286 285 284 284 288 289 289 286 289 289 286 285 285 284 285 284 282 281 278 277 275 274 274 273 272 270 268 268 266 265 265 265 265 269 269 268 268 269 270 270 270 274 275 275

GFSCGP_sfc_thetae_114.txt.gz
Theta_e
298 292 288 291 293 292 290 290 289 291 293 291 291 292 294 296 295 296 296 297 298 299 301 302 306 310 316 321 324 328 331 331 330 330 329 329 329 330 329 330 329 328 328 326
293 288 295 296 295 292 290 289 288 290 294 291 290 291 294 296 296 297 297 296 298 298 300 302 302 303 306 312 319 324 326 331 330 329 330 330 330 330 330 330 328 328 327 327
290 292 297 295 292 291 289 288 287 288 290 290 287 287 290 294 297 297 298 298 299 299 299 301 301 301 302 302 304 315 322 325 331 330 330 329 330 328 328 328 328 328 327 326
293 295 294 292 291 291 286 291 291 289 287 281 287 279 286 290 292 294 296 296 297 298 298 299 300 299 301 301 303 305 306 315 324 330 327 327 326 325 327 328 328 326 326 325
290 291 291 290 291 293 289 292 290 289 286 283 283 280 284 289 289 292 294 295 296 297 300 300 301 303 303 305 305 305 304 304 310 325 328 326 325 326 326 327 326 325 323 323
291 294 293 292 292 293 293 290 289 287 285 278 284 283 283 287 290 290 292 295 298 299 299 300 301 302 304 307 309 308 303 302 305 311 326 326 325 324 323 324 324 324 322 321
289 289 291 293 289 291 290 286 279 277 277 277 282 281 285 290 291 292 294 295 296 299 299 299 299 300 302 304 309 308 303 302 306 310 314 324 325 325 324 323 324 323 321 319
283 281 288 292 290 287 287 286 280 274 276 277 281 278 284 292 292 291 293 296 296 297 299 299 299 300 301 303 307 307 307 308 310 313 316 317 321 323 323 323 324 323 322 321
284 284 291 292 291 291 287 283 287 280 274 276 280 284 290 291 291 292 291 295 295 296 297 298 298 299 300 301 302 307 307 307 310 311 312 312 317 318 319 318 318 320 319 316
288 283 289 290 291 290 288 290 281 282 272 272 278 279 283 287 289 291 291 292 295 297 298 298 298 298 299 299 301 302 306 306 305 306 307 308 309 311 311 311 310 309 309 309
290 288 284 288 286 285 285 285 285 285 282 276 274 279 287 289 291 290 290 293 295 296 296 297 297 297 297 298 299 300 301 303 305 305 305 304 305 306 306 305 305 307 306 307
292 289 280 284 288 290 289 286 286 280 278 280 280 281 291 290 290 292 293 294 295 296 296 296 296 295 296 296 297 297 297 297 298 300 300 300 300 300 299 299 300 301 301 300
291 285 277 280 285 288 285 287 288 287 284 280 276 281 291 291 291 293 293 294 294 294 294 295 295 295 294 294 294 294 294 295 295 295 295 294 294 294 293 293 294 294 294 294
295 289 283 280 283 288 283 286 288 287 281 283 282 285 286 288 290 292 293 293 293 293 294 293 293 294 294 294 293 293 293 294 294 293 292 291 291 291 291 291 291 291 291 290
292 281 286 285 287 287 286 286 287 286 286 282 285 285 290 289 291 292 293 292 293 293 293 293 293 292 292 292 292 292 291 291 290 289 288 287 287 287 287 286 286 285 286 286
292 282 284 280 287 287 283 287 288 288 288 287 287 286 293 290 290 292 293 293 293 293 294 294 294 293 292 291 290 289 288 287 287 285 285 285 284 283 283 283 283 283 283 283
287 282 279 273 285 283 278 285 286 287 289 288 285 290 293 291 291 292 293 293 294 294 294 294 293 292 290 289 289 286 286 285 284 282 282 282 282 281 281 282 282 282 282 282
284 283 280 275 279 274 284 291 291 289 290 291 291 292 294 294 291 293 295 295 295 294 294 293 293 290 288 287 285 285 284 283 281 281 280 280 279 279 280 280 280 280 281 281
291 285 282 279 279 281 286 287 288 287 287 292 291 293 294 295 291 293 294 297 296 296 296 294 292 288 286 284 283 282 281 280 279 278 278 278 277 277 278 277 278 279 279 280
289 290 280 283 275 274 281 286 289 291 283 286 288 287 288 291 285 292 293 296 295 294 293 290 286 285 283 282 281 280 278 277 276 277 277 276 276 276 276 277 277 277 278 279
282 284 282 283 280 281 284 285 289 280 282 282 286 288 288 286 289 292 295 293 291 290 286 285 283 281 281 280 280 277 276 275 275 275 275 275 275 276 275 275 276 275 275 276
281 281 280 282 280 277 285 284 284 285 285 284 287 287 284 286 288 286 285 283 284 283 282 280 278 277 279 279 278 275 273 274 273 274 273 273 273 275 274 273 274 273 273 272
280 282 281 283 282 288 285 285 289 289 287 287 286 286 288 287 284 283 282 280 280 278 277 276 275 274 275 276 276 273 272 272 272 272 272 272 273 273 273 272 272 273 272 270
281 285 280 281 284 285 287 288 289 289 286 285 284 286 288 286 284 281 280 279 277 276 275 274 273 271 271 272 272 271 270 270 271 271 271 272 272 272 272 273 273 270 267 268
281 283 280 280 284 285 285 284 286 286 284 283 284 284 286 284 282 281 278 276 276 275 274 275 273 272 270 269 268 268 268 269 270 270 271 270 271 270 271 272 269 271 270 270
282 282 280 278 285 285 284 282 283 283 284 284 284 283 284 284 282 280 278 277 276 275 275 274 272 270 269 268 266 266 266 267 269 269 269 268 269 269 269 269 268 273 274 275

GFSCGP_sfc_thetae_117.txt.gz
Theta_e
295 289 286 289 291 290 289 287 286 287 292 291 290 290 293 293 292 292 292 293 294 295 298 300 305 311 318 322 328 329 328 328 329 330 330 330 329 330 329 328 328 328 328 326
289 286 291 293 292 290 288 286 285 288 291 288 288 289 291 293 293 294 294 294 294 295 297 297 300 305 312 317 323 328 329 328 328 328 329 330 330 330 330 330 328 328 327 326
287 290 295 293 290 289 286 286 285 287 288 288 285 284 288 291 293 294 294 295 296 296 297 297 297 300 302 308 314 320 328 329 329 328 328 325 328 328 327 327 327 327 327 326
290 293 292 290 289 289 285 289 289 288 283 280 284 278 284 288 290 292 294 294 295 296 295 297 297 296 296 298 301 302 307 323 329 328 326 325 324 323 327 327 328 327 326 325
289 290 290 289 290 291 287 290 289 287 284 281 281 279 282 285 287 291 293 293 293 294 296 297 300 301 302 303 303 304 304 302 307 328 327 326 324 325 323 327 326 326 325 325
290 292 291 291 290 291 291 288 287 285 282 277 281 280 280 284 288 289 290 293 294 297 297 298 299 301 303 306 306 307 306 303 302 305 325 325 324 323 322 324 324 324 323 323
287 288 290 292 288 290 289 283 277 276 276 276 280 279 282 287 290 291 292 293 295 296 296 298 298 299 301 301 306 306 304 300 301 301 312 323 323 324 323 323 324 323 321 318
282 280 288 290 289 286 286 284 279 273 274 276 279 278 283 289 289 290 292 294 294 295 297 297 298 299 300 301 305 305 305 306 308 308 310 317 321 320 322 323 324 323 322 321
282 283 289 290 291 291 286 283 286 279 270 274 278 281 287 290 290 290 288 292 294 295 296 297 298 299 299 300 301 305 305 306 307 309 310 310 314 316 318 320 321 321 319 317
287 282 288 289 290 289 287 289 281 280 270 270 276 277 281 285 287 287 289 290 292 294 295 295 296 297 298 299 300 303 304 304 303 304 305 306 308 310 312 312 311 310 310 310
288 285 283 287 285 285 285 284 284 283 280 274 272 277 284 288 289 289 289 289 291 294 294 294 295 295 296 297 298 299 300 301 302 302 301 303 304 304 303 304 305 304 305 305
289 285 279 283 287 288 287 285 284 279 276 277 279 280 287 288 289 289 288 290 291 293 294 294 294 294 294 294 295 296 296 296 298 300 298 297 298 299 298 298 299 299 299 299
290 282 272 279 284 286 283 285 286 284 281 279 275 280 288 288 289 291 290 291 292 293 292 293 293 293 292 292 292 292 293 293 294 295 295 294 294 294 293 293 294 294 293 293
294 285 281 278 281 286 283 285 287 285 279 280 280 283 284 287 287 290 291 291 292 292 293 292 292 292 292 292 291 291 292 292 291 291 290 289 289 289 289 289 289 289 289 288
291 278 283 283 285 285 284 284 286 285 285 281 284 284 288 287 288 290 291 291 291 292 292 291 291 291 291 290 290 290 289 288 288 287 286 285 285 285 285 284 284 283 283 284
290 277 282 278 285 285 282 285 285 286 286 285 284 285 290 288 287 289 291 291 291 291 292 292 292 291 290 290 288 287 286 285 286 284 283 283 282 282 282 282 282 282 282 282
284 280 277 277 284 284 277 281 285 285 287 287 283 289 289 288 290 289 291 291 292 293 293 292 292 292 291 289 288 285 284 283 282 281 281 281 281 281 281 281 281 281 281 281
283 280 279 276 275 270 282 288 289 288 288 289 289 291 291 290 290 291 291 292 292 293 292 293 293 291 289 286 285 284 282 281 280 280 279 279 279 279 279 279 279 279 280 280
288 283 280 276 266 278 283 287 286 285 285 288 289 289 288 290 290 289 292 292 294 295 295 294 292 290 285 284 284 282 280 280 279 278 277 277 278 277 277 275 277 278 278 279
288 286 281 272 270 271 280 285 288 289 280 287 288 287 287 288 283 287 290 292 293 293 291 289 287 285 283 281 282 280 278 277 276 277 277 277 277 275 274 276 276 277 278 278
283 284 280 279 270 276 284 286 287 279 281 283 287 287 286 285 287 288 286 284 284 284 284 284 283 282 280 280 280 277 276 275 275 275 275 275 276 274 275 275 276 276 276 277
283 281 281 281 278 275 284 284 284 284 283 284 286 286 285 286 287 284 281 280 279 278 278 279 278 277 278 278 277 275 274 274 274 274 273 273 274 275 275 275 275 275 275 274
277 282 280 284 281 286 283 285 288 288 286 285 284 285 286 286 285 283 280 278 277 276 276 276 275 274 274 275 275 272 272 273 273 272 273 273 274 274 275 274 273 273 273 272
280 284 280 280 282 285 286 287 288 287 286 286 285 285 286 286 284 282 279 278 276 275 274 274 273 272 271 271 273 273 273 273 274 273 273 273 273 272 273 273 273 272 271 271
281 284 279 277 282 285 285 285 285 285 284 284 284 285 286 284 283 281 278 276 276 275 273 273 273 272 271 271 270 270 271 272 273 272 272 272 271 271 271 272 272 272 272 272
281 282 282 280 285 284 284 283 283 283 283 283 283 282 283 284 283 280 277 276 275 273 273 272 272 271 270 269 267 268 269 272 272 271 270 270 270 270 270 269 269 274 274 276

GFSCGP_sfc_thetae_123.txt.gz
Theta_e
291 287 284 286 288 288 287 286 286 285 290 290 288 289 290 291 289 291 292 292 293 295 302 300 310 318 320 323 325 326 326 326 327 327 327 329 328 329 328 328 328 329 329 327
288 284 289 291 290 288 285 284 284 287 290 288 286 288 290 290 291 292 292 290 292 293 294 295 295 301 314 320 325 325 326 327 327 328 328 327 329 329 330 330 327 328 328 327
286 288 291 290 287 287 283 283 283 286 287 286 284 285 286 290 290 291 292 293 294 295 295 294 294 295 303 314 322 325 326 327 328 328 326 323 327 327 327 327 327 326 327 326
287 290 290 287 286 287 283 287 287 286 284 280 283 279 283 285 288 289 292 294 294 296 294 294 294 293 297 308 316 324 326 326 327 327 325 324 324 322 325 325 324 325 326 326
285 287 287 285 286 288 285 288 287 284 282 280 279 278 281 282 286 289 291 292 293 294 293 294 294 293 294 300 305 313 319 322 324 324 325 324 323 324 320 320 321 323 321 323
287 289 290 289 288 289 288 286 285 283 282 277 279 280 279 282 287 288 287 289 291 291 291 294 298 300 300 301 301 302 303 308 315 322 324 323 323 322 318 319 321 323 325 325
284 285 286 289 286 286 285 282 276 276 275 276 278 277 282 285 287 287 287 289 289 291 293 296 297 299 300 300 303 303 303 302 302 301 313 325 324 324 320 321 322 323 323 321
282 280 286 288 287 284 283 283 277 272 272 276 279 278 282 287 288 288 287 288 292 292 294 294 296 297 298 299 302 302 302 302 303 302 299 301 322 325 324 324 323 322 322 322
280 281 287 288 288 290 284 281 284 278 269 274 278 280 286 287 287 287 287 289 291 292 293 294 294 296 297 298 299 301 301 302 302 303 304 300 303 319 321 320 318 320 319 319
285 281 286 287 289 288 286 288 282 279 271 271 276 277 280 284 286 287 287 289 289 291 293 294 294 295 295 294 296 300 300 301 301 301 306 308 310 313 315 315 315 315 314 312
286 285 283 286 285 283 283 282 281 282 280 274 272 277 283 285 285 286 287 288 289 291 292 293 293 294 294 294 295 296 298 299 299 300 304 306 305 306 307 307 306 305 306 307
288 285 280 282 285 286 285 285 285 282 276 276 277 279 285 286 286 287 287 287 286 290 292 293 293 292 292 292 293 294 294 295 295 295 296 298 300 300 300 300 300 301 301 300
289 282 277 281 284 285 283 283 285 282 281 277 275 278 287 286 288 288 290 289 290 289 289 291 291 291 291 291 292 292 292 292 292 293 293 294 295 295 295 295 295 295 295 294
293 284 283 279 282 285 282 284 284 284 280 279 280 280 283 285 288 288 289 290 290 290 291 290 290 291 291 291 290 290 290 290 290 291 291 290 291 291 291 291 290 290 290 289
289 280 281 281 283 285 283 284 284 284 286 282 284 282 284 286 287 286 286 290 290 290 290 290 290 290 290 289 289 289 289 288 288 288 288 287 287 287 286 286 285 284 284 284
286 276 281 278 282 283 282 284 285 285 285 283 280 281 286 287 285 286 287 288 288 289 290 290 291 291 290 290 289 289 288 286 286 285 283 284 285 284 284 283 283 283 282 281
285 278 275 271 280 281 278 282 283 285 284 285 282 287 287 284 287 287 287 287 287 289 290 290 290 291 290 289 290 287 286 284 283 282 281 281 281 281 281 281 280 280 280 280
284 283 280 273 275 273 283 285 288 286 286 288 286 286 287 288 287 288 288 289 289 290 290 290 290 290 289 288 287 284 283 282 281 281 280 280 280 279 279 279 279 279 279 279
287 285 278 276 265 277 280 283 283 283 285 287 288 287 288 288 288 287 289 288 288 288 288 288 289 289 287 286 283 283 281 281 280 279 279 278 278 277 277 275 276 276 277 277
286 287 284 272 272 272 280 285 286 288 283 287 287 286 287 287 282 286 289 286 285 284 283 283 284 284 284 282 282 281 279 278 277 277 277 277 276 274 274 275 274 271 272 276
278 279 282 272 273 276 282 284 286 280 282 281 286 287 286 286 287 287 286 284 282 282 281 281 281 281 281 281 281 279 277 276 276 276 275 274 274 273 273 271 271 270 273 275
282 281 278 272 271 277 283 284 284 285 283 283 285 285 286 286 287 286 284 283 281 279 279 279 277 278 278 279 278 276 275 274 274 273 272 271 269 273 271 269 271 276 276 275
282 284 280 283 282 284 283 285 286 287 286 285 286 285 287 286 286 285 284 282 281 278 278 275 274 273 273 274 276 275 273 273 272 271 269 268 272 275 276 275 274 273 273 273
279 282 284 282 282 283 286 286 286 287 286 286 286 286 286 286 285 284 283 282 280 276 276 272 272 271 270 269 272 271 272 272 271 270 273 275 275 274 274 274 275 274 274 274
281 283 279 277 281 284 285 286 287 286 286 285 285 285 286 286 284 283 279 278 279 277 273 272 272 271 269 266 266 268 271 273 273 274 274 274 274 274 272 272 273 274 274 275
281 281 282 279 285 285 286 286 286 285 284 284 284 282 283 283 283 281 277 279 276 274 272 271 270 269 267 265 267 268 271 274 273 273 273 272 271 272 272 273 273 277 278 278

GFSCGP_sfc_thetae_126.txt.gz
Theta_e
290 288 284 286 287 287 286 285 284 285 289 289 287 289 290 289 288 290 292 294 298 304 312 311 316 318 320 322 323 324 325 325 325 323 323 323 326 327 327 328 329 329 329 327
287 285 288 290 288 287 284 283 282 286 288 288 286 288 290 290 291 291 292 292 293 295 297 297 298 305 315 320 323 324 324 325 325 326 325 324 324 326 329 329 328 329 329 327
286 288 291 290 286 286 282 283 282 284 285 285 283 285 286 289 290 292 292 292 293 295 297 297 294 293 296 312 319 323 324 325 326 327 324 321 322 322 324 326 327 326 327 327
287 289 289 286 285 286 281 286 285 285 283 281 282 279 284 285 287 287 291 292 294 295 294 294 293 292 293 300 311 319 322 324 325 326 324 324 323 322 324 323 323 323 323 324
285 286 286 285 286 288 285 287 285 283 280 279 278 278 283 282 285 288 291 292 294 294 293 293 293 294 292 296 308 314 318 321 322 325 326 324 323 324 320 319 319 320 319 321
286 288 289 288 286 288 287 284 283 281 279 276 277 278 279 281 286 288 289 288 290 290 291 290 295 297 298 299 300 304 311 314 317 320 321 321 322 321 316 316 318 318 320 321
283 283 285 288 285 285 284 282 276 275 274 275 276 276 281 285 286 287 287 287 288 291 290 294 296 298 299 300 301 302 302 302 304 308 317 323 322 322 320 319 321 322 322 323
281 279 285 287 286 283 282 284 277 272 272 275 278 276 282 286 288 287 288 288 291 292 292 293 295 296 297 299 301 302 302 302 303 301 301 301 309 323 324 324 323 323 323 323
279 280 286 286 287 289 283 280 284 278 268 273 276 279 284 286 286 287 287 287 290 291 292 293 294 295 296 297 299 301 301 301 302 303 303 302 298 300 310 316 321 322 321 319
286 280 285 286 288 287 286 287 282 279 272 270 275 276 279 284 283 285 286 288 288 291 292 293 294 294 295 294 296 298 300 300 299 300 307 308 309 305 306 311 312 316 313 314
286 284 281 286 284 283 283 282 281 281 279 274 270 276 281 283 284 285 287 288 289 290 292 293 294 294 294 293 294 295 297 298 298 299 305 306 305 306 308 308 308 308 308 309
287 284 278 281 285 286 284 284 284 281 276 276 277 278 284 285 286 286 286 287 287 290 292 293 293 292 292 292 292 293 294 295 294 295 298 300 301 302 301 300 300 301 300 300
288 282 275 280 283 284 282 281 284 282 281 277 275 278 285 286 285 287 288 288 289 290 291 292 291 291 291 291 291 292 292 292 292 292 293 295 296 296 295 295 295 295 295 294
293 284 282 279 281 284 282 282 283 283 279 277 279 279 283 286 287 287 288 289 290 291 292 290 290 290 290 290 290 290 290 290 290 290 290 289 291 292 291 291 291 291 291 290
290 283 282 281 283 285 284 283 284 284 286 283 285 283 285 287 288 287 288 289 290 291 290 290 290 290 290 289 289 289 289 289 289 289 288 287 286 286 287 286 286 285 285 285
285 276 281 278 282 283 282 283 284 285 286 284 279 281 285 287 287 287 288 288 288 289 289 289 289 290 290 290 290 289 289 288 287 286 285 284 284 285 284 284 283 283 283 284
284 279 276 272 281 282 278 282 283 284 284 285 281 285 287 284 285 286 287 288 289 287 288 289 289 289 290 290 290 289 287 285 284 284 282 282 282 282 282 282 282 282 282 282
284 283 281 274 277 272 282 284 288 286 287 287 284 286 287 287 286 287 288 288 289 289 289 289 288 288 289 289 287 286 284 283 283 282 281 280 280 279 279 279 279 279 279 279
286 285 277 277 271 277 281 282 282 282 285 287 287 286 286 287 288 287 289 287 288 286 286 286 285 286 286 285 284 284 283 282 281 280 279 278 278 277 277 276 276 276 277 277
285 285 283 269 272 271 281 285 285 287 281 287 287 286 285 287 284 285 288 287 286 284 283 283 283 284 284 282 283 282 280 279 279 278 278 277 276 275 274 275 274 270 272 275
277 276 280 265 269 275 281 283 286 279 282 282 286 288 288 287 289 287 286 284 284 283 282 281 281 281 281 281 281 280 278 278 277 276 275 274 274 273 273 272 270 271 274 274
280 279 277 270 270 276 282 284 284 285 283 283 286 287 286 285 285 285 284 283 283 282 281 280 278 278 278 279 279 278 277 275 274 274 273 271 270 274 271 271 269 270 272 272
279 282 281 283 282 284 284 285 286 287 286 286 286 286 287 286 285 284 283 282 281 280 280 275 274 273 272 273 275 274 273 273 272 271 269 268 269 271 271 272 271 271 270 272
280 283 282 284 282 283 285 285 287 287 286 287 287 287 287 286 285 284 283 282 281 277 277 272 271 271 271 269 272 272 272 272 270 268 268 270 271 270 269 273 271 272 272 272
283 285 281 279 281 284 285 286 287 286 286 286 286 286 286 285 284 284 280 278 280 278 274 273 273 272 271 267 267 266 270 269 269 269 270 270 270 269 269 270 270 272 271 272
283 282 285 286 285 286 287 286 286 286 285 285 284 283 283 283 283 281 277 279 277 275 272 271 271 269 268 265 264 264 266 270 271 270 271 271 271 270 270 270 270 277 277 279